<?xml version="1.0" encoding="UTF-8" standalone="no" ?>
<gpx xmlns="http://www.topografix.com/GPX/1/1" xmlns:xsi="http://www.w3.org/2001/XMLSchema-instance" xsi:schemaLocation="http://www.topografix.com/GPX/1/1 http://www.topografix.com/GPX/1/1/gpx.xsd" version="1.1" creator="VisuGPX - https://www.visugpx.com">
  <metadata>
    <name>Sortie d'après midi</name>
    <desc><![CDATA[Sortie d'après midi]]></desc>
  </metadata>
  <trk>
    <name><![CDATA[Sortie d'après midi_1]]></name>
    <trkseg>
      <trkpt lat="45.83306" lon="1.22074">
        <ele>254.9</ele>
        <time>2024-11-18T13:57:09Z</time>
      </trkpt>
      <trkpt lat="45.83306" lon="1.22074">
        <ele>254.9</ele>
        <time>2024-11-18T13:57:13Z</time>
      </trkpt>
      <trkpt lat="45.83305" lon="1.22077">
        <ele>254.8</ele>
        <time>2024-11-18T13:57:16Z</time>
      </trkpt>
      <trkpt lat="45.83306" lon="1.22062">
        <ele>254.3</ele>
        <time>2024-11-18T13:57:19Z</time>
      </trkpt>
      <trkpt lat="45.83306" lon="1.22042">
        <ele>253.5</ele>
        <time>2024-11-18T13:57:22Z</time>
      </trkpt>
      <trkpt lat="45.83306" lon="1.22015">
        <ele>252.2</ele>
        <time>2024-11-18T13:57:25Z</time>
      </trkpt>
      <trkpt lat="45.8331" lon="1.21991">
        <ele>250.4</ele>
        <time>2024-11-18T13:57:28Z</time>
      </trkpt>
      <trkpt lat="45.83315" lon="1.21971">
        <ele>248.9</ele>
        <time>2024-11-18T13:57:31Z</time>
      </trkpt>
      <trkpt lat="45.83318" lon="1.21958">
        <ele>248.5</ele>
        <time>2024-11-18T13:57:34Z</time>
      </trkpt>
      <trkpt lat="45.8331" lon="1.21948">
        <ele>248.1</ele>
        <time>2024-11-18T13:57:37Z</time>
      </trkpt>
      <trkpt lat="45.833" lon="1.21942">
        <ele>247.9</ele>
        <time>2024-11-18T13:57:40Z</time>
      </trkpt>
      <trkpt lat="45.83289" lon="1.21931">
        <ele>247.8</ele>
        <time>2024-11-18T13:57:43Z</time>
      </trkpt>
      <trkpt lat="45.83279" lon="1.21914">
        <ele>247.8</ele>
        <time>2024-11-18T13:57:46Z</time>
      </trkpt>
      <trkpt lat="45.83273" lon="1.21901">
        <ele>247.8</ele>
        <time>2024-11-18T13:57:49Z</time>
      </trkpt>
      <trkpt lat="45.83267" lon="1.21891">
        <ele>247.8</ele>
        <time>2024-11-18T13:57:52Z</time>
      </trkpt>
      <trkpt lat="45.83258" lon="1.21881">
        <ele>247.8</ele>
        <time>2024-11-18T13:57:55Z</time>
      </trkpt>
      <trkpt lat="45.83248" lon="1.21872">
        <ele>247.8</ele>
        <time>2024-11-18T13:57:58Z</time>
      </trkpt>
      <trkpt lat="45.83235" lon="1.21865">
        <ele>247.8</ele>
        <time>2024-11-18T13:58:01Z</time>
      </trkpt>
      <trkpt lat="45.83224" lon="1.21858">
        <ele>247.8</ele>
        <time>2024-11-18T13:58:04Z</time>
      </trkpt>
      <trkpt lat="45.83214" lon="1.21856">
        <ele>247.9</ele>
        <time>2024-11-18T13:58:07Z</time>
      </trkpt>
      <trkpt lat="45.83203" lon="1.21854">
        <ele>247.9</ele>
        <time>2024-11-18T13:58:10Z</time>
      </trkpt>
      <trkpt lat="45.8319" lon="1.21851">
        <ele>247.9</ele>
        <time>2024-11-18T13:58:13Z</time>
      </trkpt>
      <trkpt lat="45.83176" lon="1.21843">
        <ele>248.1</ele>
        <time>2024-11-18T13:58:16Z</time>
      </trkpt>
      <trkpt lat="45.83163" lon="1.21841">
        <ele>248.1</ele>
        <time>2024-11-18T13:58:19Z</time>
      </trkpt>
      <trkpt lat="45.83147" lon="1.2183">
        <ele>247.7</ele>
        <time>2024-11-18T13:58:22Z</time>
      </trkpt>
      <trkpt lat="45.83133" lon="1.21818">
        <ele>247.5</ele>
        <time>2024-11-18T13:58:25Z</time>
      </trkpt>
      <trkpt lat="45.83125" lon="1.21806">
        <ele>247.4</ele>
        <time>2024-11-18T13:58:28Z</time>
      </trkpt>
      <trkpt lat="45.83128" lon="1.21795">
        <ele>247.2</ele>
        <time>2024-11-18T13:58:31Z</time>
      </trkpt>
      <trkpt lat="45.83135" lon="1.21788">
        <ele>246.7</ele>
        <time>2024-11-18T13:58:34Z</time>
      </trkpt>
      <trkpt lat="45.83145" lon="1.21777">
        <ele>246.1</ele>
        <time>2024-11-18T13:58:37Z</time>
      </trkpt>
      <trkpt lat="45.83154" lon="1.21768">
        <ele>245.8</ele>
        <time>2024-11-18T13:58:40Z</time>
      </trkpt>
      <trkpt lat="45.83162" lon="1.21761">
        <ele>245.6</ele>
        <time>2024-11-18T13:58:43Z</time>
      </trkpt>
      <trkpt lat="45.83173" lon="1.21757">
        <ele>245.6</ele>
        <time>2024-11-18T13:58:46Z</time>
      </trkpt>
      <trkpt lat="45.83182" lon="1.21752">
        <ele>245.5</ele>
        <time>2024-11-18T13:58:49Z</time>
      </trkpt>
      <trkpt lat="45.83192" lon="1.21735">
        <ele>245.6</ele>
        <time>2024-11-18T13:58:52Z</time>
      </trkpt>
      <trkpt lat="45.83202" lon="1.21717">
        <ele>245.7</ele>
        <time>2024-11-18T13:58:55Z</time>
      </trkpt>
      <trkpt lat="45.8321" lon="1.21706">
        <ele>245.7</ele>
        <time>2024-11-18T13:58:58Z</time>
      </trkpt>
      <trkpt lat="45.83217" lon="1.21693">
        <ele>245.7</ele>
        <time>2024-11-18T13:59:01Z</time>
      </trkpt>
      <trkpt lat="45.83225" lon="1.21681">
        <ele>245.6</ele>
        <time>2024-11-18T13:59:04Z</time>
      </trkpt>
      <trkpt lat="45.83233" lon="1.21666">
        <ele>245.5</ele>
        <time>2024-11-18T13:59:07Z</time>
      </trkpt>
      <trkpt lat="45.83234" lon="1.21651">
        <ele>245.3</ele>
        <time>2024-11-18T13:59:10Z</time>
      </trkpt>
      <trkpt lat="45.83222" lon="1.2164">
        <ele>245.2</ele>
        <time>2024-11-18T13:59:13Z</time>
      </trkpt>
      <trkpt lat="45.83208" lon="1.21633">
        <ele>245.1</ele>
        <time>2024-11-18T13:59:16Z</time>
      </trkpt>
      <trkpt lat="45.83193" lon="1.21629">
        <ele>245</ele>
        <time>2024-11-18T13:59:19Z</time>
      </trkpt>
      <trkpt lat="45.83178" lon="1.21627">
        <ele>245</ele>
        <time>2024-11-18T13:59:22Z</time>
      </trkpt>
      <trkpt lat="45.83164" lon="1.21637">
        <ele>245</ele>
        <time>2024-11-18T13:59:25Z</time>
      </trkpt>
      <trkpt lat="45.83153" lon="1.21647">
        <ele>244.9</ele>
        <time>2024-11-18T13:59:28Z</time>
      </trkpt>
      <trkpt lat="45.83141" lon="1.21648">
        <ele>244.9</ele>
        <time>2024-11-18T13:59:31Z</time>
      </trkpt>
      <trkpt lat="45.83129" lon="1.21642">
        <ele>244.8</ele>
        <time>2024-11-18T13:59:34Z</time>
      </trkpt>
      <trkpt lat="45.83119" lon="1.21638">
        <ele>244.8</ele>
        <time>2024-11-18T13:59:37Z</time>
      </trkpt>
      <trkpt lat="45.83108" lon="1.21633">
        <ele>244.7</ele>
        <time>2024-11-18T13:59:40Z</time>
      </trkpt>
      <trkpt lat="45.83097" lon="1.21626">
        <ele>244.7</ele>
        <time>2024-11-18T13:59:43Z</time>
      </trkpt>
      <trkpt lat="45.83085" lon="1.21617">
        <ele>244.6</ele>
        <time>2024-11-18T13:59:46Z</time>
      </trkpt>
      <trkpt lat="45.83074" lon="1.21608">
        <ele>244.5</ele>
        <time>2024-11-18T13:59:49Z</time>
      </trkpt>
      <trkpt lat="45.83062" lon="1.21601">
        <ele>244.5</ele>
        <time>2024-11-18T13:59:52Z</time>
      </trkpt>
      <trkpt lat="45.83049" lon="1.21594">
        <ele>244.5</ele>
        <time>2024-11-18T13:59:55Z</time>
      </trkpt>
      <trkpt lat="45.83038" lon="1.21585">
        <ele>244.5</ele>
        <time>2024-11-18T13:59:58Z</time>
      </trkpt>
      <trkpt lat="45.83035" lon="1.21569">
        <ele>244.5</ele>
        <time>2024-11-18T14:00:01Z</time>
      </trkpt>
      <trkpt lat="45.83036" lon="1.21551">
        <ele>244.6</ele>
        <time>2024-11-18T14:00:04Z</time>
      </trkpt>
      <trkpt lat="45.83038" lon="1.21533">
        <ele>244.6</ele>
        <time>2024-11-18T14:00:07Z</time>
      </trkpt>
      <trkpt lat="45.83041" lon="1.21517">
        <ele>244.8</ele>
        <time>2024-11-18T14:00:10Z</time>
      </trkpt>
      <trkpt lat="45.83044" lon="1.21499">
        <ele>244.9</ele>
        <time>2024-11-18T14:00:13Z</time>
      </trkpt>
      <trkpt lat="45.83046" lon="1.21482">
        <ele>245.1</ele>
        <time>2024-11-18T14:00:16Z</time>
      </trkpt>
      <trkpt lat="45.8304" lon="1.21471">
        <ele>245.2</ele>
        <time>2024-11-18T14:00:19Z</time>
      </trkpt>
      <trkpt lat="45.8303" lon="1.21463">
        <ele>245.3</ele>
        <time>2024-11-18T14:00:22Z</time>
      </trkpt>
      <trkpt lat="45.8302" lon="1.21453">
        <ele>245.2</ele>
        <time>2024-11-18T14:00:25Z</time>
      </trkpt>
      <trkpt lat="45.83011" lon="1.21444">
        <ele>245</ele>
        <time>2024-11-18T14:00:28Z</time>
      </trkpt>
      <trkpt lat="45.83001" lon="1.21436">
        <ele>245</ele>
        <time>2024-11-18T14:00:31Z</time>
      </trkpt>
      <trkpt lat="45.82991" lon="1.21425">
        <ele>245</ele>
        <time>2024-11-18T14:00:34Z</time>
      </trkpt>
      <trkpt lat="45.82982" lon="1.21413">
        <ele>245.1</ele>
        <time>2024-11-18T14:00:37Z</time>
      </trkpt>
      <trkpt lat="45.82975" lon="1.21403">
        <ele>245.3</ele>
        <time>2024-11-18T14:00:40Z</time>
      </trkpt>
      <trkpt lat="45.82972" lon="1.21393">
        <ele>245.5</ele>
        <time>2024-11-18T14:00:43Z</time>
      </trkpt>
      <trkpt lat="45.82966" lon="1.21392">
        <ele>245.4</ele>
        <time>2024-11-18T14:00:46Z</time>
      </trkpt>
      <trkpt lat="45.82959" lon="1.2138">
        <ele>245.3</ele>
        <time>2024-11-18T14:00:49Z</time>
      </trkpt>
      <trkpt lat="45.82951" lon="1.21366">
        <ele>245.1</ele>
        <time>2024-11-18T14:00:52Z</time>
      </trkpt>
      <trkpt lat="45.82939" lon="1.21353">
        <ele>245</ele>
        <time>2024-11-18T14:00:55Z</time>
      </trkpt>
      <trkpt lat="45.82929" lon="1.21337">
        <ele>244.8</ele>
        <time>2024-11-18T14:00:58Z</time>
      </trkpt>
      <trkpt lat="45.82917" lon="1.21322">
        <ele>244.8</ele>
        <time>2024-11-18T14:01:01Z</time>
      </trkpt>
      <trkpt lat="45.82906" lon="1.21309">
        <ele>245</ele>
        <time>2024-11-18T14:01:04Z</time>
      </trkpt>
      <trkpt lat="45.82895" lon="1.21296">
        <ele>245.3</ele>
        <time>2024-11-18T14:01:07Z</time>
      </trkpt>
      <trkpt lat="45.82885" lon="1.21284">
        <ele>245.6</ele>
        <time>2024-11-18T14:01:10Z</time>
      </trkpt>
      <trkpt lat="45.82877" lon="1.21274">
        <ele>245.9</ele>
        <time>2024-11-18T14:01:13Z</time>
      </trkpt>
      <trkpt lat="45.82868" lon="1.21264">
        <ele>246.2</ele>
        <time>2024-11-18T14:01:16Z</time>
      </trkpt>
      <trkpt lat="45.82858" lon="1.21252">
        <ele>246.4</ele>
        <time>2024-11-18T14:01:19Z</time>
      </trkpt>
      <trkpt lat="45.82847" lon="1.21241">
        <ele>246.6</ele>
        <time>2024-11-18T14:01:22Z</time>
      </trkpt>
      <trkpt lat="45.82837" lon="1.21231">
        <ele>246.6</ele>
        <time>2024-11-18T14:01:25Z</time>
      </trkpt>
      <trkpt lat="45.82832" lon="1.21227">
        <ele>246.5</ele>
        <time>2024-11-18T14:01:28Z</time>
      </trkpt>
      <trkpt lat="45.82828" lon="1.21231">
        <ele>246.4</ele>
        <time>2024-11-18T14:01:31Z</time>
      </trkpt>
      <trkpt lat="45.82824" lon="1.21238">
        <ele>245.9</ele>
        <time>2024-11-18T14:01:34Z</time>
      </trkpt>
      <trkpt lat="45.8282" lon="1.21247">
        <ele>245</ele>
        <time>2024-11-18T14:01:37Z</time>
      </trkpt>
      <trkpt lat="45.82815" lon="1.21256">
        <ele>244.2</ele>
        <time>2024-11-18T14:01:40Z</time>
      </trkpt>
      <trkpt lat="45.8281" lon="1.21265">
        <ele>243.6</ele>
        <time>2024-11-18T14:01:43Z</time>
      </trkpt>
      <trkpt lat="45.82804" lon="1.21275">
        <ele>243.2</ele>
        <time>2024-11-18T14:01:46Z</time>
      </trkpt>
      <trkpt lat="45.82798" lon="1.21284">
        <ele>242.9</ele>
        <time>2024-11-18T14:01:49Z</time>
      </trkpt>
      <trkpt lat="45.82793" lon="1.21291">
        <ele>242.7</ele>
        <time>2024-11-18T14:01:52Z</time>
      </trkpt>
      <trkpt lat="45.82785" lon="1.21298">
        <ele>242.5</ele>
        <time>2024-11-18T14:01:55Z</time>
      </trkpt>
      <trkpt lat="45.82776" lon="1.21306">
        <ele>242.3</ele>
        <time>2024-11-18T14:01:58Z</time>
      </trkpt>
      <trkpt lat="45.82768" lon="1.21318">
        <ele>242.1</ele>
        <time>2024-11-18T14:02:01Z</time>
      </trkpt>
      <trkpt lat="45.82759" lon="1.21327">
        <ele>242</ele>
        <time>2024-11-18T14:02:04Z</time>
      </trkpt>
      <trkpt lat="45.82748" lon="1.21324">
        <ele>241.8</ele>
        <time>2024-11-18T14:02:07Z</time>
      </trkpt>
      <trkpt lat="45.82737" lon="1.21314">
        <ele>241.8</ele>
        <time>2024-11-18T14:02:10Z</time>
      </trkpt>
      <trkpt lat="45.82727" lon="1.21307">
        <ele>241.8</ele>
        <time>2024-11-18T14:02:13Z</time>
      </trkpt>
      <trkpt lat="45.82716" lon="1.21298">
        <ele>241.6</ele>
        <time>2024-11-18T14:02:16Z</time>
      </trkpt>
      <trkpt lat="45.82705" lon="1.21289">
        <ele>241.5</ele>
        <time>2024-11-18T14:02:19Z</time>
      </trkpt>
      <trkpt lat="45.8269" lon="1.21282">
        <ele>241.4</ele>
        <time>2024-11-18T14:02:22Z</time>
      </trkpt>
      <trkpt lat="45.82676" lon="1.21281">
        <ele>241.3</ele>
        <time>2024-11-18T14:02:25Z</time>
      </trkpt>
      <trkpt lat="45.82663" lon="1.21283">
        <ele>241.2</ele>
        <time>2024-11-18T14:02:28Z</time>
      </trkpt>
      <trkpt lat="45.82653" lon="1.21289">
        <ele>241.2</ele>
        <time>2024-11-18T14:02:31Z</time>
      </trkpt>
      <trkpt lat="45.8264" lon="1.21288">
        <ele>241.2</ele>
        <time>2024-11-18T14:02:34Z</time>
      </trkpt>
      <trkpt lat="45.82628" lon="1.21285">
        <ele>241.2</ele>
        <time>2024-11-18T14:02:37Z</time>
      </trkpt>
      <trkpt lat="45.82617" lon="1.21283">
        <ele>241.1</ele>
        <time>2024-11-18T14:02:40Z</time>
      </trkpt>
      <trkpt lat="45.82606" lon="1.21275">
        <ele>241.1</ele>
        <time>2024-11-18T14:02:43Z</time>
      </trkpt>
      <trkpt lat="45.82602" lon="1.21257">
        <ele>240.9</ele>
        <time>2024-11-18T14:02:46Z</time>
      </trkpt>
      <trkpt lat="45.82597" lon="1.21239">
        <ele>240.9</ele>
        <time>2024-11-18T14:02:49Z</time>
      </trkpt>
      <trkpt lat="45.8259" lon="1.21227">
        <ele>240.9</ele>
        <time>2024-11-18T14:02:52Z</time>
      </trkpt>
      <trkpt lat="45.8258" lon="1.21227">
        <ele>240.9</ele>
        <time>2024-11-18T14:02:55Z</time>
      </trkpt>
      <trkpt lat="45.8257" lon="1.21224">
        <ele>240.8</ele>
        <time>2024-11-18T14:02:58Z</time>
      </trkpt>
      <trkpt lat="45.8256" lon="1.21212">
        <ele>240.7</ele>
        <time>2024-11-18T14:03:01Z</time>
      </trkpt>
      <trkpt lat="45.82553" lon="1.21195">
        <ele>240.6</ele>
        <time>2024-11-18T14:03:04Z</time>
      </trkpt>
      <trkpt lat="45.82545" lon="1.21183">
        <ele>240.6</ele>
        <time>2024-11-18T14:03:07Z</time>
      </trkpt>
      <trkpt lat="45.82536" lon="1.2118">
        <ele>240.6</ele>
        <time>2024-11-18T14:03:10Z</time>
      </trkpt>
      <trkpt lat="45.82525" lon="1.21184">
        <ele>240.6</ele>
        <time>2024-11-18T14:03:13Z</time>
      </trkpt>
      <trkpt lat="45.82513" lon="1.21182">
        <ele>240.5</ele>
        <time>2024-11-18T14:03:16Z</time>
      </trkpt>
      <trkpt lat="45.825" lon="1.21179">
        <ele>240.4</ele>
        <time>2024-11-18T14:03:19Z</time>
      </trkpt>
      <trkpt lat="45.82489" lon="1.21175">
        <ele>240.3</ele>
        <time>2024-11-18T14:03:22Z</time>
      </trkpt>
      <trkpt lat="45.82481" lon="1.21168">
        <ele>240.2</ele>
        <time>2024-11-18T14:03:25Z</time>
      </trkpt>
      <trkpt lat="45.82473" lon="1.21157">
        <ele>240.2</ele>
        <time>2024-11-18T14:03:28Z</time>
      </trkpt>
      <trkpt lat="45.82463" lon="1.21147">
        <ele>240.1</ele>
        <time>2024-11-18T14:03:31Z</time>
      </trkpt>
      <trkpt lat="45.82452" lon="1.21136">
        <ele>240.1</ele>
        <time>2024-11-18T14:03:34Z</time>
      </trkpt>
      <trkpt lat="45.82442" lon="1.21132">
        <ele>240.1</ele>
        <time>2024-11-18T14:03:37Z</time>
      </trkpt>
      <trkpt lat="45.82431" lon="1.21134">
        <ele>240</ele>
        <time>2024-11-18T14:03:40Z</time>
      </trkpt>
      <trkpt lat="45.8242" lon="1.21132">
        <ele>240</ele>
        <time>2024-11-18T14:03:43Z</time>
      </trkpt>
      <trkpt lat="45.8241" lon="1.21127">
        <ele>240</ele>
        <time>2024-11-18T14:03:46Z</time>
      </trkpt>
      <trkpt lat="45.82401" lon="1.21116">
        <ele>239.9</ele>
        <time>2024-11-18T14:03:49Z</time>
      </trkpt>
      <trkpt lat="45.8239" lon="1.21106">
        <ele>239.9</ele>
        <time>2024-11-18T14:03:52Z</time>
      </trkpt>
      <trkpt lat="45.82381" lon="1.21096">
        <ele>239.9</ele>
        <time>2024-11-18T14:03:55Z</time>
      </trkpt>
      <trkpt lat="45.82373" lon="1.21089">
        <ele>239.9</ele>
        <time>2024-11-18T14:03:58Z</time>
      </trkpt>
      <trkpt lat="45.82364" lon="1.21086">
        <ele>239.8</ele>
        <time>2024-11-18T14:04:01Z</time>
      </trkpt>
      <trkpt lat="45.82354" lon="1.21077">
        <ele>239.8</ele>
        <time>2024-11-18T14:04:04Z</time>
      </trkpt>
      <trkpt lat="45.82344" lon="1.21066">
        <ele>239.7</ele>
        <time>2024-11-18T14:04:07Z</time>
      </trkpt>
      <trkpt lat="45.82333" lon="1.21057">
        <ele>239.6</ele>
        <time>2024-11-18T14:04:10Z</time>
      </trkpt>
      <trkpt lat="45.82322" lon="1.21045">
        <ele>239.5</ele>
        <time>2024-11-18T14:04:13Z</time>
      </trkpt>
      <trkpt lat="45.82313" lon="1.21034">
        <ele>239.4</ele>
        <time>2024-11-18T14:04:16Z</time>
      </trkpt>
      <trkpt lat="45.82305" lon="1.21021">
        <ele>239.3</ele>
        <time>2024-11-18T14:04:19Z</time>
      </trkpt>
      <trkpt lat="45.823" lon="1.21005">
        <ele>239.2</ele>
        <time>2024-11-18T14:04:22Z</time>
      </trkpt>
      <trkpt lat="45.823" lon="1.20989">
        <ele>239.1</ele>
        <time>2024-11-18T14:04:25Z</time>
      </trkpt>
      <trkpt lat="45.82304" lon="1.20973">
        <ele>239.1</ele>
        <time>2024-11-18T14:04:28Z</time>
      </trkpt>
      <trkpt lat="45.82309" lon="1.20959">
        <ele>239.1</ele>
        <time>2024-11-18T14:04:31Z</time>
      </trkpt>
      <trkpt lat="45.82307" lon="1.20949">
        <ele>239.1</ele>
        <time>2024-11-18T14:04:34Z</time>
      </trkpt>
      <trkpt lat="45.82303" lon="1.20941">
        <ele>239.1</ele>
        <time>2024-11-18T14:04:37Z</time>
      </trkpt>
      <trkpt lat="45.823" lon="1.20933">
        <ele>239.2</ele>
        <time>2024-11-18T14:04:40Z</time>
      </trkpt>
      <trkpt lat="45.823" lon="1.20928">
        <ele>239.2</ele>
        <time>2024-11-18T14:04:43Z</time>
      </trkpt>
      <trkpt lat="45.82298" lon="1.20925">
        <ele>239.2</ele>
        <time>2024-11-18T14:04:46Z</time>
      </trkpt>
      <trkpt lat="45.82295" lon="1.20924">
        <ele>239.2</ele>
        <time>2024-11-18T14:04:49Z</time>
      </trkpt>
      <trkpt lat="45.82289" lon="1.20915">
        <ele>239.4</ele>
        <time>2024-11-18T14:04:52Z</time>
      </trkpt>
      <trkpt lat="45.82286" lon="1.20902">
        <ele>239.7</ele>
        <time>2024-11-18T14:04:55Z</time>
      </trkpt>
      <trkpt lat="45.82283" lon="1.20885">
        <ele>239.7</ele>
        <time>2024-11-18T14:04:58Z</time>
      </trkpt>
      <trkpt lat="45.82278" lon="1.20867">
        <ele>239.5</ele>
        <time>2024-11-18T14:05:01Z</time>
      </trkpt>
      <trkpt lat="45.82272" lon="1.20851">
        <ele>239.3</ele>
        <time>2024-11-18T14:05:04Z</time>
      </trkpt>
      <trkpt lat="45.82265" lon="1.20839">
        <ele>239.1</ele>
        <time>2024-11-18T14:05:07Z</time>
      </trkpt>
      <trkpt lat="45.82263" lon="1.20827">
        <ele>239.2</ele>
        <time>2024-11-18T14:05:10Z</time>
      </trkpt>
      <trkpt lat="45.82262" lon="1.20815">
        <ele>239.3</ele>
        <time>2024-11-18T14:05:13Z</time>
      </trkpt>
      <trkpt lat="45.82255" lon="1.2081">
        <ele>239.5</ele>
        <time>2024-11-18T14:05:16Z</time>
      </trkpt>
      <trkpt lat="45.82247" lon="1.20814">
        <ele>239.7</ele>
        <time>2024-11-18T14:05:19Z</time>
      </trkpt>
      <trkpt lat="45.8224" lon="1.20819">
        <ele>239.9</ele>
        <time>2024-11-18T14:05:22Z</time>
      </trkpt>
      <trkpt lat="45.82237" lon="1.20816">
        <ele>240</ele>
        <time>2024-11-18T14:05:25Z</time>
      </trkpt>
      <trkpt lat="45.82232" lon="1.2081">
        <ele>240</ele>
        <time>2024-11-18T14:05:28Z</time>
      </trkpt>
      <trkpt lat="45.82224" lon="1.20813">
        <ele>240</ele>
        <time>2024-11-18T14:05:31Z</time>
      </trkpt>
      <trkpt lat="45.82213" lon="1.20817">
        <ele>239.7</ele>
        <time>2024-11-18T14:05:34Z</time>
      </trkpt>
      <trkpt lat="45.82206" lon="1.2081">
        <ele>239.3</ele>
        <time>2024-11-18T14:05:37Z</time>
      </trkpt>
      <trkpt lat="45.822" lon="1.20793">
        <ele>238.6</ele>
        <time>2024-11-18T14:05:40Z</time>
      </trkpt>
      <trkpt lat="45.82192" lon="1.20781">
        <ele>238.3</ele>
        <time>2024-11-18T14:05:43Z</time>
      </trkpt>
      <trkpt lat="45.82183" lon="1.20772">
        <ele>238.1</ele>
        <time>2024-11-18T14:05:46Z</time>
      </trkpt>
      <trkpt lat="45.82175" lon="1.20761">
        <ele>238</ele>
        <time>2024-11-18T14:05:49Z</time>
      </trkpt>
      <trkpt lat="45.82167" lon="1.20752">
        <ele>238</ele>
        <time>2024-11-18T14:05:52Z</time>
      </trkpt>
      <trkpt lat="45.82159" lon="1.20742">
        <ele>238</ele>
        <time>2024-11-18T14:05:55Z</time>
      </trkpt>
      <trkpt lat="45.82151" lon="1.20733">
        <ele>238</ele>
        <time>2024-11-18T14:05:58Z</time>
      </trkpt>
      <trkpt lat="45.82147" lon="1.20723">
        <ele>238.1</ele>
        <time>2024-11-18T14:06:01Z</time>
      </trkpt>
      <trkpt lat="45.82145" lon="1.20709">
        <ele>238.1</ele>
        <time>2024-11-18T14:06:04Z</time>
      </trkpt>
      <trkpt lat="45.82142" lon="1.20693">
        <ele>238.1</ele>
        <time>2024-11-18T14:06:07Z</time>
      </trkpt>
      <trkpt lat="45.8214" lon="1.2068">
        <ele>238.1</ele>
        <time>2024-11-18T14:06:10Z</time>
      </trkpt>
      <trkpt lat="45.82138" lon="1.20671">
        <ele>238.2</ele>
        <time>2024-11-18T14:06:13Z</time>
      </trkpt>
      <trkpt lat="45.82137" lon="1.20662">
        <ele>238.1</ele>
        <time>2024-11-18T14:06:16Z</time>
      </trkpt>
      <trkpt lat="45.82136" lon="1.20652">
        <ele>238.1</ele>
        <time>2024-11-18T14:06:19Z</time>
      </trkpt>
      <trkpt lat="45.82136" lon="1.20639">
        <ele>238.1</ele>
        <time>2024-11-18T14:06:22Z</time>
      </trkpt>
      <trkpt lat="45.82135" lon="1.20625">
        <ele>238.2</ele>
        <time>2024-11-18T14:06:25Z</time>
      </trkpt>
      <trkpt lat="45.82134" lon="1.20613">
        <ele>238.4</ele>
        <time>2024-11-18T14:06:28Z</time>
      </trkpt>
      <trkpt lat="45.82134" lon="1.20601">
        <ele>238.5</ele>
        <time>2024-11-18T14:06:31Z</time>
      </trkpt>
      <trkpt lat="45.82134" lon="1.2059">
        <ele>238.6</ele>
        <time>2024-11-18T14:06:34Z</time>
      </trkpt>
      <trkpt lat="45.82133" lon="1.20578">
        <ele>238.7</ele>
        <time>2024-11-18T14:06:37Z</time>
      </trkpt>
      <trkpt lat="45.82132" lon="1.20566">
        <ele>238.7</ele>
        <time>2024-11-18T14:06:40Z</time>
      </trkpt>
      <trkpt lat="45.82132" lon="1.20553">
        <ele>238.6</ele>
        <time>2024-11-18T14:06:43Z</time>
      </trkpt>
      <trkpt lat="45.82134" lon="1.20545">
        <ele>238.5</ele>
        <time>2024-11-18T14:06:46Z</time>
      </trkpt>
      <trkpt lat="45.82138" lon="1.20535">
        <ele>238.5</ele>
        <time>2024-11-18T14:06:49Z</time>
      </trkpt>
      <trkpt lat="45.82142" lon="1.20522">
        <ele>238.5</ele>
        <time>2024-11-18T14:06:52Z</time>
      </trkpt>
      <trkpt lat="45.82147" lon="1.2051">
        <ele>238.6</ele>
        <time>2024-11-18T14:06:55Z</time>
      </trkpt>
      <trkpt lat="45.82153" lon="1.20499">
        <ele>238.7</ele>
        <time>2024-11-18T14:06:58Z</time>
      </trkpt>
      <trkpt lat="45.82157" lon="1.20487">
        <ele>238.8</ele>
        <time>2024-11-18T14:07:01Z</time>
      </trkpt>
      <trkpt lat="45.8216" lon="1.20475">
        <ele>239</ele>
        <time>2024-11-18T14:07:04Z</time>
      </trkpt>
      <trkpt lat="45.82164" lon="1.20464">
        <ele>239.1</ele>
        <time>2024-11-18T14:07:07Z</time>
      </trkpt>
      <trkpt lat="45.82167" lon="1.20453">
        <ele>239.2</ele>
        <time>2024-11-18T14:07:10Z</time>
      </trkpt>
      <trkpt lat="45.82169" lon="1.20441">
        <ele>239.4</ele>
        <time>2024-11-18T14:07:13Z</time>
      </trkpt>
      <trkpt lat="45.82171" lon="1.2043">
        <ele>239.5</ele>
        <time>2024-11-18T14:07:16Z</time>
      </trkpt>
      <trkpt lat="45.82174" lon="1.2042">
        <ele>239.6</ele>
        <time>2024-11-18T14:07:19Z</time>
      </trkpt>
      <trkpt lat="45.82177" lon="1.20408">
        <ele>239.7</ele>
        <time>2024-11-18T14:07:22Z</time>
      </trkpt>
      <trkpt lat="45.82175" lon="1.204">
        <ele>239.8</ele>
        <time>2024-11-18T14:07:25Z</time>
      </trkpt>
      <trkpt lat="45.82173" lon="1.20392">
        <ele>239.9</ele>
        <time>2024-11-18T14:07:28Z</time>
      </trkpt>
      <trkpt lat="45.82174" lon="1.20386">
        <ele>240</ele>
        <time>2024-11-18T14:07:31Z</time>
      </trkpt>
      <trkpt lat="45.82178" lon="1.20381">
        <ele>240.1</ele>
        <time>2024-11-18T14:07:34Z</time>
      </trkpt>
      <trkpt lat="45.82183" lon="1.20375">
        <ele>240.2</ele>
        <time>2024-11-18T14:07:37Z</time>
      </trkpt>
      <trkpt lat="45.82189" lon="1.20371">
        <ele>240.3</ele>
        <time>2024-11-18T14:07:40Z</time>
      </trkpt>
      <trkpt lat="45.82196" lon="1.20363">
        <ele>240.4</ele>
        <time>2024-11-18T14:07:43Z</time>
      </trkpt>
      <trkpt lat="45.82201" lon="1.20354">
        <ele>240.7</ele>
        <time>2024-11-18T14:07:46Z</time>
      </trkpt>
      <trkpt lat="45.82209" lon="1.20349">
        <ele>241.1</ele>
        <time>2024-11-18T14:07:49Z</time>
      </trkpt>
      <trkpt lat="45.82217" lon="1.20346">
        <ele>241.5</ele>
        <time>2024-11-18T14:07:52Z</time>
      </trkpt>
      <trkpt lat="45.82224" lon="1.20345">
        <ele>242</ele>
        <time>2024-11-18T14:07:55Z</time>
      </trkpt>
      <trkpt lat="45.82229" lon="1.20343">
        <ele>242.5</ele>
        <time>2024-11-18T14:07:58Z</time>
      </trkpt>
      <trkpt lat="45.82235" lon="1.20336">
        <ele>243</ele>
        <time>2024-11-18T14:08:01Z</time>
      </trkpt>
      <trkpt lat="45.8224" lon="1.20328">
        <ele>243.5</ele>
        <time>2024-11-18T14:08:04Z</time>
      </trkpt>
      <trkpt lat="45.82244" lon="1.2032">
        <ele>243.9</ele>
        <time>2024-11-18T14:08:07Z</time>
      </trkpt>
      <trkpt lat="45.82249" lon="1.20311">
        <ele>244.2</ele>
        <time>2024-11-18T14:08:10Z</time>
      </trkpt>
      <trkpt lat="45.82253" lon="1.20303">
        <ele>244.4</ele>
        <time>2024-11-18T14:08:13Z</time>
      </trkpt>
      <trkpt lat="45.82257" lon="1.20295">
        <ele>244.4</ele>
        <time>2024-11-18T14:08:16Z</time>
      </trkpt>
      <trkpt lat="45.82261" lon="1.20287">
        <ele>244.5</ele>
        <time>2024-11-18T14:08:19Z</time>
      </trkpt>
      <trkpt lat="45.82268" lon="1.20275">
        <ele>244.5</ele>
        <time>2024-11-18T14:08:22Z</time>
      </trkpt>
      <trkpt lat="45.82273" lon="1.20256">
        <ele>244.5</ele>
        <time>2024-11-18T14:08:25Z</time>
      </trkpt>
      <trkpt lat="45.8228" lon="1.20244">
        <ele>244.6</ele>
        <time>2024-11-18T14:08:28Z</time>
      </trkpt>
      <trkpt lat="45.82288" lon="1.20234">
        <ele>244.6</ele>
        <time>2024-11-18T14:08:31Z</time>
      </trkpt>
      <trkpt lat="45.82297" lon="1.20225">
        <ele>244.7</ele>
        <time>2024-11-18T14:08:34Z</time>
      </trkpt>
      <trkpt lat="45.82307" lon="1.20217">
        <ele>244.7</ele>
        <time>2024-11-18T14:08:37Z</time>
      </trkpt>
      <trkpt lat="45.82317" lon="1.20208">
        <ele>244.8</ele>
        <time>2024-11-18T14:08:40Z</time>
      </trkpt>
      <trkpt lat="45.82326" lon="1.202">
        <ele>245.2</ele>
        <time>2024-11-18T14:08:43Z</time>
      </trkpt>
      <trkpt lat="45.82333" lon="1.20192">
        <ele>245.6</ele>
        <time>2024-11-18T14:08:46Z</time>
      </trkpt>
      <trkpt lat="45.82341" lon="1.20181">
        <ele>246.1</ele>
        <time>2024-11-18T14:08:49Z</time>
      </trkpt>
      <trkpt lat="45.82349" lon="1.20173">
        <ele>246.4</ele>
        <time>2024-11-18T14:08:52Z</time>
      </trkpt>
      <trkpt lat="45.82355" lon="1.20166">
        <ele>246.6</ele>
        <time>2024-11-18T14:08:55Z</time>
      </trkpt>
      <trkpt lat="45.82362" lon="1.20157">
        <ele>246.7</ele>
        <time>2024-11-18T14:08:58Z</time>
      </trkpt>
      <trkpt lat="45.8237" lon="1.20144">
        <ele>246.8</ele>
        <time>2024-11-18T14:09:01Z</time>
      </trkpt>
      <trkpt lat="45.82379" lon="1.20131">
        <ele>246.9</ele>
        <time>2024-11-18T14:09:04Z</time>
      </trkpt>
      <trkpt lat="45.82386" lon="1.2012">
        <ele>247.1</ele>
        <time>2024-11-18T14:09:07Z</time>
      </trkpt>
      <trkpt lat="45.82391" lon="1.20109">
        <ele>247.2</ele>
        <time>2024-11-18T14:09:10Z</time>
      </trkpt>
      <trkpt lat="45.82395" lon="1.20098">
        <ele>247.2</ele>
        <time>2024-11-18T14:09:13Z</time>
      </trkpt>
      <trkpt lat="45.82398" lon="1.20085">
        <ele>247.1</ele>
        <time>2024-11-18T14:09:16Z</time>
      </trkpt>
      <trkpt lat="45.82401" lon="1.20071">
        <ele>247.1</ele>
        <time>2024-11-18T14:09:19Z</time>
      </trkpt>
      <trkpt lat="45.82404" lon="1.20063">
        <ele>247</ele>
        <time>2024-11-18T14:09:22Z</time>
      </trkpt>
      <trkpt lat="45.82406" lon="1.20057">
        <ele>247.1</ele>
        <time>2024-11-18T14:09:25Z</time>
      </trkpt>
      <trkpt lat="45.82405" lon="1.20052">
        <ele>247.1</ele>
        <time>2024-11-18T14:09:28Z</time>
      </trkpt>
      <trkpt lat="45.82405" lon="1.20052">
        <ele>247.1</ele>
        <time>2024-11-18T14:09:31Z</time>
      </trkpt>
      <trkpt lat="45.82405" lon="1.20052">
        <ele>247.1</ele>
        <time>2024-11-18T14:09:34Z</time>
      </trkpt>
      <trkpt lat="45.82406" lon="1.20052">
        <ele>247.1</ele>
        <time>2024-11-18T14:09:37Z</time>
      </trkpt>
      <trkpt lat="45.82406" lon="1.20052">
        <ele>247.1</ele>
        <time>2024-11-18T14:09:40Z</time>
      </trkpt>
      <trkpt lat="45.82405" lon="1.20051">
        <ele>247.1</ele>
        <time>2024-11-18T14:09:43Z</time>
      </trkpt>
      <trkpt lat="45.82404" lon="1.20045">
        <ele>247.2</ele>
        <time>2024-11-18T14:09:46Z</time>
      </trkpt>
      <trkpt lat="45.824" lon="1.20033">
        <ele>247.3</ele>
        <time>2024-11-18T14:09:49Z</time>
      </trkpt>
      <trkpt lat="45.824" lon="1.20022">
        <ele>247.4</ele>
        <time>2024-11-18T14:09:52Z</time>
      </trkpt>
      <trkpt lat="45.824" lon="1.20011">
        <ele>247.6</ele>
        <time>2024-11-18T14:09:55Z</time>
      </trkpt>
      <trkpt lat="45.82401" lon="1.19999">
        <ele>247.8</ele>
        <time>2024-11-18T14:09:58Z</time>
      </trkpt>
      <trkpt lat="45.82401" lon="1.19985">
        <ele>248</ele>
        <time>2024-11-18T14:10:01Z</time>
      </trkpt>
      <trkpt lat="45.82403" lon="1.19975">
        <ele>248.2</ele>
        <time>2024-11-18T14:10:04Z</time>
      </trkpt>
      <trkpt lat="45.82409" lon="1.19967">
        <ele>248.5</ele>
        <time>2024-11-18T14:10:07Z</time>
      </trkpt>
      <trkpt lat="45.82417" lon="1.1996">
        <ele>248.7</ele>
        <time>2024-11-18T14:10:10Z</time>
      </trkpt>
      <trkpt lat="45.82425" lon="1.19953">
        <ele>248.9</ele>
        <time>2024-11-18T14:10:13Z</time>
      </trkpt>
      <trkpt lat="45.82433" lon="1.19945">
        <ele>249.1</ele>
        <time>2024-11-18T14:10:16Z</time>
      </trkpt>
      <trkpt lat="45.8244" lon="1.19938">
        <ele>249.3</ele>
        <time>2024-11-18T14:10:19Z</time>
      </trkpt>
      <trkpt lat="45.8245" lon="1.19931">
        <ele>249.5</ele>
        <time>2024-11-18T14:10:22Z</time>
      </trkpt>
      <trkpt lat="45.82455" lon="1.19923">
        <ele>249.6</ele>
        <time>2024-11-18T14:10:25Z</time>
      </trkpt>
      <trkpt lat="45.82461" lon="1.19916">
        <ele>249.8</ele>
        <time>2024-11-18T14:10:28Z</time>
      </trkpt>
      <trkpt lat="45.82469" lon="1.1991">
        <ele>250.1</ele>
        <time>2024-11-18T14:10:31Z</time>
      </trkpt>
      <trkpt lat="45.82478" lon="1.19903">
        <ele>250.4</ele>
        <time>2024-11-18T14:10:34Z</time>
      </trkpt>
      <trkpt lat="45.82484" lon="1.19896">
        <ele>250.6</ele>
        <time>2024-11-18T14:10:37Z</time>
      </trkpt>
      <trkpt lat="45.82491" lon="1.19886">
        <ele>250.8</ele>
        <time>2024-11-18T14:10:40Z</time>
      </trkpt>
      <trkpt lat="45.82498" lon="1.19878">
        <ele>251</ele>
        <time>2024-11-18T14:10:43Z</time>
      </trkpt>
      <trkpt lat="45.82502" lon="1.19867">
        <ele>251.2</ele>
        <time>2024-11-18T14:10:46Z</time>
      </trkpt>
      <trkpt lat="45.82507" lon="1.19855">
        <ele>251.4</ele>
        <time>2024-11-18T14:10:49Z</time>
      </trkpt>
      <trkpt lat="45.82514" lon="1.19844">
        <ele>251.6</ele>
        <time>2024-11-18T14:10:52Z</time>
      </trkpt>
      <trkpt lat="45.82521" lon="1.19833">
        <ele>251.8</ele>
        <time>2024-11-18T14:10:55Z</time>
      </trkpt>
      <trkpt lat="45.82526" lon="1.19823">
        <ele>252</ele>
        <time>2024-11-18T14:10:58Z</time>
      </trkpt>
      <trkpt lat="45.82533" lon="1.19814">
        <ele>252.3</ele>
        <time>2024-11-18T14:11:01Z</time>
      </trkpt>
      <trkpt lat="45.82537" lon="1.19804">
        <ele>252.6</ele>
        <time>2024-11-18T14:11:04Z</time>
      </trkpt>
      <trkpt lat="45.82539" lon="1.19792">
        <ele>253</ele>
        <time>2024-11-18T14:11:07Z</time>
      </trkpt>
      <trkpt lat="45.82539" lon="1.19779">
        <ele>253.5</ele>
        <time>2024-11-18T14:11:10Z</time>
      </trkpt>
      <trkpt lat="45.82539" lon="1.19767">
        <ele>254.2</ele>
        <time>2024-11-18T14:11:13Z</time>
      </trkpt>
      <trkpt lat="45.82539" lon="1.19755">
        <ele>255.3</ele>
        <time>2024-11-18T14:11:16Z</time>
      </trkpt>
      <trkpt lat="45.82539" lon="1.19748">
        <ele>256</ele>
        <time>2024-11-18T14:11:19Z</time>
      </trkpt>
      <trkpt lat="45.82538" lon="1.19747">
        <ele>256.2</ele>
        <time>2024-11-18T14:11:22Z</time>
      </trkpt>
      <trkpt lat="45.82538" lon="1.19747">
        <ele>256.3</ele>
        <time>2024-11-18T14:11:25Z</time>
      </trkpt>
      <trkpt lat="45.82539" lon="1.19747">
        <ele>256.4</ele>
        <time>2024-11-18T14:11:28Z</time>
      </trkpt>
      <trkpt lat="45.82538" lon="1.19747">
        <ele>256.5</ele>
        <time>2024-11-18T14:11:31Z</time>
      </trkpt>
      <trkpt lat="45.82538" lon="1.19746">
        <ele>256.6</ele>
        <time>2024-11-18T14:11:34Z</time>
      </trkpt>
      <trkpt lat="45.82538" lon="1.19745">
        <ele>256.8</ele>
        <time>2024-11-18T14:11:37Z</time>
      </trkpt>
      <trkpt lat="45.82538" lon="1.19744">
        <ele>256.9</ele>
        <time>2024-11-18T14:11:40Z</time>
      </trkpt>
      <trkpt lat="45.82539" lon="1.19741">
        <ele>257.1</ele>
        <time>2024-11-18T14:11:43Z</time>
      </trkpt>
      <trkpt lat="45.82543" lon="1.19734">
        <ele>257.5</ele>
        <time>2024-11-18T14:11:46Z</time>
      </trkpt>
      <trkpt lat="45.82548" lon="1.19729">
        <ele>258</ele>
        <time>2024-11-18T14:11:49Z</time>
      </trkpt>
      <trkpt lat="45.82551" lon="1.19721">
        <ele>258.6</ele>
        <time>2024-11-18T14:11:52Z</time>
      </trkpt>
      <trkpt lat="45.82555" lon="1.19714">
        <ele>259.2</ele>
        <time>2024-11-18T14:11:55Z</time>
      </trkpt>
      <trkpt lat="45.82559" lon="1.19707">
        <ele>259.9</ele>
        <time>2024-11-18T14:11:58Z</time>
      </trkpt>
      <trkpt lat="45.82563" lon="1.19703">
        <ele>260.4</ele>
        <time>2024-11-18T14:12:01Z</time>
      </trkpt>
      <trkpt lat="45.82567" lon="1.19697">
        <ele>261</ele>
        <time>2024-11-18T14:12:04Z</time>
      </trkpt>
      <trkpt lat="45.82567" lon="1.19688">
        <ele>261.4</ele>
        <time>2024-11-18T14:12:07Z</time>
      </trkpt>
      <trkpt lat="45.82565" lon="1.19679">
        <ele>261.5</ele>
        <time>2024-11-18T14:12:10Z</time>
      </trkpt>
      <trkpt lat="45.82562" lon="1.1967">
        <ele>261.4</ele>
        <time>2024-11-18T14:12:13Z</time>
      </trkpt>
      <trkpt lat="45.82559" lon="1.19661">
        <ele>261</ele>
        <time>2024-11-18T14:12:16Z</time>
      </trkpt>
      <trkpt lat="45.82557" lon="1.1965">
        <ele>260.3</ele>
        <time>2024-11-18T14:12:19Z</time>
      </trkpt>
      <trkpt lat="45.82554" lon="1.19635">
        <ele>259.2</ele>
        <time>2024-11-18T14:12:22Z</time>
      </trkpt>
      <trkpt lat="45.82553" lon="1.19615">
        <ele>258.1</ele>
        <time>2024-11-18T14:12:25Z</time>
      </trkpt>
      <trkpt lat="45.82555" lon="1.19603">
        <ele>257.9</ele>
        <time>2024-11-18T14:12:28Z</time>
      </trkpt>
      <trkpt lat="45.82557" lon="1.19593">
        <ele>258</ele>
        <time>2024-11-18T14:12:31Z</time>
      </trkpt>
      <trkpt lat="45.82557" lon="1.1958">
        <ele>258.2</ele>
        <time>2024-11-18T14:12:34Z</time>
      </trkpt>
      <trkpt lat="45.82557" lon="1.19568">
        <ele>258.4</ele>
        <time>2024-11-18T14:12:37Z</time>
      </trkpt>
      <trkpt lat="45.82557" lon="1.19554">
        <ele>258.6</ele>
        <time>2024-11-18T14:12:40Z</time>
      </trkpt>
      <trkpt lat="45.82559" lon="1.19542">
        <ele>258.8</ele>
        <time>2024-11-18T14:12:43Z</time>
      </trkpt>
      <trkpt lat="45.82561" lon="1.19528">
        <ele>259.1</ele>
        <time>2024-11-18T14:12:46Z</time>
      </trkpt>
      <trkpt lat="45.82564" lon="1.19516">
        <ele>259.5</ele>
        <time>2024-11-18T14:12:49Z</time>
      </trkpt>
      <trkpt lat="45.82566" lon="1.19502">
        <ele>259.8</ele>
        <time>2024-11-18T14:12:52Z</time>
      </trkpt>
      <trkpt lat="45.82567" lon="1.19488">
        <ele>260.1</ele>
        <time>2024-11-18T14:12:55Z</time>
      </trkpt>
      <trkpt lat="45.82568" lon="1.19473">
        <ele>260.4</ele>
        <time>2024-11-18T14:12:58Z</time>
      </trkpt>
      <trkpt lat="45.82568" lon="1.19459">
        <ele>260.7</ele>
        <time>2024-11-18T14:13:01Z</time>
      </trkpt>
      <trkpt lat="45.82567" lon="1.19444">
        <ele>261.1</ele>
        <time>2024-11-18T14:13:04Z</time>
      </trkpt>
      <trkpt lat="45.82566" lon="1.19432">
        <ele>261.5</ele>
        <time>2024-11-18T14:13:07Z</time>
      </trkpt>
      <trkpt lat="45.82565" lon="1.19421">
        <ele>261.8</ele>
        <time>2024-11-18T14:13:10Z</time>
      </trkpt>
      <trkpt lat="45.82565" lon="1.19409">
        <ele>262.2</ele>
        <time>2024-11-18T14:13:13Z</time>
      </trkpt>
      <trkpt lat="45.82566" lon="1.19395">
        <ele>262.5</ele>
        <time>2024-11-18T14:13:16Z</time>
      </trkpt>
      <trkpt lat="45.82565" lon="1.1938">
        <ele>262.9</ele>
        <time>2024-11-18T14:13:19Z</time>
      </trkpt>
      <trkpt lat="45.82565" lon="1.19369">
        <ele>263.2</ele>
        <time>2024-11-18T14:13:22Z</time>
      </trkpt>
      <trkpt lat="45.82564" lon="1.19355">
        <ele>263.5</ele>
        <time>2024-11-18T14:13:25Z</time>
      </trkpt>
      <trkpt lat="45.82565" lon="1.19338">
        <ele>263.9</ele>
        <time>2024-11-18T14:13:28Z</time>
      </trkpt>
      <trkpt lat="45.82566" lon="1.19319">
        <ele>264.5</ele>
        <time>2024-11-18T14:13:31Z</time>
      </trkpt>
      <trkpt lat="45.82567" lon="1.19309">
        <ele>265</ele>
        <time>2024-11-18T14:13:34Z</time>
      </trkpt>
      <trkpt lat="45.82568" lon="1.19298">
        <ele>265.5</ele>
        <time>2024-11-18T14:13:37Z</time>
      </trkpt>
      <trkpt lat="45.8257" lon="1.1929">
        <ele>266</ele>
        <time>2024-11-18T14:13:40Z</time>
      </trkpt>
      <trkpt lat="45.8257" lon="1.19289">
        <ele>266.1</ele>
        <time>2024-11-18T14:13:43Z</time>
      </trkpt>
      <trkpt lat="45.82571" lon="1.1928">
        <ele>266.7</ele>
        <time>2024-11-18T14:13:46Z</time>
      </trkpt>
      <trkpt lat="45.82574" lon="1.19271">
        <ele>267.3</ele>
        <time>2024-11-18T14:13:49Z</time>
      </trkpt>
      <trkpt lat="45.82576" lon="1.19258">
        <ele>267.9</ele>
        <time>2024-11-18T14:13:52Z</time>
      </trkpt>
      <trkpt lat="45.82574" lon="1.19242">
        <ele>268.5</ele>
        <time>2024-11-18T14:13:55Z</time>
      </trkpt>
      <trkpt lat="45.82574" lon="1.19227">
        <ele>268.9</ele>
        <time>2024-11-18T14:13:58Z</time>
      </trkpt>
      <trkpt lat="45.82578" lon="1.19214">
        <ele>269.2</ele>
        <time>2024-11-18T14:14:01Z</time>
      </trkpt>
      <trkpt lat="45.82586" lon="1.19203">
        <ele>269.5</ele>
        <time>2024-11-18T14:14:04Z</time>
      </trkpt>
      <trkpt lat="45.82595" lon="1.19195">
        <ele>269.6</ele>
        <time>2024-11-18T14:14:07Z</time>
      </trkpt>
      <trkpt lat="45.82604" lon="1.19193">
        <ele>269.7</ele>
        <time>2024-11-18T14:14:10Z</time>
      </trkpt>
      <trkpt lat="45.82613" lon="1.19191">
        <ele>269.9</ele>
        <time>2024-11-18T14:14:13Z</time>
      </trkpt>
      <trkpt lat="45.82622" lon="1.19188">
        <ele>270.1</ele>
        <time>2024-11-18T14:14:16Z</time>
      </trkpt>
      <trkpt lat="45.82633" lon="1.19183">
        <ele>270.3</ele>
        <time>2024-11-18T14:14:19Z</time>
      </trkpt>
      <trkpt lat="45.82643" lon="1.19175">
        <ele>270.6</ele>
        <time>2024-11-18T14:14:22Z</time>
      </trkpt>
      <trkpt lat="45.82652" lon="1.19167">
        <ele>271</ele>
        <time>2024-11-18T14:14:25Z</time>
      </trkpt>
      <trkpt lat="45.82652" lon="1.19156">
        <ele>271.4</ele>
        <time>2024-11-18T14:14:28Z</time>
      </trkpt>
      <trkpt lat="45.82651" lon="1.1915">
        <ele>271.5</ele>
        <time>2024-11-18T14:14:31Z</time>
      </trkpt>
      <trkpt lat="45.82651" lon="1.19141">
        <ele>271.6</ele>
        <time>2024-11-18T14:14:34Z</time>
      </trkpt>
      <trkpt lat="45.82657" lon="1.19127">
        <ele>271.7</ele>
        <time>2024-11-18T14:14:37Z</time>
      </trkpt>
      <trkpt lat="45.82664" lon="1.19116">
        <ele>272</ele>
        <time>2024-11-18T14:14:40Z</time>
      </trkpt>
      <trkpt lat="45.8267" lon="1.19107">
        <ele>272.4</ele>
        <time>2024-11-18T14:14:43Z</time>
      </trkpt>
      <trkpt lat="45.82674" lon="1.19098">
        <ele>272.9</ele>
        <time>2024-11-18T14:14:46Z</time>
      </trkpt>
      <trkpt lat="45.82679" lon="1.1909">
        <ele>273.4</ele>
        <time>2024-11-18T14:14:49Z</time>
      </trkpt>
      <trkpt lat="45.82684" lon="1.19081">
        <ele>274</ele>
        <time>2024-11-18T14:14:52Z</time>
      </trkpt>
      <trkpt lat="45.82688" lon="1.19072">
        <ele>274.5</ele>
        <time>2024-11-18T14:14:55Z</time>
      </trkpt>
      <trkpt lat="45.8269" lon="1.19062">
        <ele>275.1</ele>
        <time>2024-11-18T14:14:58Z</time>
      </trkpt>
      <trkpt lat="45.82692" lon="1.19052">
        <ele>275.6</ele>
        <time>2024-11-18T14:15:01Z</time>
      </trkpt>
      <trkpt lat="45.82692" lon="1.1904">
        <ele>276.1</ele>
        <time>2024-11-18T14:15:04Z</time>
      </trkpt>
      <trkpt lat="45.82691" lon="1.19029">
        <ele>276.6</ele>
        <time>2024-11-18T14:15:07Z</time>
      </trkpt>
      <trkpt lat="45.8269" lon="1.19017">
        <ele>277.1</ele>
        <time>2024-11-18T14:15:10Z</time>
      </trkpt>
      <trkpt lat="45.8269" lon="1.19006">
        <ele>277.6</ele>
        <time>2024-11-18T14:15:13Z</time>
      </trkpt>
      <trkpt lat="45.82688" lon="1.18994">
        <ele>278</ele>
        <time>2024-11-18T14:15:16Z</time>
      </trkpt>
      <trkpt lat="45.82687" lon="1.18983">
        <ele>278.4</ele>
        <time>2024-11-18T14:15:19Z</time>
      </trkpt>
      <trkpt lat="45.82685" lon="1.18973">
        <ele>278.8</ele>
        <time>2024-11-18T14:15:22Z</time>
      </trkpt>
      <trkpt lat="45.82683" lon="1.18962">
        <ele>279.3</ele>
        <time>2024-11-18T14:15:25Z</time>
      </trkpt>
      <trkpt lat="45.82681" lon="1.18952">
        <ele>279.8</ele>
        <time>2024-11-18T14:15:28Z</time>
      </trkpt>
      <trkpt lat="45.8268" lon="1.18942">
        <ele>280.3</ele>
        <time>2024-11-18T14:15:31Z</time>
      </trkpt>
      <trkpt lat="45.82686" lon="1.18934">
        <ele>281.2</ele>
        <time>2024-11-18T14:15:34Z</time>
      </trkpt>
      <trkpt lat="45.82694" lon="1.18931">
        <ele>282.2</ele>
        <time>2024-11-18T14:15:37Z</time>
      </trkpt>
      <trkpt lat="45.827" lon="1.18929">
        <ele>283</ele>
        <time>2024-11-18T14:15:40Z</time>
      </trkpt>
      <trkpt lat="45.82704" lon="1.18926">
        <ele>283.7</ele>
        <time>2024-11-18T14:15:43Z</time>
      </trkpt>
      <trkpt lat="45.8271" lon="1.18925">
        <ele>284.5</ele>
        <time>2024-11-18T14:15:46Z</time>
      </trkpt>
      <trkpt lat="45.82715" lon="1.18923">
        <ele>285.2</ele>
        <time>2024-11-18T14:15:49Z</time>
      </trkpt>
      <trkpt lat="45.8272" lon="1.18922">
        <ele>285.9</ele>
        <time>2024-11-18T14:15:52Z</time>
      </trkpt>
      <trkpt lat="45.82726" lon="1.1892">
        <ele>286.7</ele>
        <time>2024-11-18T14:15:55Z</time>
      </trkpt>
      <trkpt lat="45.8273" lon="1.18919">
        <ele>287.2</ele>
        <time>2024-11-18T14:15:58Z</time>
      </trkpt>
      <trkpt lat="45.82736" lon="1.18918">
        <ele>287.6</ele>
        <time>2024-11-18T14:16:01Z</time>
      </trkpt>
      <trkpt lat="45.82743" lon="1.18915">
        <ele>287.9</ele>
        <time>2024-11-18T14:16:04Z</time>
      </trkpt>
      <trkpt lat="45.82751" lon="1.18913">
        <ele>288</ele>
        <time>2024-11-18T14:16:07Z</time>
      </trkpt>
      <trkpt lat="45.82756" lon="1.1891">
        <ele>288</ele>
        <time>2024-11-18T14:16:10Z</time>
      </trkpt>
      <trkpt lat="45.82761" lon="1.18904">
        <ele>287.9</ele>
        <time>2024-11-18T14:16:13Z</time>
      </trkpt>
      <trkpt lat="45.82769" lon="1.18894">
        <ele>287.7</ele>
        <time>2024-11-18T14:16:16Z</time>
      </trkpt>
      <trkpt lat="45.82777" lon="1.18881">
        <ele>287.7</ele>
        <time>2024-11-18T14:16:19Z</time>
      </trkpt>
      <trkpt lat="45.82784" lon="1.18872">
        <ele>287.9</ele>
        <time>2024-11-18T14:16:22Z</time>
      </trkpt>
      <trkpt lat="45.82789" lon="1.18862">
        <ele>288.4</ele>
        <time>2024-11-18T14:16:25Z</time>
      </trkpt>
      <trkpt lat="45.82792" lon="1.18853">
        <ele>288.7</ele>
        <time>2024-11-18T14:16:28Z</time>
      </trkpt>
      <trkpt lat="45.82795" lon="1.18846">
        <ele>289.3</ele>
        <time>2024-11-18T14:16:31Z</time>
      </trkpt>
      <trkpt lat="45.82797" lon="1.18839">
        <ele>290</ele>
        <time>2024-11-18T14:16:34Z</time>
      </trkpt>
      <trkpt lat="45.828" lon="1.18831">
        <ele>290.9</ele>
        <time>2024-11-18T14:16:37Z</time>
      </trkpt>
      <trkpt lat="45.82801" lon="1.18826">
        <ele>291.5</ele>
        <time>2024-11-18T14:16:40Z</time>
      </trkpt>
      <trkpt lat="45.828" lon="1.18819">
        <ele>292.1</ele>
        <time>2024-11-18T14:16:43Z</time>
      </trkpt>
      <trkpt lat="45.828" lon="1.18813">
        <ele>292.5</ele>
        <time>2024-11-18T14:16:46Z</time>
      </trkpt>
      <trkpt lat="45.828" lon="1.18809">
        <ele>292.8</ele>
        <time>2024-11-18T14:16:49Z</time>
      </trkpt>
      <trkpt lat="45.828" lon="1.18808">
        <ele>292.9</ele>
        <time>2024-11-18T14:16:52Z</time>
      </trkpt>
      <trkpt lat="45.82801" lon="1.18806">
        <ele>293.1</ele>
        <time>2024-11-18T14:16:55Z</time>
      </trkpt>
      <trkpt lat="45.82801" lon="1.18806">
        <ele>293.1</ele>
        <time>2024-11-18T14:16:58Z</time>
      </trkpt>
      <trkpt lat="45.82802" lon="1.18806">
        <ele>293.1</ele>
        <time>2024-11-18T14:17:01Z</time>
      </trkpt>
      <trkpt lat="45.828" lon="1.18805">
        <ele>293.3</ele>
        <time>2024-11-18T14:17:04Z</time>
      </trkpt>
      <trkpt lat="45.828" lon="1.18804">
        <ele>293.3</ele>
        <time>2024-11-18T14:17:07Z</time>
      </trkpt>
      <trkpt lat="45.82799" lon="1.18797">
        <ele>293.9</ele>
        <time>2024-11-18T14:17:10Z</time>
      </trkpt>
      <trkpt lat="45.82799" lon="1.18788">
        <ele>294.7</ele>
        <time>2024-11-18T14:17:13Z</time>
      </trkpt>
      <trkpt lat="45.82799" lon="1.18778">
        <ele>295.6</ele>
        <time>2024-11-18T14:17:16Z</time>
      </trkpt>
      <trkpt lat="45.82799" lon="1.18776">
        <ele>295.8</ele>
        <time>2024-11-18T14:17:19Z</time>
      </trkpt>
      <trkpt lat="45.82799" lon="1.18775">
        <ele>295.9</ele>
        <time>2024-11-18T14:17:22Z</time>
      </trkpt>
      <trkpt lat="45.828" lon="1.18773">
        <ele>296.1</ele>
        <time>2024-11-18T14:17:25Z</time>
      </trkpt>
      <trkpt lat="45.82802" lon="1.18771">
        <ele>296.4</ele>
        <time>2024-11-18T14:17:28Z</time>
      </trkpt>
      <trkpt lat="45.828" lon="1.18769">
        <ele>296.6</ele>
        <time>2024-11-18T14:17:31Z</time>
      </trkpt>
      <trkpt lat="45.828" lon="1.18769">
        <ele>296.7</ele>
        <time>2024-11-18T14:17:34Z</time>
      </trkpt>
      <trkpt lat="45.828" lon="1.18769">
        <ele>296.7</ele>
        <time>2024-11-18T14:17:37Z</time>
      </trkpt>
      <trkpt lat="45.82801" lon="1.18769">
        <ele>296.8</ele>
        <time>2024-11-18T14:17:40Z</time>
      </trkpt>
      <trkpt lat="45.82801" lon="1.18769">
        <ele>296.8</ele>
        <time>2024-11-18T14:17:43Z</time>
      </trkpt>
      <trkpt lat="45.82801" lon="1.18769">
        <ele>296.8</ele>
        <time>2024-11-18T14:17:46Z</time>
      </trkpt>
      <trkpt lat="45.82801" lon="1.18769">
        <ele>296.8</ele>
        <time>2024-11-18T14:17:49Z</time>
      </trkpt>
      <trkpt lat="45.82801" lon="1.18769">
        <ele>296.8</ele>
        <time>2024-11-18T14:17:52Z</time>
      </trkpt>
      <trkpt lat="45.82801" lon="1.18769">
        <ele>296.8</ele>
        <time>2024-11-18T14:17:55Z</time>
      </trkpt>
      <trkpt lat="45.82801" lon="1.18769">
        <ele>296.8</ele>
        <time>2024-11-18T14:17:58Z</time>
      </trkpt>
      <trkpt lat="45.82801" lon="1.18769">
        <ele>296.8</ele>
        <time>2024-11-18T14:18:01Z</time>
      </trkpt>
      <trkpt lat="45.82801" lon="1.18769">
        <ele>296.8</ele>
        <time>2024-11-18T14:18:04Z</time>
      </trkpt>
      <trkpt lat="45.82801" lon="1.18769">
        <ele>296.8</ele>
        <time>2024-11-18T14:18:07Z</time>
      </trkpt>
      <trkpt lat="45.82801" lon="1.18769">
        <ele>296.8</ele>
        <time>2024-11-18T14:18:10Z</time>
      </trkpt>
      <trkpt lat="45.82801" lon="1.18769">
        <ele>296.8</ele>
        <time>2024-11-18T14:18:13Z</time>
      </trkpt>
      <trkpt lat="45.82801" lon="1.18769">
        <ele>296.8</ele>
        <time>2024-11-18T14:18:16Z</time>
      </trkpt>
      <trkpt lat="45.82801" lon="1.18769">
        <ele>296.8</ele>
        <time>2024-11-18T14:18:19Z</time>
      </trkpt>
      <trkpt lat="45.82801" lon="1.18769">
        <ele>296.8</ele>
        <time>2024-11-18T14:18:22Z</time>
      </trkpt>
      <trkpt lat="45.82801" lon="1.18769">
        <ele>296.8</ele>
        <time>2024-11-18T14:18:25Z</time>
      </trkpt>
      <trkpt lat="45.82801" lon="1.18769">
        <ele>296.8</ele>
        <time>2024-11-18T14:18:28Z</time>
      </trkpt>
      <trkpt lat="45.82801" lon="1.18769">
        <ele>296.8</ele>
        <time>2024-11-18T14:18:31Z</time>
      </trkpt>
      <trkpt lat="45.82801" lon="1.18769">
        <ele>296.8</ele>
        <time>2024-11-18T14:18:34Z</time>
      </trkpt>
      <trkpt lat="45.828" lon="1.18767">
        <ele>297</ele>
        <time>2024-11-18T14:18:37Z</time>
      </trkpt>
      <trkpt lat="45.82801" lon="1.18768">
        <ele>297.1</ele>
        <time>2024-11-18T14:18:40Z</time>
      </trkpt>
      <trkpt lat="45.82803" lon="1.18769">
        <ele>297.3</ele>
        <time>2024-11-18T14:18:43Z</time>
      </trkpt>
      <trkpt lat="45.82803" lon="1.18769">
        <ele>297.4</ele>
        <time>2024-11-18T14:18:46Z</time>
      </trkpt>
      <trkpt lat="45.82803" lon="1.18768">
        <ele>297.4</ele>
        <time>2024-11-18T14:18:49Z</time>
      </trkpt>
      <trkpt lat="45.82803" lon="1.18768">
        <ele>297.5</ele>
        <time>2024-11-18T14:18:52Z</time>
      </trkpt>
      <trkpt lat="45.82803" lon="1.18768">
        <ele>297.5</ele>
        <time>2024-11-18T14:18:55Z</time>
      </trkpt>
      <trkpt lat="45.82803" lon="1.18768">
        <ele>297.5</ele>
        <time>2024-11-18T14:18:58Z</time>
      </trkpt>
      <trkpt lat="45.82803" lon="1.18765">
        <ele>297.8</ele>
        <time>2024-11-18T14:19:01Z</time>
      </trkpt>
      <trkpt lat="45.82802" lon="1.18765">
        <ele>297.8</ele>
        <time>2024-11-18T14:19:04Z</time>
      </trkpt>
      <trkpt lat="45.82803" lon="1.18761">
        <ele>298.3</ele>
        <time>2024-11-18T14:19:07Z</time>
      </trkpt>
      <trkpt lat="45.82804" lon="1.18752">
        <ele>299.1</ele>
        <time>2024-11-18T14:19:10Z</time>
      </trkpt>
      <trkpt lat="45.82806" lon="1.18745">
        <ele>299.8</ele>
        <time>2024-11-18T14:19:13Z</time>
      </trkpt>
      <trkpt lat="45.82807" lon="1.18734">
        <ele>300.8</ele>
        <time>2024-11-18T14:19:16Z</time>
      </trkpt>
      <trkpt lat="45.82808" lon="1.18724">
        <ele>301.8</ele>
        <time>2024-11-18T14:19:19Z</time>
      </trkpt>
      <trkpt lat="45.82809" lon="1.18714">
        <ele>302.8</ele>
        <time>2024-11-18T14:19:22Z</time>
      </trkpt>
      <trkpt lat="45.82808" lon="1.18703">
        <ele>303.8</ele>
        <time>2024-11-18T14:19:25Z</time>
      </trkpt>
      <trkpt lat="45.82805" lon="1.18695">
        <ele>304.6</ele>
        <time>2024-11-18T14:19:28Z</time>
      </trkpt>
      <trkpt lat="45.82805" lon="1.18686">
        <ele>305.5</ele>
        <time>2024-11-18T14:19:31Z</time>
      </trkpt>
      <trkpt lat="45.82808" lon="1.18677">
        <ele>306.7</ele>
        <time>2024-11-18T14:19:34Z</time>
      </trkpt>
      <trkpt lat="45.82811" lon="1.18666">
        <ele>307.3</ele>
        <time>2024-11-18T14:19:37Z</time>
      </trkpt>
      <trkpt lat="45.82815" lon="1.18659">
        <ele>307.8</ele>
        <time>2024-11-18T14:19:40Z</time>
      </trkpt>
      <trkpt lat="45.82817" lon="1.18653">
        <ele>308.1</ele>
        <time>2024-11-18T14:19:43Z</time>
      </trkpt>
      <trkpt lat="45.8282" lon="1.18643">
        <ele>308.7</ele>
        <time>2024-11-18T14:19:46Z</time>
      </trkpt>
      <trkpt lat="45.82822" lon="1.18634">
        <ele>309.1</ele>
        <time>2024-11-18T14:19:49Z</time>
      </trkpt>
      <trkpt lat="45.82826" lon="1.18623">
        <ele>309.7</ele>
        <time>2024-11-18T14:19:52Z</time>
      </trkpt>
      <trkpt lat="45.8283" lon="1.18613">
        <ele>310.4</ele>
        <time>2024-11-18T14:19:55Z</time>
      </trkpt>
      <trkpt lat="45.82832" lon="1.18605">
        <ele>310.9</ele>
        <time>2024-11-18T14:19:58Z</time>
      </trkpt>
      <trkpt lat="45.82834" lon="1.18597">
        <ele>311.6</ele>
        <time>2024-11-18T14:20:01Z</time>
      </trkpt>
      <trkpt lat="45.82836" lon="1.18587">
        <ele>312.4</ele>
        <time>2024-11-18T14:20:04Z</time>
      </trkpt>
      <trkpt lat="45.82838" lon="1.18578">
        <ele>313.1</ele>
        <time>2024-11-18T14:20:07Z</time>
      </trkpt>
      <trkpt lat="45.8284" lon="1.1857">
        <ele>313.9</ele>
        <time>2024-11-18T14:20:10Z</time>
      </trkpt>
      <trkpt lat="45.82842" lon="1.18562">
        <ele>314.8</ele>
        <time>2024-11-18T14:20:13Z</time>
      </trkpt>
      <trkpt lat="45.82843" lon="1.18555">
        <ele>315.5</ele>
        <time>2024-11-18T14:20:16Z</time>
      </trkpt>
      <trkpt lat="45.82844" lon="1.18548">
        <ele>316.2</ele>
        <time>2024-11-18T14:20:19Z</time>
      </trkpt>
      <trkpt lat="45.82846" lon="1.18542">
        <ele>316.8</ele>
        <time>2024-11-18T14:20:22Z</time>
      </trkpt>
      <trkpt lat="45.82848" lon="1.18539">
        <ele>317.2</ele>
        <time>2024-11-18T14:20:25Z</time>
      </trkpt>
      <trkpt lat="45.82854" lon="1.18538">
        <ele>317.8</ele>
        <time>2024-11-18T14:20:28Z</time>
      </trkpt>
      <trkpt lat="45.82861" lon="1.18537">
        <ele>318.1</ele>
        <time>2024-11-18T14:20:31Z</time>
      </trkpt>
      <trkpt lat="45.82872" lon="1.18536">
        <ele>317.8</ele>
        <time>2024-11-18T14:20:34Z</time>
      </trkpt>
      <trkpt lat="45.8288" lon="1.18538">
        <ele>317.4</ele>
        <time>2024-11-18T14:20:37Z</time>
      </trkpt>
      <trkpt lat="45.82891" lon="1.18542">
        <ele>316.6</ele>
        <time>2024-11-18T14:20:40Z</time>
      </trkpt>
      <trkpt lat="45.829" lon="1.18548">
        <ele>315.9</ele>
        <time>2024-11-18T14:20:43Z</time>
      </trkpt>
      <trkpt lat="45.82909" lon="1.18553">
        <ele>315.3</ele>
        <time>2024-11-18T14:20:46Z</time>
      </trkpt>
      <trkpt lat="45.82916" lon="1.18561">
        <ele>315</ele>
        <time>2024-11-18T14:20:49Z</time>
      </trkpt>
      <trkpt lat="45.82922" lon="1.18572">
        <ele>315</ele>
        <time>2024-11-18T14:20:52Z</time>
      </trkpt>
      <trkpt lat="45.82929" lon="1.1857">
        <ele>315.4</ele>
        <time>2024-11-18T14:20:55Z</time>
      </trkpt>
      <trkpt lat="45.82935" lon="1.18561">
        <ele>316</ele>
        <time>2024-11-18T14:20:58Z</time>
      </trkpt>
      <trkpt lat="45.82944" lon="1.18558">
        <ele>316.6</ele>
        <time>2024-11-18T14:21:01Z</time>
      </trkpt>
      <trkpt lat="45.82948" lon="1.18548">
        <ele>317.1</ele>
        <time>2024-11-18T14:21:04Z</time>
      </trkpt>
      <trkpt lat="45.82949" lon="1.18539">
        <ele>317.6</ele>
        <time>2024-11-18T14:21:07Z</time>
      </trkpt>
      <trkpt lat="45.82951" lon="1.18527">
        <ele>318.1</ele>
        <time>2024-11-18T14:21:10Z</time>
      </trkpt>
      <trkpt lat="45.82951" lon="1.18517">
        <ele>318.6</ele>
        <time>2024-11-18T14:21:13Z</time>
      </trkpt>
      <trkpt lat="45.82951" lon="1.1851">
        <ele>318.9</ele>
        <time>2024-11-18T14:21:16Z</time>
      </trkpt>
      <trkpt lat="45.82951" lon="1.18502">
        <ele>319.3</ele>
        <time>2024-11-18T14:21:19Z</time>
      </trkpt>
      <trkpt lat="45.82949" lon="1.1849">
        <ele>320</ele>
        <time>2024-11-18T14:21:22Z</time>
      </trkpt>
      <trkpt lat="45.82951" lon="1.18477">
        <ele>320.7</ele>
        <time>2024-11-18T14:21:25Z</time>
      </trkpt>
      <trkpt lat="45.82952" lon="1.18465">
        <ele>321.4</ele>
        <time>2024-11-18T14:21:28Z</time>
      </trkpt>
      <trkpt lat="45.82951" lon="1.18452">
        <ele>322</ele>
        <time>2024-11-18T14:21:31Z</time>
      </trkpt>
      <trkpt lat="45.82952" lon="1.1844">
        <ele>322.7</ele>
        <time>2024-11-18T14:21:34Z</time>
      </trkpt>
      <trkpt lat="45.82952" lon="1.1843">
        <ele>323.2</ele>
        <time>2024-11-18T14:21:37Z</time>
      </trkpt>
      <trkpt lat="45.82951" lon="1.18428">
        <ele>323.3</ele>
        <time>2024-11-18T14:21:40Z</time>
      </trkpt>
      <trkpt lat="45.82951" lon="1.18428">
        <ele>323.4</ele>
        <time>2024-11-18T14:21:43Z</time>
      </trkpt>
      <trkpt lat="45.82951" lon="1.18429">
        <ele>323.4</ele>
        <time>2024-11-18T14:21:46Z</time>
      </trkpt>
      <trkpt lat="45.82951" lon="1.18429">
        <ele>323.4</ele>
        <time>2024-11-18T14:21:49Z</time>
      </trkpt>
      <trkpt lat="45.82951" lon="1.18428">
        <ele>323.5</ele>
        <time>2024-11-18T14:21:52Z</time>
      </trkpt>
      <trkpt lat="45.82951" lon="1.18427">
        <ele>323.5</ele>
        <time>2024-11-18T14:21:55Z</time>
      </trkpt>
      <trkpt lat="45.82954" lon="1.18427">
        <ele>323.5</ele>
        <time>2024-11-18T14:21:58Z</time>
      </trkpt>
      <trkpt lat="45.82962" lon="1.18428">
        <ele>323.4</ele>
        <time>2024-11-18T14:22:01Z</time>
      </trkpt>
      <trkpt lat="45.8297" lon="1.18431">
        <ele>323.3</ele>
        <time>2024-11-18T14:22:04Z</time>
      </trkpt>
      <trkpt lat="45.82977" lon="1.18433">
        <ele>323.3</ele>
        <time>2024-11-18T14:22:07Z</time>
      </trkpt>
      <trkpt lat="45.82987" lon="1.18434">
        <ele>323.1</ele>
        <time>2024-11-18T14:22:10Z</time>
      </trkpt>
      <trkpt lat="45.82999" lon="1.18436">
        <ele>322.9</ele>
        <time>2024-11-18T14:22:13Z</time>
      </trkpt>
      <trkpt lat="45.83013" lon="1.18442">
        <ele>322.5</ele>
        <time>2024-11-18T14:22:16Z</time>
      </trkpt>
      <trkpt lat="45.83027" lon="1.18449">
        <ele>322.2</ele>
        <time>2024-11-18T14:22:19Z</time>
      </trkpt>
      <trkpt lat="45.83038" lon="1.18453">
        <ele>321.9</ele>
        <time>2024-11-18T14:22:22Z</time>
      </trkpt>
      <trkpt lat="45.8305" lon="1.18458">
        <ele>321.7</ele>
        <time>2024-11-18T14:22:25Z</time>
      </trkpt>
      <trkpt lat="45.83064" lon="1.18464">
        <ele>321.7</ele>
        <time>2024-11-18T14:22:28Z</time>
      </trkpt>
      <trkpt lat="45.83071" lon="1.18457">
        <ele>321.9</ele>
        <time>2024-11-18T14:22:31Z</time>
      </trkpt>
      <trkpt lat="45.83074" lon="1.18447">
        <ele>322.1</ele>
        <time>2024-11-18T14:22:34Z</time>
      </trkpt>
      <trkpt lat="45.83076" lon="1.18434">
        <ele>322.6</ele>
        <time>2024-11-18T14:22:37Z</time>
      </trkpt>
      <trkpt lat="45.83075" lon="1.18419">
        <ele>323</ele>
        <time>2024-11-18T14:22:40Z</time>
      </trkpt>
      <trkpt lat="45.83075" lon="1.18406">
        <ele>323.4</ele>
        <time>2024-11-18T14:22:43Z</time>
      </trkpt>
      <trkpt lat="45.83078" lon="1.18395">
        <ele>323.7</ele>
        <time>2024-11-18T14:22:46Z</time>
      </trkpt>
      <trkpt lat="45.8308" lon="1.1838">
        <ele>324</ele>
        <time>2024-11-18T14:22:49Z</time>
      </trkpt>
      <trkpt lat="45.8308" lon="1.18366">
        <ele>324.3</ele>
        <time>2024-11-18T14:22:52Z</time>
      </trkpt>
      <trkpt lat="45.83079" lon="1.18356">
        <ele>324.5</ele>
        <time>2024-11-18T14:22:55Z</time>
      </trkpt>
      <trkpt lat="45.8308" lon="1.18344">
        <ele>324.8</ele>
        <time>2024-11-18T14:22:58Z</time>
      </trkpt>
      <trkpt lat="45.8308" lon="1.18332">
        <ele>325.1</ele>
        <time>2024-11-18T14:23:01Z</time>
      </trkpt>
      <trkpt lat="45.8308" lon="1.18316">
        <ele>325.6</ele>
        <time>2024-11-18T14:23:04Z</time>
      </trkpt>
      <trkpt lat="45.83076" lon="1.18303">
        <ele>325.9</ele>
        <time>2024-11-18T14:23:07Z</time>
      </trkpt>
      <trkpt lat="45.83074" lon="1.18292">
        <ele>326.2</ele>
        <time>2024-11-18T14:23:10Z</time>
      </trkpt>
      <trkpt lat="45.83071" lon="1.18287">
        <ele>326.3</ele>
        <time>2024-11-18T14:23:13Z</time>
      </trkpt>
      <trkpt lat="45.83067" lon="1.18283">
        <ele>326.4</ele>
        <time>2024-11-18T14:23:16Z</time>
      </trkpt>
      <trkpt lat="45.83062" lon="1.18279">
        <ele>326.5</ele>
        <time>2024-11-18T14:23:19Z</time>
      </trkpt>
      <trkpt lat="45.8306" lon="1.18276">
        <ele>326.6</ele>
        <time>2024-11-18T14:23:22Z</time>
      </trkpt>
      <trkpt lat="45.83057" lon="1.18272">
        <ele>326.6</ele>
        <time>2024-11-18T14:23:25Z</time>
      </trkpt>
      <trkpt lat="45.83052" lon="1.18269">
        <ele>326.7</ele>
        <time>2024-11-18T14:23:28Z</time>
      </trkpt>
      <trkpt lat="45.83047" lon="1.18267">
        <ele>326.9</ele>
        <time>2024-11-18T14:23:31Z</time>
      </trkpt>
      <trkpt lat="45.83045" lon="1.1827">
        <ele>326.9</ele>
        <time>2024-11-18T14:23:34Z</time>
      </trkpt>
      <trkpt lat="45.83048" lon="1.18269">
        <ele>326.8</ele>
        <time>2024-11-18T14:23:37Z</time>
      </trkpt>
      <trkpt lat="45.83055" lon="1.18271">
        <ele>326.7</ele>
        <time>2024-11-18T14:23:40Z</time>
      </trkpt>
      <trkpt lat="45.83059" lon="1.18273">
        <ele>326.6</ele>
        <time>2024-11-18T14:23:43Z</time>
      </trkpt>
      <trkpt lat="45.83065" lon="1.18277">
        <ele>326.5</ele>
        <time>2024-11-18T14:23:46Z</time>
      </trkpt>
      <trkpt lat="45.8307" lon="1.1828">
        <ele>326.4</ele>
        <time>2024-11-18T14:23:49Z</time>
      </trkpt>
      <trkpt lat="45.83071" lon="1.1828">
        <ele>326.4</ele>
        <time>2024-11-18T14:23:52Z</time>
      </trkpt>
      <trkpt lat="45.8307" lon="1.1828">
        <ele>326.4</ele>
        <time>2024-11-18T14:23:55Z</time>
      </trkpt>
      <trkpt lat="45.83067" lon="1.18278">
        <ele>326.5</ele>
        <time>2024-11-18T14:23:58Z</time>
      </trkpt>
      <trkpt lat="45.83066" lon="1.18273">
        <ele>326.5</ele>
        <time>2024-11-18T14:24:01Z</time>
      </trkpt>
      <trkpt lat="45.83064" lon="1.18266">
        <ele>326.6</ele>
        <time>2024-11-18T14:24:04Z</time>
      </trkpt>
      <trkpt lat="45.83062" lon="1.18258">
        <ele>326.6</ele>
        <time>2024-11-18T14:24:07Z</time>
      </trkpt>
      <trkpt lat="45.83062" lon="1.18258">
        <ele>326.6</ele>
        <time>2024-11-18T14:24:10Z</time>
      </trkpt>
      <trkpt lat="45.83061" lon="1.18257">
        <ele>326.6</ele>
        <time>2024-11-18T14:24:13Z</time>
      </trkpt>
      <trkpt lat="45.83061" lon="1.18257">
        <ele>326.6</ele>
        <time>2024-11-18T14:24:16Z</time>
      </trkpt>
      <trkpt lat="45.83057" lon="1.18247">
        <ele>326.4</ele>
        <time>2024-11-18T14:24:19Z</time>
      </trkpt>
      <trkpt lat="45.83055" lon="1.18235">
        <ele>326</ele>
        <time>2024-11-18T14:24:22Z</time>
      </trkpt>
      <trkpt lat="45.83055" lon="1.18222">
        <ele>325.6</ele>
        <time>2024-11-18T14:24:25Z</time>
      </trkpt>
      <trkpt lat="45.83055" lon="1.1821">
        <ele>325.3</ele>
        <time>2024-11-18T14:24:28Z</time>
      </trkpt>
      <trkpt lat="45.83056" lon="1.18195">
        <ele>325</ele>
        <time>2024-11-18T14:24:31Z</time>
      </trkpt>
      <trkpt lat="45.83056" lon="1.18187">
        <ele>324.9</ele>
        <time>2024-11-18T14:24:34Z</time>
      </trkpt>
      <trkpt lat="45.83056" lon="1.18182">
        <ele>324.8</ele>
        <time>2024-11-18T14:24:37Z</time>
      </trkpt>
      <trkpt lat="45.83052" lon="1.18176">
        <ele>324.7</ele>
        <time>2024-11-18T14:24:40Z</time>
      </trkpt>
      <trkpt lat="45.83048" lon="1.1817">
        <ele>324.6</ele>
        <time>2024-11-18T14:24:43Z</time>
      </trkpt>
      <trkpt lat="45.83047" lon="1.1816">
        <ele>324.5</ele>
        <time>2024-11-18T14:24:46Z</time>
      </trkpt>
      <trkpt lat="45.83045" lon="1.18154">
        <ele>324.4</ele>
        <time>2024-11-18T14:24:49Z</time>
      </trkpt>
      <trkpt lat="45.83044" lon="1.18152">
        <ele>324.4</ele>
        <time>2024-11-18T14:24:52Z</time>
      </trkpt>
      <trkpt lat="45.83044" lon="1.18151">
        <ele>324.4</ele>
        <time>2024-11-18T14:24:55Z</time>
      </trkpt>
      <trkpt lat="45.83044" lon="1.18151">
        <ele>324.4</ele>
        <time>2024-11-18T14:24:58Z</time>
      </trkpt>
      <trkpt lat="45.83044" lon="1.18148">
        <ele>324.4</ele>
        <time>2024-11-18T14:25:01Z</time>
      </trkpt>
      <trkpt lat="45.83044" lon="1.18139">
        <ele>324.3</ele>
        <time>2024-11-18T14:25:04Z</time>
      </trkpt>
      <trkpt lat="45.83041" lon="1.18124">
        <ele>324.3</ele>
        <time>2024-11-18T14:25:07Z</time>
      </trkpt>
      <trkpt lat="45.83038" lon="1.1811">
        <ele>324.3</ele>
        <time>2024-11-18T14:25:10Z</time>
      </trkpt>
      <trkpt lat="45.8304" lon="1.18097">
        <ele>324.4</ele>
        <time>2024-11-18T14:25:13Z</time>
      </trkpt>
      <trkpt lat="45.83039" lon="1.18085">
        <ele>324.4</ele>
        <time>2024-11-18T14:25:16Z</time>
      </trkpt>
      <trkpt lat="45.83038" lon="1.18072">
        <ele>324.4</ele>
        <time>2024-11-18T14:25:19Z</time>
      </trkpt>
      <trkpt lat="45.83037" lon="1.18056">
        <ele>324.3</ele>
        <time>2024-11-18T14:25:22Z</time>
      </trkpt>
      <trkpt lat="45.83038" lon="1.18042">
        <ele>324.2</ele>
        <time>2024-11-18T14:25:25Z</time>
      </trkpt>
      <trkpt lat="45.83042" lon="1.18029">
        <ele>324</ele>
        <time>2024-11-18T14:25:28Z</time>
      </trkpt>
      <trkpt lat="45.83045" lon="1.18022">
        <ele>324</ele>
        <time>2024-11-18T14:25:31Z</time>
      </trkpt>
      <trkpt lat="45.83048" lon="1.18011">
        <ele>323.9</ele>
        <time>2024-11-18T14:25:34Z</time>
      </trkpt>
      <trkpt lat="45.83053" lon="1.17999">
        <ele>323.6</ele>
        <time>2024-11-18T14:25:37Z</time>
      </trkpt>
      <trkpt lat="45.83053" lon="1.17983">
        <ele>323.2</ele>
        <time>2024-11-18T14:25:40Z</time>
      </trkpt>
      <trkpt lat="45.83048" lon="1.17967">
        <ele>322.8</ele>
        <time>2024-11-18T14:25:43Z</time>
      </trkpt>
      <trkpt lat="45.83049" lon="1.17953">
        <ele>322.6</ele>
        <time>2024-11-18T14:25:46Z</time>
      </trkpt>
      <trkpt lat="45.83051" lon="1.17934">
        <ele>322.3</ele>
        <time>2024-11-18T14:25:49Z</time>
      </trkpt>
      <trkpt lat="45.83051" lon="1.17918">
        <ele>322</ele>
        <time>2024-11-18T14:25:52Z</time>
      </trkpt>
      <trkpt lat="45.83054" lon="1.17904">
        <ele>321.7</ele>
        <time>2024-11-18T14:25:55Z</time>
      </trkpt>
      <trkpt lat="45.83055" lon="1.17884">
        <ele>321.2</ele>
        <time>2024-11-18T14:25:58Z</time>
      </trkpt>
      <trkpt lat="45.83056" lon="1.17863">
        <ele>320.6</ele>
        <time>2024-11-18T14:26:01Z</time>
      </trkpt>
      <trkpt lat="45.83056" lon="1.17841">
        <ele>319.8</ele>
        <time>2024-11-18T14:26:04Z</time>
      </trkpt>
      <trkpt lat="45.8306" lon="1.17815">
        <ele>318.5</ele>
        <time>2024-11-18T14:26:07Z</time>
      </trkpt>
      <trkpt lat="45.8306" lon="1.17787">
        <ele>317.7</ele>
        <time>2024-11-18T14:26:10Z</time>
      </trkpt>
      <trkpt lat="45.83061" lon="1.17764">
        <ele>317.7</ele>
        <time>2024-11-18T14:26:13Z</time>
      </trkpt>
      <trkpt lat="45.83063" lon="1.17743">
        <ele>317.8</ele>
        <time>2024-11-18T14:26:16Z</time>
      </trkpt>
      <trkpt lat="45.83065" lon="1.17725">
        <ele>317.8</ele>
        <time>2024-11-18T14:26:19Z</time>
      </trkpt>
      <trkpt lat="45.83065" lon="1.17704">
        <ele>317.8</ele>
        <time>2024-11-18T14:26:22Z</time>
      </trkpt>
      <trkpt lat="45.83066" lon="1.17684">
        <ele>317.7</ele>
        <time>2024-11-18T14:26:25Z</time>
      </trkpt>
      <trkpt lat="45.83067" lon="1.17664">
        <ele>317.8</ele>
        <time>2024-11-18T14:26:28Z</time>
      </trkpt>
      <trkpt lat="45.83068" lon="1.17646">
        <ele>317.8</ele>
        <time>2024-11-18T14:26:31Z</time>
      </trkpt>
      <trkpt lat="45.83068" lon="1.17629">
        <ele>317.9</ele>
        <time>2024-11-18T14:26:34Z</time>
      </trkpt>
      <trkpt lat="45.83069" lon="1.17618">
        <ele>317.9</ele>
        <time>2024-11-18T14:26:37Z</time>
      </trkpt>
      <trkpt lat="45.8307" lon="1.17605">
        <ele>317.9</ele>
        <time>2024-11-18T14:26:40Z</time>
      </trkpt>
      <trkpt lat="45.83066" lon="1.1759">
        <ele>317.9</ele>
        <time>2024-11-18T14:26:43Z</time>
      </trkpt>
      <trkpt lat="45.83064" lon="1.17573">
        <ele>317.7</ele>
        <time>2024-11-18T14:26:46Z</time>
      </trkpt>
      <trkpt lat="45.83062" lon="1.17555">
        <ele>317.5</ele>
        <time>2024-11-18T14:26:49Z</time>
      </trkpt>
      <trkpt lat="45.8306" lon="1.17536">
        <ele>317.4</ele>
        <time>2024-11-18T14:26:52Z</time>
      </trkpt>
      <trkpt lat="45.83058" lon="1.17519">
        <ele>317.3</ele>
        <time>2024-11-18T14:26:55Z</time>
      </trkpt>
      <trkpt lat="45.83054" lon="1.17505">
        <ele>317.3</ele>
        <time>2024-11-18T14:26:58Z</time>
      </trkpt>
      <trkpt lat="45.83053" lon="1.17487">
        <ele>317.1</ele>
        <time>2024-11-18T14:27:01Z</time>
      </trkpt>
      <trkpt lat="45.83058" lon="1.17471">
        <ele>316.9</ele>
        <time>2024-11-18T14:27:04Z</time>
      </trkpt>
      <trkpt lat="45.83067" lon="1.17457">
        <ele>316.5</ele>
        <time>2024-11-18T14:27:07Z</time>
      </trkpt>
      <trkpt lat="45.83076" lon="1.17441">
        <ele>315.9</ele>
        <time>2024-11-18T14:27:10Z</time>
      </trkpt>
      <trkpt lat="45.83087" lon="1.17421">
        <ele>315.4</ele>
        <time>2024-11-18T14:27:13Z</time>
      </trkpt>
      <trkpt lat="45.83096" lon="1.17404">
        <ele>314.9</ele>
        <time>2024-11-18T14:27:16Z</time>
      </trkpt>
      <trkpt lat="45.83104" lon="1.17387">
        <ele>314.5</ele>
        <time>2024-11-18T14:27:19Z</time>
      </trkpt>
      <trkpt lat="45.83114" lon="1.17371">
        <ele>314.2</ele>
        <time>2024-11-18T14:27:22Z</time>
      </trkpt>
      <trkpt lat="45.83121" lon="1.17353">
        <ele>314</ele>
        <time>2024-11-18T14:27:25Z</time>
      </trkpt>
      <trkpt lat="45.83125" lon="1.17332">
        <ele>313.7</ele>
        <time>2024-11-18T14:27:28Z</time>
      </trkpt>
      <trkpt lat="45.83129" lon="1.17316">
        <ele>313.6</ele>
        <time>2024-11-18T14:27:31Z</time>
      </trkpt>
      <trkpt lat="45.83127" lon="1.17303">
        <ele>313.5</ele>
        <time>2024-11-18T14:27:34Z</time>
      </trkpt>
      <trkpt lat="45.83123" lon="1.17293">
        <ele>313.4</ele>
        <time>2024-11-18T14:27:37Z</time>
      </trkpt>
      <trkpt lat="45.83115" lon="1.1729">
        <ele>313.3</ele>
        <time>2024-11-18T14:27:40Z</time>
      </trkpt>
      <trkpt lat="45.83105" lon="1.17291">
        <ele>313.3</ele>
        <time>2024-11-18T14:27:43Z</time>
      </trkpt>
      <trkpt lat="45.83094" lon="1.17288">
        <ele>313.4</ele>
        <time>2024-11-18T14:27:46Z</time>
      </trkpt>
      <trkpt lat="45.83085" lon="1.17286">
        <ele>313.5</ele>
        <time>2024-11-18T14:27:49Z</time>
      </trkpt>
      <trkpt lat="45.83072" lon="1.17287">
        <ele>313.7</ele>
        <time>2024-11-18T14:27:52Z</time>
      </trkpt>
      <trkpt lat="45.83061" lon="1.17288">
        <ele>314</ele>
        <time>2024-11-18T14:27:55Z</time>
      </trkpt>
      <trkpt lat="45.83047" lon="1.17291">
        <ele>314.4</ele>
        <time>2024-11-18T14:27:58Z</time>
      </trkpt>
      <trkpt lat="45.83035" lon="1.17291">
        <ele>314.8</ele>
        <time>2024-11-18T14:28:01Z</time>
      </trkpt>
      <trkpt lat="45.83024" lon="1.17292">
        <ele>315.2</ele>
        <time>2024-11-18T14:28:04Z</time>
      </trkpt>
      <trkpt lat="45.83013" lon="1.17292">
        <ele>315.7</ele>
        <time>2024-11-18T14:28:07Z</time>
      </trkpt>
      <trkpt lat="45.83003" lon="1.17292">
        <ele>316.1</ele>
        <time>2024-11-18T14:28:10Z</time>
      </trkpt>
      <trkpt lat="45.82992" lon="1.17291">
        <ele>316.5</ele>
        <time>2024-11-18T14:28:13Z</time>
      </trkpt>
      <trkpt lat="45.82986" lon="1.17292">
        <ele>316.8</ele>
        <time>2024-11-18T14:28:16Z</time>
      </trkpt>
      <trkpt lat="45.8298" lon="1.17294">
        <ele>316.9</ele>
        <time>2024-11-18T14:28:19Z</time>
      </trkpt>
      <trkpt lat="45.82976" lon="1.17298">
        <ele>317</ele>
        <time>2024-11-18T14:28:22Z</time>
      </trkpt>
      <trkpt lat="45.82977" lon="1.17305">
        <ele>317.1</ele>
        <time>2024-11-18T14:28:25Z</time>
      </trkpt>
      <trkpt lat="45.82975" lon="1.17313">
        <ele>317.2</ele>
        <time>2024-11-18T14:28:28Z</time>
      </trkpt>
      <trkpt lat="45.82971" lon="1.17324">
        <ele>317.3</ele>
        <time>2024-11-18T14:28:31Z</time>
      </trkpt>
      <trkpt lat="45.82972" lon="1.17336">
        <ele>317.4</ele>
        <time>2024-11-18T14:28:34Z</time>
      </trkpt>
      <trkpt lat="45.8297" lon="1.17352">
        <ele>317.6</ele>
        <time>2024-11-18T14:28:37Z</time>
      </trkpt>
      <trkpt lat="45.82967" lon="1.17371">
        <ele>318</ele>
        <time>2024-11-18T14:28:40Z</time>
      </trkpt>
      <trkpt lat="45.82964" lon="1.17387">
        <ele>318.3</ele>
        <time>2024-11-18T14:28:43Z</time>
      </trkpt>
      <trkpt lat="45.82962" lon="1.17409">
        <ele>318.6</ele>
        <time>2024-11-18T14:28:46Z</time>
      </trkpt>
      <trkpt lat="45.82958" lon="1.17427">
        <ele>318.9</ele>
        <time>2024-11-18T14:28:49Z</time>
      </trkpt>
      <trkpt lat="45.82953" lon="1.17446">
        <ele>319.2</ele>
        <time>2024-11-18T14:28:52Z</time>
      </trkpt>
      <trkpt lat="45.82952" lon="1.17462">
        <ele>319.5</ele>
        <time>2024-11-18T14:28:55Z</time>
      </trkpt>
      <trkpt lat="45.82952" lon="1.17477">
        <ele>319.8</ele>
        <time>2024-11-18T14:28:58Z</time>
      </trkpt>
      <trkpt lat="45.82949" lon="1.17493">
        <ele>320.2</ele>
        <time>2024-11-18T14:29:01Z</time>
      </trkpt>
      <trkpt lat="45.82946" lon="1.17508">
        <ele>320.6</ele>
        <time>2024-11-18T14:29:04Z</time>
      </trkpt>
      <trkpt lat="45.82944" lon="1.17525">
        <ele>321.1</ele>
        <time>2024-11-18T14:29:07Z</time>
      </trkpt>
      <trkpt lat="45.82942" lon="1.17541">
        <ele>321.6</ele>
        <time>2024-11-18T14:29:10Z</time>
      </trkpt>
      <trkpt lat="45.82943" lon="1.17555">
        <ele>322</ele>
        <time>2024-11-18T14:29:13Z</time>
      </trkpt>
      <trkpt lat="45.82954" lon="1.17561">
        <ele>321.5</ele>
        <time>2024-11-18T14:29:16Z</time>
      </trkpt>
      <trkpt lat="45.82966" lon="1.17567">
        <ele>321.1</ele>
        <time>2024-11-18T14:29:19Z</time>
      </trkpt>
      <trkpt lat="45.8298" lon="1.17577">
        <ele>320.5</ele>
        <time>2024-11-18T14:29:22Z</time>
      </trkpt>
      <trkpt lat="45.82995" lon="1.17585">
        <ele>320.1</ele>
        <time>2024-11-18T14:29:25Z</time>
      </trkpt>
      <trkpt lat="45.83008" lon="1.17593">
        <ele>319.7</ele>
        <time>2024-11-18T14:29:28Z</time>
      </trkpt>
      <trkpt lat="45.83021" lon="1.17598">
        <ele>319.4</ele>
        <time>2024-11-18T14:29:31Z</time>
      </trkpt>
      <trkpt lat="45.83035" lon="1.17605">
        <ele>319</ele>
        <time>2024-11-18T14:29:34Z</time>
      </trkpt>
      <trkpt lat="45.83049" lon="1.17612">
        <ele>318.5</ele>
        <time>2024-11-18T14:29:37Z</time>
      </trkpt>
      <trkpt lat="45.83062" lon="1.17621">
        <ele>318.1</ele>
        <time>2024-11-18T14:29:40Z</time>
      </trkpt>
      <trkpt lat="45.83069" lon="1.17636">
        <ele>317.9</ele>
        <time>2024-11-18T14:29:43Z</time>
      </trkpt>
      <trkpt lat="45.83068" lon="1.17654">
        <ele>317.8</ele>
        <time>2024-11-18T14:29:46Z</time>
      </trkpt>
      <trkpt lat="45.83068" lon="1.17673">
        <ele>317.8</ele>
        <time>2024-11-18T14:29:49Z</time>
      </trkpt>
      <trkpt lat="45.83068" lon="1.17693">
        <ele>317.7</ele>
        <time>2024-11-18T14:29:52Z</time>
      </trkpt>
      <trkpt lat="45.83064" lon="1.17715">
        <ele>317.8</ele>
        <time>2024-11-18T14:29:55Z</time>
      </trkpt>
      <trkpt lat="45.83063" lon="1.17735">
        <ele>317.8</ele>
        <time>2024-11-18T14:29:58Z</time>
      </trkpt>
      <trkpt lat="45.83065" lon="1.17755">
        <ele>317.7</ele>
        <time>2024-11-18T14:30:01Z</time>
      </trkpt>
      <trkpt lat="45.83066" lon="1.17777">
        <ele>317.7</ele>
        <time>2024-11-18T14:30:04Z</time>
      </trkpt>
      <trkpt lat="45.83066" lon="1.17795">
        <ele>317.8</ele>
        <time>2024-11-18T14:30:07Z</time>
      </trkpt>
      <trkpt lat="45.83065" lon="1.17814">
        <ele>318.5</ele>
        <time>2024-11-18T14:30:10Z</time>
      </trkpt>
      <trkpt lat="45.83061" lon="1.17831">
        <ele>319.3</ele>
        <time>2024-11-18T14:30:13Z</time>
      </trkpt>
      <trkpt lat="45.83061" lon="1.17845">
        <ele>320</ele>
        <time>2024-11-18T14:30:16Z</time>
      </trkpt>
      <trkpt lat="45.8306" lon="1.17859">
        <ele>320.5</ele>
        <time>2024-11-18T14:30:19Z</time>
      </trkpt>
      <trkpt lat="45.83059" lon="1.17874">
        <ele>321</ele>
        <time>2024-11-18T14:30:22Z</time>
      </trkpt>
      <trkpt lat="45.83058" lon="1.17889">
        <ele>321.4</ele>
        <time>2024-11-18T14:30:25Z</time>
      </trkpt>
      <trkpt lat="45.83056" lon="1.17905">
        <ele>321.7</ele>
        <time>2024-11-18T14:30:28Z</time>
      </trkpt>
      <trkpt lat="45.83052" lon="1.1791">
        <ele>321.8</ele>
        <time>2024-11-18T14:30:31Z</time>
      </trkpt>
      <trkpt lat="45.83043" lon="1.17907">
        <ele>321.9</ele>
        <time>2024-11-18T14:30:34Z</time>
      </trkpt>
      <trkpt lat="45.83031" lon="1.17902">
        <ele>322</ele>
        <time>2024-11-18T14:30:37Z</time>
      </trkpt>
      <trkpt lat="45.83019" lon="1.17897">
        <ele>321.9</ele>
        <time>2024-11-18T14:30:40Z</time>
      </trkpt>
      <trkpt lat="45.83007" lon="1.17892">
        <ele>321.7</ele>
        <time>2024-11-18T14:30:43Z</time>
      </trkpt>
      <trkpt lat="45.82995" lon="1.17891">
        <ele>321.5</ele>
        <time>2024-11-18T14:30:46Z</time>
      </trkpt>
      <trkpt lat="45.82979" lon="1.17886">
        <ele>321.4</ele>
        <time>2024-11-18T14:30:49Z</time>
      </trkpt>
      <trkpt lat="45.82965" lon="1.17879">
        <ele>321.6</ele>
        <time>2024-11-18T14:30:52Z</time>
      </trkpt>
      <trkpt lat="45.82952" lon="1.17873">
        <ele>321.8</ele>
        <time>2024-11-18T14:30:55Z</time>
      </trkpt>
      <trkpt lat="45.82939" lon="1.17869">
        <ele>322.1</ele>
        <time>2024-11-18T14:30:58Z</time>
      </trkpt>
      <trkpt lat="45.82928" lon="1.17864">
        <ele>322.4</ele>
        <time>2024-11-18T14:31:01Z</time>
      </trkpt>
      <trkpt lat="45.82916" lon="1.17859">
        <ele>322.7</ele>
        <time>2024-11-18T14:31:04Z</time>
      </trkpt>
      <trkpt lat="45.82904" lon="1.17854">
        <ele>323.1</ele>
        <time>2024-11-18T14:31:07Z</time>
      </trkpt>
      <trkpt lat="45.82892" lon="1.1785">
        <ele>323.4</ele>
        <time>2024-11-18T14:31:10Z</time>
      </trkpt>
      <trkpt lat="45.82885" lon="1.1785">
        <ele>323.7</ele>
        <time>2024-11-18T14:31:13Z</time>
      </trkpt>
      <trkpt lat="45.82881" lon="1.17859">
        <ele>323.9</ele>
        <time>2024-11-18T14:31:16Z</time>
      </trkpt>
      <trkpt lat="45.8288" lon="1.17874">
        <ele>324.2</ele>
        <time>2024-11-18T14:31:19Z</time>
      </trkpt>
      <trkpt lat="45.82878" lon="1.1789">
        <ele>324.4</ele>
        <time>2024-11-18T14:31:22Z</time>
      </trkpt>
      <trkpt lat="45.82874" lon="1.17906">
        <ele>324.7</ele>
        <time>2024-11-18T14:31:25Z</time>
      </trkpt>
      <trkpt lat="45.82872" lon="1.17923">
        <ele>325</ele>
        <time>2024-11-18T14:31:28Z</time>
      </trkpt>
      <trkpt lat="45.82869" lon="1.17938">
        <ele>325.4</ele>
        <time>2024-11-18T14:31:31Z</time>
      </trkpt>
      <trkpt lat="45.82865" lon="1.1795">
        <ele>325.7</ele>
        <time>2024-11-18T14:31:34Z</time>
      </trkpt>
      <trkpt lat="45.82856" lon="1.17951">
        <ele>326.1</ele>
        <time>2024-11-18T14:31:37Z</time>
      </trkpt>
      <trkpt lat="45.82844" lon="1.17947">
        <ele>326.5</ele>
        <time>2024-11-18T14:31:40Z</time>
      </trkpt>
      <trkpt lat="45.82833" lon="1.17944">
        <ele>326.9</ele>
        <time>2024-11-18T14:31:43Z</time>
      </trkpt>
      <trkpt lat="45.82821" lon="1.1794">
        <ele>327.4</ele>
        <time>2024-11-18T14:31:46Z</time>
      </trkpt>
      <trkpt lat="45.82811" lon="1.17937">
        <ele>327.8</ele>
        <time>2024-11-18T14:31:49Z</time>
      </trkpt>
      <trkpt lat="45.82801" lon="1.17931">
        <ele>328.2</ele>
        <time>2024-11-18T14:31:52Z</time>
      </trkpt>
      <trkpt lat="45.82792" lon="1.17926">
        <ele>328.6</ele>
        <time>2024-11-18T14:31:55Z</time>
      </trkpt>
      <trkpt lat="45.82781" lon="1.17919">
        <ele>329.1</ele>
        <time>2024-11-18T14:31:58Z</time>
      </trkpt>
      <trkpt lat="45.82771" lon="1.17915">
        <ele>329.6</ele>
        <time>2024-11-18T14:32:01Z</time>
      </trkpt>
      <trkpt lat="45.82761" lon="1.1791">
        <ele>330.1</ele>
        <time>2024-11-18T14:32:04Z</time>
      </trkpt>
      <trkpt lat="45.82751" lon="1.17906">
        <ele>330.5</ele>
        <time>2024-11-18T14:32:07Z</time>
      </trkpt>
      <trkpt lat="45.82742" lon="1.17904">
        <ele>330.9</ele>
        <time>2024-11-18T14:32:10Z</time>
      </trkpt>
      <trkpt lat="45.82736" lon="1.17902">
        <ele>331.1</ele>
        <time>2024-11-18T14:32:13Z</time>
      </trkpt>
      <trkpt lat="45.82728" lon="1.17897">
        <ele>331.2</ele>
        <time>2024-11-18T14:32:16Z</time>
      </trkpt>
      <trkpt lat="45.82721" lon="1.17892">
        <ele>331.3</ele>
        <time>2024-11-18T14:32:19Z</time>
      </trkpt>
      <trkpt lat="45.82715" lon="1.17881">
        <ele>331.4</ele>
        <time>2024-11-18T14:32:22Z</time>
      </trkpt>
      <trkpt lat="45.82711" lon="1.17872">
        <ele>331.5</ele>
        <time>2024-11-18T14:32:25Z</time>
      </trkpt>
      <trkpt lat="45.82704" lon="1.17867">
        <ele>331.7</ele>
        <time>2024-11-18T14:32:28Z</time>
      </trkpt>
      <trkpt lat="45.82696" lon="1.17857">
        <ele>331.9</ele>
        <time>2024-11-18T14:32:31Z</time>
      </trkpt>
      <trkpt lat="45.82688" lon="1.17849">
        <ele>332.2</ele>
        <time>2024-11-18T14:32:34Z</time>
      </trkpt>
      <trkpt lat="45.8268" lon="1.17841">
        <ele>332.6</ele>
        <time>2024-11-18T14:32:37Z</time>
      </trkpt>
      <trkpt lat="45.8267" lon="1.17836">
        <ele>333</ele>
        <time>2024-11-18T14:32:40Z</time>
      </trkpt>
      <trkpt lat="45.82664" lon="1.17826">
        <ele>333.3</ele>
        <time>2024-11-18T14:32:43Z</time>
      </trkpt>
      <trkpt lat="45.82655" lon="1.17818">
        <ele>333.6</ele>
        <time>2024-11-18T14:32:46Z</time>
      </trkpt>
      <trkpt lat="45.82645" lon="1.17811">
        <ele>333.9</ele>
        <time>2024-11-18T14:32:49Z</time>
      </trkpt>
      <trkpt lat="45.82638" lon="1.17805">
        <ele>334.2</ele>
        <time>2024-11-18T14:32:52Z</time>
      </trkpt>
      <trkpt lat="45.8263" lon="1.17802">
        <ele>334.4</ele>
        <time>2024-11-18T14:32:55Z</time>
      </trkpt>
      <trkpt lat="45.8262" lon="1.17803">
        <ele>334.7</ele>
        <time>2024-11-18T14:32:58Z</time>
      </trkpt>
      <trkpt lat="45.82613" lon="1.17799">
        <ele>334.9</ele>
        <time>2024-11-18T14:33:01Z</time>
      </trkpt>
      <trkpt lat="45.82604" lon="1.17796">
        <ele>335</ele>
        <time>2024-11-18T14:33:04Z</time>
      </trkpt>
      <trkpt lat="45.82592" lon="1.17789">
        <ele>335.1</ele>
        <time>2024-11-18T14:33:07Z</time>
      </trkpt>
      <trkpt lat="45.82582" lon="1.17788">
        <ele>335.1</ele>
        <time>2024-11-18T14:33:10Z</time>
      </trkpt>
      <trkpt lat="45.82576" lon="1.17778">
        <ele>335.1</ele>
        <time>2024-11-18T14:33:13Z</time>
      </trkpt>
      <trkpt lat="45.82574" lon="1.17764">
        <ele>335</ele>
        <time>2024-11-18T14:33:16Z</time>
      </trkpt>
      <trkpt lat="45.82568" lon="1.17752">
        <ele>334.8</ele>
        <time>2024-11-18T14:33:19Z</time>
      </trkpt>
      <trkpt lat="45.82559" lon="1.17741">
        <ele>334.6</ele>
        <time>2024-11-18T14:33:22Z</time>
      </trkpt>
      <trkpt lat="45.82553" lon="1.17733">
        <ele>334.5</ele>
        <time>2024-11-18T14:33:25Z</time>
      </trkpt>
      <trkpt lat="45.82544" lon="1.1773">
        <ele>334.3</ele>
        <time>2024-11-18T14:33:28Z</time>
      </trkpt>
      <trkpt lat="45.82536" lon="1.17726">
        <ele>334.2</ele>
        <time>2024-11-18T14:33:31Z</time>
      </trkpt>
      <trkpt lat="45.82526" lon="1.1772">
        <ele>334.1</ele>
        <time>2024-11-18T14:33:34Z</time>
      </trkpt>
      <trkpt lat="45.82517" lon="1.17711">
        <ele>333.9</ele>
        <time>2024-11-18T14:33:37Z</time>
      </trkpt>
      <trkpt lat="45.8251" lon="1.17701">
        <ele>333.8</ele>
        <time>2024-11-18T14:33:40Z</time>
      </trkpt>
      <trkpt lat="45.82501" lon="1.17693">
        <ele>333.7</ele>
        <time>2024-11-18T14:33:43Z</time>
      </trkpt>
      <trkpt lat="45.82494" lon="1.17689">
        <ele>333.5</ele>
        <time>2024-11-18T14:33:46Z</time>
      </trkpt>
      <trkpt lat="45.82494" lon="1.17689">
        <ele>333.5</ele>
        <time>2024-11-18T14:33:49Z</time>
      </trkpt>
      <trkpt lat="45.82492" lon="1.17688">
        <ele>333.5</ele>
        <time>2024-11-18T14:33:52Z</time>
      </trkpt>
      <trkpt lat="45.82493" lon="1.17687">
        <ele>333.5</ele>
        <time>2024-11-18T14:33:55Z</time>
      </trkpt>
      <trkpt lat="45.82489" lon="1.17686">
        <ele>333.4</ele>
        <time>2024-11-18T14:33:58Z</time>
      </trkpt>
      <trkpt lat="45.82482" lon="1.17681">
        <ele>333.3</ele>
        <time>2024-11-18T14:34:01Z</time>
      </trkpt>
      <trkpt lat="45.82473" lon="1.17677">
        <ele>333.2</ele>
        <time>2024-11-18T14:34:04Z</time>
      </trkpt>
      <trkpt lat="45.82463" lon="1.17673">
        <ele>333</ele>
        <time>2024-11-18T14:34:07Z</time>
      </trkpt>
      <trkpt lat="45.82454" lon="1.17674">
        <ele>332.9</ele>
        <time>2024-11-18T14:34:10Z</time>
      </trkpt>
      <trkpt lat="45.82449" lon="1.17664">
        <ele>332.6</ele>
        <time>2024-11-18T14:34:13Z</time>
      </trkpt>
      <trkpt lat="45.82442" lon="1.17651">
        <ele>332.2</ele>
        <time>2024-11-18T14:34:16Z</time>
      </trkpt>
      <trkpt lat="45.82438" lon="1.17638">
        <ele>331.7</ele>
        <time>2024-11-18T14:34:19Z</time>
      </trkpt>
      <trkpt lat="45.82433" lon="1.17624">
        <ele>331.2</ele>
        <time>2024-11-18T14:34:22Z</time>
      </trkpt>
      <trkpt lat="45.82427" lon="1.17614">
        <ele>330.7</ele>
        <time>2024-11-18T14:34:25Z</time>
      </trkpt>
      <trkpt lat="45.82421" lon="1.1761">
        <ele>330.3</ele>
        <time>2024-11-18T14:34:28Z</time>
      </trkpt>
      <trkpt lat="45.82419" lon="1.17607">
        <ele>330.2</ele>
        <time>2024-11-18T14:34:31Z</time>
      </trkpt>
      <trkpt lat="45.82419" lon="1.17601">
        <ele>330</ele>
        <time>2024-11-18T14:34:34Z</time>
      </trkpt>
      <trkpt lat="45.82416" lon="1.17589">
        <ele>329.5</ele>
        <time>2024-11-18T14:34:37Z</time>
      </trkpt>
      <trkpt lat="45.82409" lon="1.17583">
        <ele>329.3</ele>
        <time>2024-11-18T14:34:40Z</time>
      </trkpt>
      <trkpt lat="45.82404" lon="1.17579">
        <ele>329.2</ele>
        <time>2024-11-18T14:34:43Z</time>
      </trkpt>
      <trkpt lat="45.82395" lon="1.17571">
        <ele>328.8</ele>
        <time>2024-11-18T14:34:46Z</time>
      </trkpt>
      <trkpt lat="45.82386" lon="1.17556">
        <ele>328.3</ele>
        <time>2024-11-18T14:34:49Z</time>
      </trkpt>
      <trkpt lat="45.82381" lon="1.17548">
        <ele>328.1</ele>
        <time>2024-11-18T14:34:52Z</time>
      </trkpt>
      <trkpt lat="45.8238" lon="1.17543">
        <ele>328</ele>
        <time>2024-11-18T14:34:55Z</time>
      </trkpt>
      <trkpt lat="45.8238" lon="1.17536">
        <ele>327.8</ele>
        <time>2024-11-18T14:34:58Z</time>
      </trkpt>
      <trkpt lat="45.8238" lon="1.17522">
        <ele>327.6</ele>
        <time>2024-11-18T14:35:01Z</time>
      </trkpt>
      <trkpt lat="45.82386" lon="1.1751">
        <ele>327.3</ele>
        <time>2024-11-18T14:35:04Z</time>
      </trkpt>
      <trkpt lat="45.8239" lon="1.17496">
        <ele>327</ele>
        <time>2024-11-18T14:35:07Z</time>
      </trkpt>
      <trkpt lat="45.82395" lon="1.17482">
        <ele>326.7</ele>
        <time>2024-11-18T14:35:10Z</time>
      </trkpt>
      <trkpt lat="45.82399" lon="1.1747">
        <ele>326.4</ele>
        <time>2024-11-18T14:35:13Z</time>
      </trkpt>
      <trkpt lat="45.82403" lon="1.17459">
        <ele>326.1</ele>
        <time>2024-11-18T14:35:16Z</time>
      </trkpt>
      <trkpt lat="45.82407" lon="1.17441">
        <ele>325.5</ele>
        <time>2024-11-18T14:35:19Z</time>
      </trkpt>
      <trkpt lat="45.82408" lon="1.17425">
        <ele>325.1</ele>
        <time>2024-11-18T14:35:22Z</time>
      </trkpt>
      <trkpt lat="45.82407" lon="1.1741">
        <ele>324.8</ele>
        <time>2024-11-18T14:35:25Z</time>
      </trkpt>
      <trkpt lat="45.82407" lon="1.17398">
        <ele>324.5</ele>
        <time>2024-11-18T14:35:28Z</time>
      </trkpt>
      <trkpt lat="45.82409" lon="1.1739">
        <ele>324.3</ele>
        <time>2024-11-18T14:35:31Z</time>
      </trkpt>
      <trkpt lat="45.82414" lon="1.17384">
        <ele>324.2</ele>
        <time>2024-11-18T14:35:34Z</time>
      </trkpt>
      <trkpt lat="45.82419" lon="1.17389">
        <ele>324.3</ele>
        <time>2024-11-18T14:35:37Z</time>
      </trkpt>
      <trkpt lat="45.82424" lon="1.17396">
        <ele>324.4</ele>
        <time>2024-11-18T14:35:40Z</time>
      </trkpt>
      <trkpt lat="45.82434" lon="1.17403">
        <ele>324.6</ele>
        <time>2024-11-18T14:35:43Z</time>
      </trkpt>
      <trkpt lat="45.82447" lon="1.17413">
        <ele>324.8</ele>
        <time>2024-11-18T14:35:46Z</time>
      </trkpt>
      <trkpt lat="45.82459" lon="1.17419">
        <ele>325.1</ele>
        <time>2024-11-18T14:35:49Z</time>
      </trkpt>
      <trkpt lat="45.8247" lon="1.17429">
        <ele>325.4</ele>
        <time>2024-11-18T14:35:52Z</time>
      </trkpt>
      <trkpt lat="45.82481" lon="1.17438">
        <ele>325.8</ele>
        <time>2024-11-18T14:35:55Z</time>
      </trkpt>
      <trkpt lat="45.82492" lon="1.17446">
        <ele>326.2</ele>
        <time>2024-11-18T14:35:58Z</time>
      </trkpt>
      <trkpt lat="45.82501" lon="1.17453">
        <ele>326.5</ele>
        <time>2024-11-18T14:36:01Z</time>
      </trkpt>
      <trkpt lat="45.8251" lon="1.17463">
        <ele>326.9</ele>
        <time>2024-11-18T14:36:04Z</time>
      </trkpt>
      <trkpt lat="45.82519" lon="1.17471">
        <ele>327.3</ele>
        <time>2024-11-18T14:36:07Z</time>
      </trkpt>
      <trkpt lat="45.82528" lon="1.17481">
        <ele>327.7</ele>
        <time>2024-11-18T14:36:10Z</time>
      </trkpt>
      <trkpt lat="45.82536" lon="1.17491">
        <ele>328.1</ele>
        <time>2024-11-18T14:36:13Z</time>
      </trkpt>
      <trkpt lat="45.82544" lon="1.175">
        <ele>328.4</ele>
        <time>2024-11-18T14:36:16Z</time>
      </trkpt>
      <trkpt lat="45.82552" lon="1.17512">
        <ele>328.6</ele>
        <time>2024-11-18T14:36:19Z</time>
      </trkpt>
      <trkpt lat="45.82563" lon="1.17523">
        <ele>328.8</ele>
        <time>2024-11-18T14:36:22Z</time>
      </trkpt>
      <trkpt lat="45.82574" lon="1.17536">
        <ele>329</ele>
        <time>2024-11-18T14:36:25Z</time>
      </trkpt>
      <trkpt lat="45.82584" lon="1.17547">
        <ele>329.1</ele>
        <time>2024-11-18T14:36:28Z</time>
      </trkpt>
      <trkpt lat="45.82594" lon="1.17562">
        <ele>329</ele>
        <time>2024-11-18T14:36:31Z</time>
      </trkpt>
      <trkpt lat="45.82607" lon="1.17575">
        <ele>329</ele>
        <time>2024-11-18T14:36:34Z</time>
      </trkpt>
      <trkpt lat="45.8262" lon="1.17588">
        <ele>328.9</ele>
        <time>2024-11-18T14:36:37Z</time>
      </trkpt>
      <trkpt lat="45.82632" lon="1.17601">
        <ele>328.8</ele>
        <time>2024-11-18T14:36:40Z</time>
      </trkpt>
      <trkpt lat="45.82645" lon="1.17616">
        <ele>328.7</ele>
        <time>2024-11-18T14:36:43Z</time>
      </trkpt>
      <trkpt lat="45.82658" lon="1.17628">
        <ele>328.6</ele>
        <time>2024-11-18T14:36:46Z</time>
      </trkpt>
      <trkpt lat="45.82672" lon="1.17638">
        <ele>328.5</ele>
        <time>2024-11-18T14:36:49Z</time>
      </trkpt>
      <trkpt lat="45.82686" lon="1.17651">
        <ele>328.4</ele>
        <time>2024-11-18T14:36:52Z</time>
      </trkpt>
      <trkpt lat="45.827" lon="1.17664">
        <ele>328.4</ele>
        <time>2024-11-18T14:36:55Z</time>
      </trkpt>
      <trkpt lat="45.82712" lon="1.17677">
        <ele>328.4</ele>
        <time>2024-11-18T14:36:58Z</time>
      </trkpt>
      <trkpt lat="45.82724" lon="1.17688">
        <ele>328.5</ele>
        <time>2024-11-18T14:37:01Z</time>
      </trkpt>
      <trkpt lat="45.82736" lon="1.17699">
        <ele>328.6</ele>
        <time>2024-11-18T14:37:04Z</time>
      </trkpt>
      <trkpt lat="45.82748" lon="1.1771">
        <ele>328.5</ele>
        <time>2024-11-18T14:37:07Z</time>
      </trkpt>
      <trkpt lat="45.82762" lon="1.17719">
        <ele>328.3</ele>
        <time>2024-11-18T14:37:10Z</time>
      </trkpt>
      <trkpt lat="45.82778" lon="1.17732">
        <ele>327.8</ele>
        <time>2024-11-18T14:37:13Z</time>
      </trkpt>
      <trkpt lat="45.82794" lon="1.17744">
        <ele>327.2</ele>
        <time>2024-11-18T14:37:16Z</time>
      </trkpt>
      <trkpt lat="45.8281" lon="1.17756">
        <ele>326.6</ele>
        <time>2024-11-18T14:37:19Z</time>
      </trkpt>
      <trkpt lat="45.82826" lon="1.17767">
        <ele>325.9</ele>
        <time>2024-11-18T14:37:22Z</time>
      </trkpt>
      <trkpt lat="45.8284" lon="1.17776">
        <ele>325.3</ele>
        <time>2024-11-18T14:37:25Z</time>
      </trkpt>
      <trkpt lat="45.82857" lon="1.17785">
        <ele>324.6</ele>
        <time>2024-11-18T14:37:28Z</time>
      </trkpt>
      <trkpt lat="45.82876" lon="1.17793">
        <ele>323.8</ele>
        <time>2024-11-18T14:37:31Z</time>
      </trkpt>
      <trkpt lat="45.8289" lon="1.1779">
        <ele>323.2</ele>
        <time>2024-11-18T14:37:34Z</time>
      </trkpt>
      <trkpt lat="45.82895" lon="1.17773">
        <ele>323.2</ele>
        <time>2024-11-18T14:37:37Z</time>
      </trkpt>
      <trkpt lat="45.82899" lon="1.17753">
        <ele>323.2</ele>
        <time>2024-11-18T14:37:40Z</time>
      </trkpt>
      <trkpt lat="45.82903" lon="1.17731">
        <ele>323.3</ele>
        <time>2024-11-18T14:37:43Z</time>
      </trkpt>
      <trkpt lat="45.82907" lon="1.17711">
        <ele>323.6</ele>
        <time>2024-11-18T14:37:46Z</time>
      </trkpt>
      <trkpt lat="45.82911" lon="1.17693">
        <ele>323.8</ele>
        <time>2024-11-18T14:37:49Z</time>
      </trkpt>
      <trkpt lat="45.82916" lon="1.17673">
        <ele>324</ele>
        <time>2024-11-18T14:37:52Z</time>
      </trkpt>
      <trkpt lat="45.82919" lon="1.17653">
        <ele>324</ele>
        <time>2024-11-18T14:37:55Z</time>
      </trkpt>
      <trkpt lat="45.82922" lon="1.17629">
        <ele>323.7</ele>
        <time>2024-11-18T14:37:58Z</time>
      </trkpt>
      <trkpt lat="45.82927" lon="1.17606">
        <ele>323.2</ele>
        <time>2024-11-18T14:38:01Z</time>
      </trkpt>
      <trkpt lat="45.82931" lon="1.17582">
        <ele>322.7</ele>
        <time>2024-11-18T14:38:04Z</time>
      </trkpt>
      <trkpt lat="45.82935" lon="1.17561">
        <ele>322.2</ele>
        <time>2024-11-18T14:38:07Z</time>
      </trkpt>
      <trkpt lat="45.82943" lon="1.17538">
        <ele>321.5</ele>
        <time>2024-11-18T14:38:10Z</time>
      </trkpt>
      <trkpt lat="45.82947" lon="1.17514">
        <ele>320.7</ele>
        <time>2024-11-18T14:38:13Z</time>
      </trkpt>
      <trkpt lat="45.8295" lon="1.17484">
        <ele>319.9</ele>
        <time>2024-11-18T14:38:16Z</time>
      </trkpt>
      <trkpt lat="45.82957" lon="1.17457">
        <ele>319.2</ele>
        <time>2024-11-18T14:38:19Z</time>
      </trkpt>
      <trkpt lat="45.82961" lon="1.17432">
        <ele>318.8</ele>
        <time>2024-11-18T14:38:22Z</time>
      </trkpt>
      <trkpt lat="45.82965" lon="1.1741">
        <ele>318.4</ele>
        <time>2024-11-18T14:38:25Z</time>
      </trkpt>
      <trkpt lat="45.82968" lon="1.17385">
        <ele>318.1</ele>
        <time>2024-11-18T14:38:28Z</time>
      </trkpt>
      <trkpt lat="45.82975" lon="1.17359">
        <ele>317.7</ele>
        <time>2024-11-18T14:38:31Z</time>
      </trkpt>
      <trkpt lat="45.82979" lon="1.17337">
        <ele>317.4</ele>
        <time>2024-11-18T14:38:34Z</time>
      </trkpt>
      <trkpt lat="45.8298" lon="1.1732">
        <ele>317.2</ele>
        <time>2024-11-18T14:38:37Z</time>
      </trkpt>
      <trkpt lat="45.82977" lon="1.17307">
        <ele>317</ele>
        <time>2024-11-18T14:38:40Z</time>
      </trkpt>
      <trkpt lat="45.82963" lon="1.17299">
        <ele>317</ele>
        <time>2024-11-18T14:38:43Z</time>
      </trkpt>
      <trkpt lat="45.82946" lon="1.17296">
        <ele>317.2</ele>
        <time>2024-11-18T14:38:46Z</time>
      </trkpt>
      <trkpt lat="45.82931" lon="1.17293">
        <ele>317.4</ele>
        <time>2024-11-18T14:38:49Z</time>
      </trkpt>
      <trkpt lat="45.82917" lon="1.17288">
        <ele>317.4</ele>
        <time>2024-11-18T14:38:52Z</time>
      </trkpt>
      <trkpt lat="45.82901" lon="1.17284">
        <ele>317.4</ele>
        <time>2024-11-18T14:38:55Z</time>
      </trkpt>
      <trkpt lat="45.82884" lon="1.1728">
        <ele>317.1</ele>
        <time>2024-11-18T14:38:58Z</time>
      </trkpt>
      <trkpt lat="45.82868" lon="1.17277">
        <ele>316.5</ele>
        <time>2024-11-18T14:39:01Z</time>
      </trkpt>
      <trkpt lat="45.82853" lon="1.17277">
        <ele>316.4</ele>
        <time>2024-11-18T14:39:04Z</time>
      </trkpt>
      <trkpt lat="45.82839" lon="1.17279">
        <ele>316.7</ele>
        <time>2024-11-18T14:39:07Z</time>
      </trkpt>
      <trkpt lat="45.82826" lon="1.17284">
        <ele>317.3</ele>
        <time>2024-11-18T14:39:10Z</time>
      </trkpt>
      <trkpt lat="45.82821" lon="1.1728">
        <ele>317.5</ele>
        <time>2024-11-18T14:39:13Z</time>
      </trkpt>
      <trkpt lat="45.8282" lon="1.17273">
        <ele>317.7</ele>
        <time>2024-11-18T14:39:16Z</time>
      </trkpt>
      <trkpt lat="45.82823" lon="1.17262">
        <ele>317.6</ele>
        <time>2024-11-18T14:39:19Z</time>
      </trkpt>
      <trkpt lat="45.82827" lon="1.17244">
        <ele>317.3</ele>
        <time>2024-11-18T14:39:22Z</time>
      </trkpt>
      <trkpt lat="45.8283" lon="1.17223">
        <ele>317.1</ele>
        <time>2024-11-18T14:39:25Z</time>
      </trkpt>
      <trkpt lat="45.82833" lon="1.17203">
        <ele>316.7</ele>
        <time>2024-11-18T14:39:28Z</time>
      </trkpt>
      <trkpt lat="45.82837" lon="1.17182">
        <ele>316</ele>
        <time>2024-11-18T14:39:31Z</time>
      </trkpt>
      <trkpt lat="45.82841" lon="1.17155">
        <ele>314.7</ele>
        <time>2024-11-18T14:39:34Z</time>
      </trkpt>
      <trkpt lat="45.82845" lon="1.17126">
        <ele>313.3</ele>
        <time>2024-11-18T14:39:37Z</time>
      </trkpt>
      <trkpt lat="45.82851" lon="1.17097">
        <ele>311.7</ele>
        <time>2024-11-18T14:39:40Z</time>
      </trkpt>
      <trkpt lat="45.82857" lon="1.17064">
        <ele>310.1</ele>
        <time>2024-11-18T14:39:43Z</time>
      </trkpt>
      <trkpt lat="45.82863" lon="1.17034">
        <ele>310.4</ele>
        <time>2024-11-18T14:39:46Z</time>
      </trkpt>
      <trkpt lat="45.82869" lon="1.17009">
        <ele>311.6</ele>
        <time>2024-11-18T14:39:49Z</time>
      </trkpt>
      <trkpt lat="45.82872" lon="1.1699">
        <ele>312.3</ele>
        <time>2024-11-18T14:39:52Z</time>
      </trkpt>
      <trkpt lat="45.82875" lon="1.1697">
        <ele>312.6</ele>
        <time>2024-11-18T14:39:55Z</time>
      </trkpt>
      <trkpt lat="45.8288" lon="1.16951">
        <ele>312.7</ele>
        <time>2024-11-18T14:39:58Z</time>
      </trkpt>
      <trkpt lat="45.82884" lon="1.1693">
        <ele>312.6</ele>
        <time>2024-11-18T14:40:01Z</time>
      </trkpt>
      <trkpt lat="45.82888" lon="1.16906">
        <ele>312.4</ele>
        <time>2024-11-18T14:40:04Z</time>
      </trkpt>
      <trkpt lat="45.82891" lon="1.16886">
        <ele>312.1</ele>
        <time>2024-11-18T14:40:07Z</time>
      </trkpt>
      <trkpt lat="45.82889" lon="1.1687">
        <ele>312.4</ele>
        <time>2024-11-18T14:40:10Z</time>
      </trkpt>
      <trkpt lat="45.82878" lon="1.16863">
        <ele>312.9</ele>
        <time>2024-11-18T14:40:13Z</time>
      </trkpt>
      <trkpt lat="45.82865" lon="1.16856">
        <ele>313.4</ele>
        <time>2024-11-18T14:40:16Z</time>
      </trkpt>
      <trkpt lat="45.82853" lon="1.16858">
        <ele>313.8</ele>
        <time>2024-11-18T14:40:19Z</time>
      </trkpt>
      <trkpt lat="45.82839" lon="1.16855">
        <ele>313.6</ele>
        <time>2024-11-18T14:40:22Z</time>
      </trkpt>
      <trkpt lat="45.8283" lon="1.1684">
        <ele>312.4</ele>
        <time>2024-11-18T14:40:25Z</time>
      </trkpt>
      <trkpt lat="45.82829" lon="1.16821">
        <ele>310.7</ele>
        <time>2024-11-18T14:40:28Z</time>
      </trkpt>
      <trkpt lat="45.82825" lon="1.16805">
        <ele>309.8</ele>
        <time>2024-11-18T14:40:31Z</time>
      </trkpt>
      <trkpt lat="45.82814" lon="1.16803">
        <ele>309.7</ele>
        <time>2024-11-18T14:40:34Z</time>
      </trkpt>
      <trkpt lat="45.82797" lon="1.168">
        <ele>309.1</ele>
        <time>2024-11-18T14:40:37Z</time>
      </trkpt>
      <trkpt lat="45.82779" lon="1.16795">
        <ele>308.3</ele>
        <time>2024-11-18T14:40:40Z</time>
      </trkpt>
      <trkpt lat="45.8276" lon="1.16786">
        <ele>308</ele>
        <time>2024-11-18T14:40:43Z</time>
      </trkpt>
      <trkpt lat="45.82744" lon="1.16779">
        <ele>308.1</ele>
        <time>2024-11-18T14:40:46Z</time>
      </trkpt>
      <trkpt lat="45.82729" lon="1.16783">
        <ele>308.6</ele>
        <time>2024-11-18T14:40:49Z</time>
      </trkpt>
      <trkpt lat="45.82716" lon="1.16783">
        <ele>308.8</ele>
        <time>2024-11-18T14:40:52Z</time>
      </trkpt>
      <trkpt lat="45.827" lon="1.16777">
        <ele>308.6</ele>
        <time>2024-11-18T14:40:55Z</time>
      </trkpt>
      <trkpt lat="45.82685" lon="1.16776">
        <ele>308.6</ele>
        <time>2024-11-18T14:40:58Z</time>
      </trkpt>
      <trkpt lat="45.82671" lon="1.16783">
        <ele>309.1</ele>
        <time>2024-11-18T14:41:01Z</time>
      </trkpt>
      <trkpt lat="45.82663" lon="1.16799">
        <ele>309.9</ele>
        <time>2024-11-18T14:41:04Z</time>
      </trkpt>
      <trkpt lat="45.82662" lon="1.16817">
        <ele>310.8</ele>
        <time>2024-11-18T14:41:07Z</time>
      </trkpt>
      <trkpt lat="45.82661" lon="1.16829">
        <ele>311.5</ele>
        <time>2024-11-18T14:41:10Z</time>
      </trkpt>
      <trkpt lat="45.8266" lon="1.16844">
        <ele>312.3</ele>
        <time>2024-11-18T14:41:13Z</time>
      </trkpt>
      <trkpt lat="45.82657" lon="1.1686">
        <ele>313</ele>
        <time>2024-11-18T14:41:16Z</time>
      </trkpt>
      <trkpt lat="45.82655" lon="1.16878">
        <ele>313.6</ele>
        <time>2024-11-18T14:41:19Z</time>
      </trkpt>
      <trkpt lat="45.82653" lon="1.16893">
        <ele>314.1</ele>
        <time>2024-11-18T14:41:22Z</time>
      </trkpt>
      <trkpt lat="45.8265" lon="1.16903">
        <ele>314.5</ele>
        <time>2024-11-18T14:41:25Z</time>
      </trkpt>
      <trkpt lat="45.82648" lon="1.16922">
        <ele>315.1</ele>
        <time>2024-11-18T14:41:28Z</time>
      </trkpt>
      <trkpt lat="45.82645" lon="1.16941">
        <ele>315.7</ele>
        <time>2024-11-18T14:41:31Z</time>
      </trkpt>
      <trkpt lat="45.82644" lon="1.16959">
        <ele>316.3</ele>
        <time>2024-11-18T14:41:34Z</time>
      </trkpt>
      <trkpt lat="45.82643" lon="1.16976">
        <ele>316.8</ele>
        <time>2024-11-18T14:41:37Z</time>
      </trkpt>
      <trkpt lat="45.8264" lon="1.16992">
        <ele>317.4</ele>
        <time>2024-11-18T14:41:40Z</time>
      </trkpt>
      <trkpt lat="45.82638" lon="1.17008">
        <ele>317.9</ele>
        <time>2024-11-18T14:41:43Z</time>
      </trkpt>
      <trkpt lat="45.82638" lon="1.17022">
        <ele>318.4</ele>
        <time>2024-11-18T14:41:46Z</time>
      </trkpt>
      <trkpt lat="45.82635" lon="1.17036">
        <ele>319</ele>
        <time>2024-11-18T14:41:49Z</time>
      </trkpt>
      <trkpt lat="45.8263" lon="1.1705">
        <ele>319.5</ele>
        <time>2024-11-18T14:41:52Z</time>
      </trkpt>
      <trkpt lat="45.82624" lon="1.17067">
        <ele>320.2</ele>
        <time>2024-11-18T14:41:55Z</time>
      </trkpt>
      <trkpt lat="45.82621" lon="1.17081">
        <ele>320.7</ele>
        <time>2024-11-18T14:41:58Z</time>
      </trkpt>
      <trkpt lat="45.82617" lon="1.17098">
        <ele>321.2</ele>
        <time>2024-11-18T14:42:01Z</time>
      </trkpt>
      <trkpt lat="45.82615" lon="1.17113">
        <ele>321.5</ele>
        <time>2024-11-18T14:42:04Z</time>
      </trkpt>
      <trkpt lat="45.82611" lon="1.1713">
        <ele>322</ele>
        <time>2024-11-18T14:42:07Z</time>
      </trkpt>
      <trkpt lat="45.82609" lon="1.17145">
        <ele>322.4</ele>
        <time>2024-11-18T14:42:10Z</time>
      </trkpt>
      <trkpt lat="45.82607" lon="1.17157">
        <ele>322.7</ele>
        <time>2024-11-18T14:42:13Z</time>
      </trkpt>
      <trkpt lat="45.82605" lon="1.17175">
        <ele>323.1</ele>
        <time>2024-11-18T14:42:16Z</time>
      </trkpt>
      <trkpt lat="45.82603" lon="1.1719">
        <ele>323.4</ele>
        <time>2024-11-18T14:42:19Z</time>
      </trkpt>
      <trkpt lat="45.82601" lon="1.17206">
        <ele>323.7</ele>
        <time>2024-11-18T14:42:22Z</time>
      </trkpt>
      <trkpt lat="45.82598" lon="1.17224">
        <ele>324</ele>
        <time>2024-11-18T14:42:25Z</time>
      </trkpt>
      <trkpt lat="45.82595" lon="1.17241">
        <ele>324.4</ele>
        <time>2024-11-18T14:42:28Z</time>
      </trkpt>
      <trkpt lat="45.82593" lon="1.17259">
        <ele>324.7</ele>
        <time>2024-11-18T14:42:31Z</time>
      </trkpt>
      <trkpt lat="45.82601" lon="1.17271">
        <ele>324.8</ele>
        <time>2024-11-18T14:42:34Z</time>
      </trkpt>
      <trkpt lat="45.82614" lon="1.17274">
        <ele>324.7</ele>
        <time>2024-11-18T14:42:37Z</time>
      </trkpt>
      <trkpt lat="45.82626" lon="1.17274">
        <ele>324.6</ele>
        <time>2024-11-18T14:42:40Z</time>
      </trkpt>
      <trkpt lat="45.82639" lon="1.17274">
        <ele>324.4</ele>
        <time>2024-11-18T14:42:43Z</time>
      </trkpt>
      <trkpt lat="45.82653" lon="1.17269">
        <ele>324.2</ele>
        <time>2024-11-18T14:42:46Z</time>
      </trkpt>
      <trkpt lat="45.8267" lon="1.17272">
        <ele>324</ele>
        <time>2024-11-18T14:42:49Z</time>
      </trkpt>
      <trkpt lat="45.82686" lon="1.17274">
        <ele>323.7</ele>
        <time>2024-11-18T14:42:52Z</time>
      </trkpt>
      <trkpt lat="45.82704" lon="1.17277">
        <ele>323.2</ele>
        <time>2024-11-18T14:42:55Z</time>
      </trkpt>
      <trkpt lat="45.82722" lon="1.17275">
        <ele>322.6</ele>
        <time>2024-11-18T14:42:58Z</time>
      </trkpt>
      <trkpt lat="45.82741" lon="1.17275">
        <ele>321.5</ele>
        <time>2024-11-18T14:43:01Z</time>
      </trkpt>
      <trkpt lat="45.82756" lon="1.17273">
        <ele>320.7</ele>
        <time>2024-11-18T14:43:04Z</time>
      </trkpt>
      <trkpt lat="45.82769" lon="1.17271">
        <ele>319.9</ele>
        <time>2024-11-18T14:43:07Z</time>
      </trkpt>
      <trkpt lat="45.82774" lon="1.17262">
        <ele>319.6</ele>
        <time>2024-11-18T14:43:10Z</time>
      </trkpt>
      <trkpt lat="45.82776" lon="1.17253">
        <ele>319.5</ele>
        <time>2024-11-18T14:43:13Z</time>
      </trkpt>
      <trkpt lat="45.82776" lon="1.17248">
        <ele>319.4</ele>
        <time>2024-11-18T14:43:16Z</time>
      </trkpt>
      <trkpt lat="45.82775" lon="1.17248">
        <ele>319.3</ele>
        <time>2024-11-18T14:43:19Z</time>
      </trkpt>
      <trkpt lat="45.82776" lon="1.17248">
        <ele>319.3</ele>
        <time>2024-11-18T14:43:22Z</time>
      </trkpt>
      <trkpt lat="45.82776" lon="1.17251">
        <ele>319.3</ele>
        <time>2024-11-18T14:43:25Z</time>
      </trkpt>
      <trkpt lat="45.82777" lon="1.17251">
        <ele>319.3</ele>
        <time>2024-11-18T14:43:28Z</time>
      </trkpt>
      <trkpt lat="45.82778" lon="1.17251">
        <ele>319.2</ele>
        <time>2024-11-18T14:43:31Z</time>
      </trkpt>
      <trkpt lat="45.82778" lon="1.17251">
        <ele>319.2</ele>
        <time>2024-11-18T14:43:34Z</time>
      </trkpt>
      <trkpt lat="45.82779" lon="1.17251">
        <ele>319.2</ele>
        <time>2024-11-18T14:43:37Z</time>
      </trkpt>
      <trkpt lat="45.82779" lon="1.1725">
        <ele>319.2</ele>
        <time>2024-11-18T14:43:40Z</time>
      </trkpt>
      <trkpt lat="45.82779" lon="1.17251">
        <ele>319.2</ele>
        <time>2024-11-18T14:43:43Z</time>
      </trkpt>
      <trkpt lat="45.8278" lon="1.17252">
        <ele>319.1</ele>
        <time>2024-11-18T14:43:46Z</time>
      </trkpt>
      <trkpt lat="45.8278" lon="1.17245">
        <ele>319</ele>
        <time>2024-11-18T14:43:49Z</time>
      </trkpt>
      <trkpt lat="45.82783" lon="1.17235">
        <ele>318.8</ele>
        <time>2024-11-18T14:43:52Z</time>
      </trkpt>
      <trkpt lat="45.82787" lon="1.1722">
        <ele>318.4</ele>
        <time>2024-11-18T14:43:55Z</time>
      </trkpt>
      <trkpt lat="45.82792" lon="1.17209">
        <ele>318.2</ele>
        <time>2024-11-18T14:43:58Z</time>
      </trkpt>
      <trkpt lat="45.82795" lon="1.17188">
        <ele>317.6</ele>
        <time>2024-11-18T14:44:01Z</time>
      </trkpt>
      <trkpt lat="45.82798" lon="1.17166">
        <ele>317.3</ele>
        <time>2024-11-18T14:44:04Z</time>
      </trkpt>
      <trkpt lat="45.828" lon="1.17146">
        <ele>317.3</ele>
        <time>2024-11-18T14:44:07Z</time>
      </trkpt>
      <trkpt lat="45.82804" lon="1.17126">
        <ele>317.3</ele>
        <time>2024-11-18T14:44:10Z</time>
      </trkpt>
      <trkpt lat="45.82807" lon="1.17106">
        <ele>317.3</ele>
        <time>2024-11-18T14:44:13Z</time>
      </trkpt>
      <trkpt lat="45.82811" lon="1.17085">
        <ele>317.3</ele>
        <time>2024-11-18T14:44:16Z</time>
      </trkpt>
      <trkpt lat="45.82812" lon="1.17063">
        <ele>317.4</ele>
        <time>2024-11-18T14:44:19Z</time>
      </trkpt>
      <trkpt lat="45.82813" lon="1.17041">
        <ele>317.6</ele>
        <time>2024-11-18T14:44:22Z</time>
      </trkpt>
      <trkpt lat="45.82814" lon="1.17019">
        <ele>317.7</ele>
        <time>2024-11-18T14:44:25Z</time>
      </trkpt>
      <trkpt lat="45.82818" lon="1.16997">
        <ele>317.5</ele>
        <time>2024-11-18T14:44:28Z</time>
      </trkpt>
      <trkpt lat="45.82822" lon="1.16974">
        <ele>317</ele>
        <time>2024-11-18T14:44:31Z</time>
      </trkpt>
      <trkpt lat="45.82827" lon="1.16951">
        <ele>316.2</ele>
        <time>2024-11-18T14:44:34Z</time>
      </trkpt>
      <trkpt lat="45.82837" lon="1.16925">
        <ele>315.2</ele>
        <time>2024-11-18T14:44:37Z</time>
      </trkpt>
      <trkpt lat="45.82843" lon="1.169">
        <ele>314.6</ele>
        <time>2024-11-18T14:44:40Z</time>
      </trkpt>
      <trkpt lat="45.82845" lon="1.16876">
        <ele>314.2</ele>
        <time>2024-11-18T14:44:43Z</time>
      </trkpt>
      <trkpt lat="45.82841" lon="1.16857">
        <ele>313.7</ele>
        <time>2024-11-18T14:44:46Z</time>
      </trkpt>
      <trkpt lat="45.82831" lon="1.1684">
        <ele>312.7</ele>
        <time>2024-11-18T14:44:49Z</time>
      </trkpt>
      <trkpt lat="45.82827" lon="1.16823">
        <ele>311.3</ele>
        <time>2024-11-18T14:44:52Z</time>
      </trkpt>
      <trkpt lat="45.82827" lon="1.16804">
        <ele>309.8</ele>
        <time>2024-11-18T14:44:55Z</time>
      </trkpt>
      <trkpt lat="45.82835" lon="1.16786">
        <ele>308.7</ele>
        <time>2024-11-18T14:44:58Z</time>
      </trkpt>
      <trkpt lat="45.82842" lon="1.16757">
        <ele>306.9</ele>
        <time>2024-11-18T14:45:01Z</time>
      </trkpt>
      <trkpt lat="45.82853" lon="1.16731">
        <ele>305.2</ele>
        <time>2024-11-18T14:45:04Z</time>
      </trkpt>
      <trkpt lat="45.82867" lon="1.16716">
        <ele>303.9</ele>
        <time>2024-11-18T14:45:07Z</time>
      </trkpt>
      <trkpt lat="45.82884" lon="1.16707">
        <ele>302.8</ele>
        <time>2024-11-18T14:45:10Z</time>
      </trkpt>
      <trkpt lat="45.829" lon="1.16704">
        <ele>301.8</ele>
        <time>2024-11-18T14:45:13Z</time>
      </trkpt>
      <trkpt lat="45.82916" lon="1.16701">
        <ele>301</ele>
        <time>2024-11-18T14:45:16Z</time>
      </trkpt>
      <trkpt lat="45.82932" lon="1.16703">
        <ele>300.2</ele>
        <time>2024-11-18T14:45:19Z</time>
      </trkpt>
      <trkpt lat="45.82946" lon="1.16694">
        <ele>299.3</ele>
        <time>2024-11-18T14:45:22Z</time>
      </trkpt>
      <trkpt lat="45.82957" lon="1.16675">
        <ele>297.9</ele>
        <time>2024-11-18T14:45:25Z</time>
      </trkpt>
      <trkpt lat="45.82969" lon="1.16653">
        <ele>296.1</ele>
        <time>2024-11-18T14:45:28Z</time>
      </trkpt>
      <trkpt lat="45.82978" lon="1.16635">
        <ele>294.6</ele>
        <time>2024-11-18T14:45:31Z</time>
      </trkpt>
      <trkpt lat="45.8299" lon="1.16623">
        <ele>293.4</ele>
        <time>2024-11-18T14:45:34Z</time>
      </trkpt>
      <trkpt lat="45.83002" lon="1.16616">
        <ele>292.4</ele>
        <time>2024-11-18T14:45:37Z</time>
      </trkpt>
      <trkpt lat="45.83015" lon="1.16611">
        <ele>291.7</ele>
        <time>2024-11-18T14:45:40Z</time>
      </trkpt>
      <trkpt lat="45.83026" lon="1.16613">
        <ele>291.3</ele>
        <time>2024-11-18T14:45:43Z</time>
      </trkpt>
      <trkpt lat="45.83031" lon="1.16609">
        <ele>291.2</ele>
        <time>2024-11-18T14:45:46Z</time>
      </trkpt>
      <trkpt lat="45.83026" lon="1.16602">
        <ele>291.7</ele>
        <time>2024-11-18T14:45:49Z</time>
      </trkpt>
      <trkpt lat="45.8302" lon="1.16598">
        <ele>292.2</ele>
        <time>2024-11-18T14:45:52Z</time>
      </trkpt>
      <trkpt lat="45.83014" lon="1.16605">
        <ele>293</ele>
        <time>2024-11-18T14:45:55Z</time>
      </trkpt>
      <trkpt lat="45.83013" lon="1.16619">
        <ele>293.9</ele>
        <time>2024-11-18T14:45:58Z</time>
      </trkpt>
      <trkpt lat="45.83008" lon="1.16632">
        <ele>294.9</ele>
        <time>2024-11-18T14:46:01Z</time>
      </trkpt>
      <trkpt lat="45.83004" lon="1.16642">
        <ele>295.6</ele>
        <time>2024-11-18T14:46:04Z</time>
      </trkpt>
      <trkpt lat="45.83002" lon="1.16653">
        <ele>296.4</ele>
        <time>2024-11-18T14:46:07Z</time>
      </trkpt>
      <trkpt lat="45.82997" lon="1.16665">
        <ele>297.4</ele>
        <time>2024-11-18T14:46:10Z</time>
      </trkpt>
      <trkpt lat="45.82991" lon="1.16677">
        <ele>298.3</ele>
        <time>2024-11-18T14:46:13Z</time>
      </trkpt>
      <trkpt lat="45.82984" lon="1.1669">
        <ele>299.5</ele>
        <time>2024-11-18T14:46:16Z</time>
      </trkpt>
      <trkpt lat="45.82979" lon="1.16701">
        <ele>300.3</ele>
        <time>2024-11-18T14:46:19Z</time>
      </trkpt>
      <trkpt lat="45.82975" lon="1.16711">
        <ele>301.2</ele>
        <time>2024-11-18T14:46:22Z</time>
      </trkpt>
      <trkpt lat="45.82971" lon="1.1672">
        <ele>301.9</ele>
        <time>2024-11-18T14:46:25Z</time>
      </trkpt>
      <trkpt lat="45.82967" lon="1.16729">
        <ele>302.7</ele>
        <time>2024-11-18T14:46:28Z</time>
      </trkpt>
      <trkpt lat="45.82962" lon="1.16738">
        <ele>303.6</ele>
        <time>2024-11-18T14:46:31Z</time>
      </trkpt>
      <trkpt lat="45.82958" lon="1.16745">
        <ele>304.4</ele>
        <time>2024-11-18T14:46:34Z</time>
      </trkpt>
      <trkpt lat="45.82953" lon="1.16754">
        <ele>305.2</ele>
        <time>2024-11-18T14:46:37Z</time>
      </trkpt>
      <trkpt lat="45.82951" lon="1.16763">
        <ele>306</ele>
        <time>2024-11-18T14:46:40Z</time>
      </trkpt>
      <trkpt lat="45.82948" lon="1.1677">
        <ele>306.7</ele>
        <time>2024-11-18T14:46:43Z</time>
      </trkpt>
      <trkpt lat="45.82944" lon="1.16778">
        <ele>307.5</ele>
        <time>2024-11-18T14:46:46Z</time>
      </trkpt>
      <trkpt lat="45.8294" lon="1.16785">
        <ele>308.2</ele>
        <time>2024-11-18T14:46:49Z</time>
      </trkpt>
      <trkpt lat="45.82936" lon="1.16794">
        <ele>309</ele>
        <time>2024-11-18T14:46:52Z</time>
      </trkpt>
      <trkpt lat="45.82932" lon="1.16803">
        <ele>309.7</ele>
        <time>2024-11-18T14:46:55Z</time>
      </trkpt>
      <trkpt lat="45.82927" lon="1.16813">
        <ele>310.4</ele>
        <time>2024-11-18T14:46:58Z</time>
      </trkpt>
      <trkpt lat="45.82923" lon="1.16823">
        <ele>310.9</ele>
        <time>2024-11-18T14:47:01Z</time>
      </trkpt>
      <trkpt lat="45.82918" lon="1.16832">
        <ele>311.2</ele>
        <time>2024-11-18T14:47:04Z</time>
      </trkpt>
      <trkpt lat="45.82913" lon="1.16844">
        <ele>311.6</ele>
        <time>2024-11-18T14:47:07Z</time>
      </trkpt>
      <trkpt lat="45.82907" lon="1.16856">
        <ele>311.8</ele>
        <time>2024-11-18T14:47:10Z</time>
      </trkpt>
      <trkpt lat="45.82903" lon="1.16866">
        <ele>312</ele>
        <time>2024-11-18T14:47:13Z</time>
      </trkpt>
      <trkpt lat="45.82899" lon="1.16877">
        <ele>312.2</ele>
        <time>2024-11-18T14:47:16Z</time>
      </trkpt>
      <trkpt lat="45.82895" lon="1.16892">
        <ele>312.1</ele>
        <time>2024-11-18T14:47:19Z</time>
      </trkpt>
      <trkpt lat="45.82893" lon="1.16904">
        <ele>312.3</ele>
        <time>2024-11-18T14:47:22Z</time>
      </trkpt>
      <trkpt lat="45.82891" lon="1.16917">
        <ele>312.5</ele>
        <time>2024-11-18T14:47:25Z</time>
      </trkpt>
      <trkpt lat="45.82889" lon="1.16932">
        <ele>312.6</ele>
        <time>2024-11-18T14:47:28Z</time>
      </trkpt>
      <trkpt lat="45.82885" lon="1.16945">
        <ele>312.7</ele>
        <time>2024-11-18T14:47:31Z</time>
      </trkpt>
      <trkpt lat="45.82882" lon="1.16962">
        <ele>312.7</ele>
        <time>2024-11-18T14:47:34Z</time>
      </trkpt>
      <trkpt lat="45.8288" lon="1.16979">
        <ele>312.5</ele>
        <time>2024-11-18T14:47:37Z</time>
      </trkpt>
      <trkpt lat="45.82877" lon="1.16996">
        <ele>312.2</ele>
        <time>2024-11-18T14:47:40Z</time>
      </trkpt>
      <trkpt lat="45.82872" lon="1.17021">
        <ele>311</ele>
        <time>2024-11-18T14:47:43Z</time>
      </trkpt>
      <trkpt lat="45.82868" lon="1.17048">
        <ele>310</ele>
        <time>2024-11-18T14:47:46Z</time>
      </trkpt>
      <trkpt lat="45.82862" lon="1.17071">
        <ele>310.3</ele>
        <time>2024-11-18T14:47:49Z</time>
      </trkpt>
      <trkpt lat="45.82859" lon="1.17087">
        <ele>311.1</ele>
        <time>2024-11-18T14:47:52Z</time>
      </trkpt>
      <trkpt lat="45.82859" lon="1.17104">
        <ele>312</ele>
        <time>2024-11-18T14:47:55Z</time>
      </trkpt>
      <trkpt lat="45.82857" lon="1.17118">
        <ele>312.8</ele>
        <time>2024-11-18T14:47:58Z</time>
      </trkpt>
      <trkpt lat="45.82853" lon="1.17137">
        <ele>313.7</ele>
        <time>2024-11-18T14:48:01Z</time>
      </trkpt>
      <trkpt lat="45.82848" lon="1.17152">
        <ele>314.6</ele>
        <time>2024-11-18T14:48:04Z</time>
      </trkpt>
      <trkpt lat="45.82844" lon="1.17165">
        <ele>315.3</ele>
        <time>2024-11-18T14:48:07Z</time>
      </trkpt>
      <trkpt lat="45.82841" lon="1.17178">
        <ele>315.9</ele>
        <time>2024-11-18T14:48:10Z</time>
      </trkpt>
      <trkpt lat="45.82839" lon="1.17191">
        <ele>316.4</ele>
        <time>2024-11-18T14:48:13Z</time>
      </trkpt>
      <trkpt lat="45.82837" lon="1.17207">
        <ele>316.9</ele>
        <time>2024-11-18T14:48:16Z</time>
      </trkpt>
      <trkpt lat="45.82833" lon="1.17226">
        <ele>317.1</ele>
        <time>2024-11-18T14:48:19Z</time>
      </trkpt>
      <trkpt lat="45.82831" lon="1.17247">
        <ele>317.4</ele>
        <time>2024-11-18T14:48:22Z</time>
      </trkpt>
      <trkpt lat="45.82827" lon="1.17262">
        <ele>317.6</ele>
        <time>2024-11-18T14:48:25Z</time>
      </trkpt>
      <trkpt lat="45.82834" lon="1.17266">
        <ele>317.1</ele>
        <time>2024-11-18T14:48:28Z</time>
      </trkpt>
      <trkpt lat="45.82844" lon="1.17263">
        <ele>316.7</ele>
        <time>2024-11-18T14:48:31Z</time>
      </trkpt>
      <trkpt lat="45.82856" lon="1.17262">
        <ele>316.4</ele>
        <time>2024-11-18T14:48:34Z</time>
      </trkpt>
      <trkpt lat="45.82871" lon="1.17265">
        <ele>316.4</ele>
        <time>2024-11-18T14:48:37Z</time>
      </trkpt>
      <trkpt lat="45.8288" lon="1.17267">
        <ele>316.8</ele>
        <time>2024-11-18T14:48:40Z</time>
      </trkpt>
      <trkpt lat="45.8289" lon="1.17269">
        <ele>317.2</ele>
        <time>2024-11-18T14:48:43Z</time>
      </trkpt>
      <trkpt lat="45.82902" lon="1.1727">
        <ele>317.4</ele>
        <time>2024-11-18T14:48:46Z</time>
      </trkpt>
      <trkpt lat="45.82913" lon="1.17269">
        <ele>317.5</ele>
        <time>2024-11-18T14:48:49Z</time>
      </trkpt>
      <trkpt lat="45.82925" lon="1.17269">
        <ele>317.4</ele>
        <time>2024-11-18T14:48:52Z</time>
      </trkpt>
      <trkpt lat="45.82938" lon="1.17272">
        <ele>317.3</ele>
        <time>2024-11-18T14:48:55Z</time>
      </trkpt>
      <trkpt lat="45.82951" lon="1.17274">
        <ele>317.1</ele>
        <time>2024-11-18T14:48:58Z</time>
      </trkpt>
      <trkpt lat="45.82963" lon="1.17276">
        <ele>317</ele>
        <time>2024-11-18T14:49:01Z</time>
      </trkpt>
      <trkpt lat="45.82973" lon="1.17272">
        <ele>316.9</ele>
        <time>2024-11-18T14:49:04Z</time>
      </trkpt>
      <trkpt lat="45.82977" lon="1.17257">
        <ele>316.7</ele>
        <time>2024-11-18T14:49:07Z</time>
      </trkpt>
      <trkpt lat="45.82978" lon="1.1724">
        <ele>316.5</ele>
        <time>2024-11-18T14:49:10Z</time>
      </trkpt>
      <trkpt lat="45.82981" lon="1.17224">
        <ele>316.2</ele>
        <time>2024-11-18T14:49:13Z</time>
      </trkpt>
      <trkpt lat="45.82986" lon="1.17208">
        <ele>315.9</ele>
        <time>2024-11-18T14:49:16Z</time>
      </trkpt>
      <trkpt lat="45.82991" lon="1.17188">
        <ele>315.5</ele>
        <time>2024-11-18T14:49:19Z</time>
      </trkpt>
      <trkpt lat="45.82996" lon="1.17167">
        <ele>315.2</ele>
        <time>2024-11-18T14:49:22Z</time>
      </trkpt>
      <trkpt lat="45.82998" lon="1.17147">
        <ele>315</ele>
        <time>2024-11-18T14:49:25Z</time>
      </trkpt>
      <trkpt lat="45.83004" lon="1.17125">
        <ele>314.7</ele>
        <time>2024-11-18T14:49:28Z</time>
      </trkpt>
      <trkpt lat="45.83009" lon="1.17103">
        <ele>313.8</ele>
        <time>2024-11-18T14:49:31Z</time>
      </trkpt>
      <trkpt lat="45.83017" lon="1.17085">
        <ele>312.5</ele>
        <time>2024-11-18T14:49:34Z</time>
      </trkpt>
      <trkpt lat="45.83027" lon="1.17061">
        <ele>310.6</ele>
        <time>2024-11-18T14:49:37Z</time>
      </trkpt>
      <trkpt lat="45.83039" lon="1.1703">
        <ele>308.6</ele>
        <time>2024-11-18T14:49:40Z</time>
      </trkpt>
      <trkpt lat="45.83048" lon="1.16998">
        <ele>307</ele>
        <time>2024-11-18T14:49:43Z</time>
      </trkpt>
      <trkpt lat="45.8306" lon="1.16975">
        <ele>305.4</ele>
        <time>2024-11-18T14:49:46Z</time>
      </trkpt>
      <trkpt lat="45.83071" lon="1.16947">
        <ele>303.5</ele>
        <time>2024-11-18T14:49:49Z</time>
      </trkpt>
      <trkpt lat="45.83081" lon="1.16921">
        <ele>301.8</ele>
        <time>2024-11-18T14:49:52Z</time>
      </trkpt>
      <trkpt lat="45.83091" lon="1.16896">
        <ele>300.7</ele>
        <time>2024-11-18T14:49:55Z</time>
      </trkpt>
      <trkpt lat="45.83101" lon="1.16869">
        <ele>300.3</ele>
        <time>2024-11-18T14:49:58Z</time>
      </trkpt>
      <trkpt lat="45.83107" lon="1.16843">
        <ele>299.7</ele>
        <time>2024-11-18T14:50:01Z</time>
      </trkpt>
      <trkpt lat="45.83108" lon="1.16821">
        <ele>298.6</ele>
        <time>2024-11-18T14:50:04Z</time>
      </trkpt>
      <trkpt lat="45.83108" lon="1.16802">
        <ele>297</ele>
        <time>2024-11-18T14:50:07Z</time>
      </trkpt>
      <trkpt lat="45.8311" lon="1.16779">
        <ele>294.5</ele>
        <time>2024-11-18T14:50:10Z</time>
      </trkpt>
      <trkpt lat="45.83109" lon="1.16752">
        <ele>291.1</ele>
        <time>2024-11-18T14:50:13Z</time>
      </trkpt>
      <trkpt lat="45.83114" lon="1.16745">
        <ele>291.1</ele>
        <time>2024-11-18T14:50:16Z</time>
      </trkpt>
      <trkpt lat="45.83124" lon="1.1675">
        <ele>292.5</ele>
        <time>2024-11-18T14:50:19Z</time>
      </trkpt>
      <trkpt lat="45.83136" lon="1.16754">
        <ele>292.8</ele>
        <time>2024-11-18T14:50:22Z</time>
      </trkpt>
      <trkpt lat="45.83149" lon="1.16759">
        <ele>292.9</ele>
        <time>2024-11-18T14:50:25Z</time>
      </trkpt>
      <trkpt lat="45.83162" lon="1.16761">
        <ele>293.2</ele>
        <time>2024-11-18T14:50:28Z</time>
      </trkpt>
      <trkpt lat="45.83175" lon="1.16761">
        <ele>293.5</ele>
        <time>2024-11-18T14:50:31Z</time>
      </trkpt>
      <trkpt lat="45.83189" lon="1.1676">
        <ele>293.8</ele>
        <time>2024-11-18T14:50:34Z</time>
      </trkpt>
      <trkpt lat="45.83202" lon="1.16758">
        <ele>294.1</ele>
        <time>2024-11-18T14:50:37Z</time>
      </trkpt>
      <trkpt lat="45.83214" lon="1.16759">
        <ele>294.5</ele>
        <time>2024-11-18T14:50:40Z</time>
      </trkpt>
      <trkpt lat="45.83226" lon="1.16759">
        <ele>294.9</ele>
        <time>2024-11-18T14:50:43Z</time>
      </trkpt>
      <trkpt lat="45.83238" lon="1.16759">
        <ele>295.5</ele>
        <time>2024-11-18T14:50:46Z</time>
      </trkpt>
      <trkpt lat="45.8325" lon="1.16758">
        <ele>296.1</ele>
        <time>2024-11-18T14:50:49Z</time>
      </trkpt>
      <trkpt lat="45.83261" lon="1.16761">
        <ele>296.9</ele>
        <time>2024-11-18T14:50:52Z</time>
      </trkpt>
      <trkpt lat="45.83271" lon="1.16765">
        <ele>297.8</ele>
        <time>2024-11-18T14:50:55Z</time>
      </trkpt>
      <trkpt lat="45.83279" lon="1.16773">
        <ele>298.6</ele>
        <time>2024-11-18T14:50:58Z</time>
      </trkpt>
      <trkpt lat="45.83286" lon="1.16781">
        <ele>299.4</ele>
        <time>2024-11-18T14:51:01Z</time>
      </trkpt>
      <trkpt lat="45.83289" lon="1.16791">
        <ele>300</ele>
        <time>2024-11-18T14:51:04Z</time>
      </trkpt>
      <trkpt lat="45.83289" lon="1.16802">
        <ele>300.5</ele>
        <time>2024-11-18T14:51:07Z</time>
      </trkpt>
      <trkpt lat="45.83287" lon="1.16811">
        <ele>301</ele>
        <time>2024-11-18T14:51:10Z</time>
      </trkpt>
      <trkpt lat="45.83286" lon="1.1682">
        <ele>301.3</ele>
        <time>2024-11-18T14:51:13Z</time>
      </trkpt>
      <trkpt lat="45.83284" lon="1.16829">
        <ele>301.6</ele>
        <time>2024-11-18T14:51:16Z</time>
      </trkpt>
      <trkpt lat="45.83283" lon="1.16832">
        <ele>301.7</ele>
        <time>2024-11-18T14:51:19Z</time>
      </trkpt>
      <trkpt lat="45.83283" lon="1.16832">
        <ele>301.7</ele>
        <time>2024-11-18T14:51:22Z</time>
      </trkpt>
      <trkpt lat="45.83284" lon="1.16833">
        <ele>301.8</ele>
        <time>2024-11-18T14:51:25Z</time>
      </trkpt>
      <trkpt lat="45.83284" lon="1.16833">
        <ele>301.8</ele>
        <time>2024-11-18T14:51:28Z</time>
      </trkpt>
      <trkpt lat="45.83284" lon="1.16833">
        <ele>301.8</ele>
        <time>2024-11-18T14:51:31Z</time>
      </trkpt>
      <trkpt lat="45.83284" lon="1.16833">
        <ele>301.8</ele>
        <time>2024-11-18T14:51:34Z</time>
      </trkpt>
      <trkpt lat="45.83284" lon="1.16833">
        <ele>301.8</ele>
        <time>2024-11-18T14:51:37Z</time>
      </trkpt>
      <trkpt lat="45.83285" lon="1.16832">
        <ele>301.8</ele>
        <time>2024-11-18T14:51:40Z</time>
      </trkpt>
      <trkpt lat="45.83285" lon="1.16831">
        <ele>301.9</ele>
        <time>2024-11-18T14:51:43Z</time>
      </trkpt>
      <trkpt lat="45.83285" lon="1.16831">
        <ele>301.9</ele>
        <time>2024-11-18T14:51:46Z</time>
      </trkpt>
      <trkpt lat="45.83285" lon="1.16832">
        <ele>301.9</ele>
        <time>2024-11-18T14:51:49Z</time>
      </trkpt>
      <trkpt lat="45.83285" lon="1.16831">
        <ele>301.9</ele>
        <time>2024-11-18T14:51:52Z</time>
      </trkpt>
      <trkpt lat="45.83285" lon="1.16831">
        <ele>301.9</ele>
        <time>2024-11-18T14:51:55Z</time>
      </trkpt>
      <trkpt lat="45.83285" lon="1.16832">
        <ele>301.9</ele>
        <time>2024-11-18T14:51:58Z</time>
      </trkpt>
      <trkpt lat="45.83284" lon="1.16831">
        <ele>301.9</ele>
        <time>2024-11-18T14:52:01Z</time>
      </trkpt>
      <trkpt lat="45.83284" lon="1.16831">
        <ele>301.9</ele>
        <time>2024-11-18T14:52:04Z</time>
      </trkpt>
      <trkpt lat="45.83283" lon="1.16832">
        <ele>302</ele>
        <time>2024-11-18T14:52:07Z</time>
      </trkpt>
      <trkpt lat="45.83282" lon="1.16831">
        <ele>302</ele>
        <time>2024-11-18T14:52:10Z</time>
      </trkpt>
      <trkpt lat="45.83281" lon="1.16831">
        <ele>302.1</ele>
        <time>2024-11-18T14:52:13Z</time>
      </trkpt>
      <trkpt lat="45.8328" lon="1.1683">
        <ele>302.1</ele>
        <time>2024-11-18T14:52:16Z</time>
      </trkpt>
      <trkpt lat="45.83279" lon="1.1683">
        <ele>302.2</ele>
        <time>2024-11-18T14:52:19Z</time>
      </trkpt>
      <trkpt lat="45.83279" lon="1.1683">
        <ele>302.2</ele>
        <time>2024-11-18T14:52:22Z</time>
      </trkpt>
      <trkpt lat="45.83279" lon="1.1683">
        <ele>302.2</ele>
        <time>2024-11-18T14:52:25Z</time>
      </trkpt>
      <trkpt lat="45.83279" lon="1.1683">
        <ele>302.2</ele>
        <time>2024-11-18T14:52:28Z</time>
      </trkpt>
      <trkpt lat="45.83279" lon="1.16831">
        <ele>302.2</ele>
        <time>2024-11-18T14:52:31Z</time>
      </trkpt>
      <trkpt lat="45.83279" lon="1.16831">
        <ele>302.2</ele>
        <time>2024-11-18T14:52:34Z</time>
      </trkpt>
      <trkpt lat="45.83279" lon="1.16831">
        <ele>302.2</ele>
        <time>2024-11-18T14:52:37Z</time>
      </trkpt>
      <trkpt lat="45.83279" lon="1.16832">
        <ele>302.2</ele>
        <time>2024-11-18T14:52:40Z</time>
      </trkpt>
      <trkpt lat="45.83279" lon="1.16832">
        <ele>302.2</ele>
        <time>2024-11-18T14:52:43Z</time>
      </trkpt>
      <trkpt lat="45.83278" lon="1.16832">
        <ele>302.3</ele>
        <time>2024-11-18T14:52:46Z</time>
      </trkpt>
      <trkpt lat="45.83278" lon="1.16832">
        <ele>302.3</ele>
        <time>2024-11-18T14:52:49Z</time>
      </trkpt>
      <trkpt lat="45.83278" lon="1.16831">
        <ele>302.3</ele>
        <time>2024-11-18T14:52:52Z</time>
      </trkpt>
      <trkpt lat="45.83278" lon="1.16831">
        <ele>302.3</ele>
        <time>2024-11-18T14:52:55Z</time>
      </trkpt>
      <trkpt lat="45.83278" lon="1.16831">
        <ele>302.3</ele>
        <time>2024-11-18T14:52:56Z</time>
      </trkpt>
      <trkpt lat="45.83262" lon="1.16928">
        <ele>305.4</ele>
        <time>2024-11-18T14:55:36Z</time>
      </trkpt>
      <trkpt lat="45.83261" lon="1.16944">
        <ele>305.8</ele>
        <time>2024-11-18T14:55:39Z</time>
      </trkpt>
      <trkpt lat="45.8326" lon="1.16961">
        <ele>306.2</ele>
        <time>2024-11-18T14:55:42Z</time>
      </trkpt>
      <trkpt lat="45.83258" lon="1.16976">
        <ele>306.5</ele>
        <time>2024-11-18T14:55:45Z</time>
      </trkpt>
      <trkpt lat="45.83256" lon="1.16987">
        <ele>306.7</ele>
        <time>2024-11-18T14:55:48Z</time>
      </trkpt>
      <trkpt lat="45.83253" lon="1.16995">
        <ele>306.7</ele>
        <time>2024-11-18T14:55:51Z</time>
      </trkpt>
      <trkpt lat="45.83253" lon="1.17002">
        <ele>306.7</ele>
        <time>2024-11-18T14:55:54Z</time>
      </trkpt>
      <trkpt lat="45.83253" lon="1.17014">
        <ele>306.7</ele>
        <time>2024-11-18T14:55:57Z</time>
      </trkpt>
      <trkpt lat="45.8325" lon="1.17031">
        <ele>306.9</ele>
        <time>2024-11-18T14:56:00Z</time>
      </trkpt>
      <trkpt lat="45.83246" lon="1.17049">
        <ele>307.1</ele>
        <time>2024-11-18T14:56:03Z</time>
      </trkpt>
      <trkpt lat="45.83243" lon="1.17066">
        <ele>307.4</ele>
        <time>2024-11-18T14:56:06Z</time>
      </trkpt>
      <trkpt lat="45.83238" lon="1.17079">
        <ele>307.5</ele>
        <time>2024-11-18T14:56:09Z</time>
      </trkpt>
      <trkpt lat="45.83234" lon="1.17092">
        <ele>307.5</ele>
        <time>2024-11-18T14:56:12Z</time>
      </trkpt>
      <trkpt lat="45.83233" lon="1.17094">
        <ele>307.5</ele>
        <time>2024-11-18T14:56:15Z</time>
      </trkpt>
      <trkpt lat="45.83232" lon="1.17095">
        <ele>307.5</ele>
        <time>2024-11-18T14:56:18Z</time>
      </trkpt>
      <trkpt lat="45.83231" lon="1.17098">
        <ele>307.6</ele>
        <time>2024-11-18T14:56:21Z</time>
      </trkpt>
      <trkpt lat="45.83234" lon="1.17108">
        <ele>307.5</ele>
        <time>2024-11-18T14:56:24Z</time>
      </trkpt>
      <trkpt lat="45.83236" lon="1.17126">
        <ele>307.1</ele>
        <time>2024-11-18T14:56:27Z</time>
      </trkpt>
      <trkpt lat="45.8324" lon="1.17146">
        <ele>306.7</ele>
        <time>2024-11-18T14:56:30Z</time>
      </trkpt>
      <trkpt lat="45.83243" lon="1.17168">
        <ele>306.2</ele>
        <time>2024-11-18T14:56:33Z</time>
      </trkpt>
      <trkpt lat="45.83247" lon="1.17186">
        <ele>305.7</ele>
        <time>2024-11-18T14:56:36Z</time>
      </trkpt>
      <trkpt lat="45.83251" lon="1.17211">
        <ele>305.2</ele>
        <time>2024-11-18T14:56:39Z</time>
      </trkpt>
      <trkpt lat="45.83254" lon="1.17232">
        <ele>304.7</ele>
        <time>2024-11-18T14:56:42Z</time>
      </trkpt>
      <trkpt lat="45.8326" lon="1.17252">
        <ele>304</ele>
        <time>2024-11-18T14:56:45Z</time>
      </trkpt>
      <trkpt lat="45.83269" lon="1.17265">
        <ele>303.3</ele>
        <time>2024-11-18T14:56:48Z</time>
      </trkpt>
      <trkpt lat="45.83279" lon="1.17279">
        <ele>302.7</ele>
        <time>2024-11-18T14:56:51Z</time>
      </trkpt>
      <trkpt lat="45.83284" lon="1.17284">
        <ele>302.6</ele>
        <time>2024-11-18T14:56:54Z</time>
      </trkpt>
      <trkpt lat="45.83287" lon="1.17287">
        <ele>302.5</ele>
        <time>2024-11-18T14:56:57Z</time>
      </trkpt>
      <trkpt lat="45.83291" lon="1.1729">
        <ele>302.5</ele>
        <time>2024-11-18T14:57:00Z</time>
      </trkpt>
      <trkpt lat="45.83296" lon="1.1729">
        <ele>303.3</ele>
        <time>2024-11-18T14:57:03Z</time>
      </trkpt>
      <trkpt lat="45.83295" lon="1.17288">
        <ele>303.5</ele>
        <time>2024-11-18T14:57:06Z</time>
      </trkpt>
      <trkpt lat="45.83289" lon="1.17288">
        <ele>304.1</ele>
        <time>2024-11-18T14:57:09Z</time>
      </trkpt>
      <trkpt lat="45.83282" lon="1.17288">
        <ele>304.9</ele>
        <time>2024-11-18T14:57:12Z</time>
      </trkpt>
      <trkpt lat="45.83277" lon="1.17292">
        <ele>305.5</ele>
        <time>2024-11-18T14:57:15Z</time>
      </trkpt>
      <trkpt lat="45.8327" lon="1.17291">
        <ele>306.2</ele>
        <time>2024-11-18T14:57:18Z</time>
      </trkpt>
      <trkpt lat="45.83259" lon="1.17286">
        <ele>307.1</ele>
        <time>2024-11-18T14:57:21Z</time>
      </trkpt>
      <trkpt lat="45.8325" lon="1.17281">
        <ele>308</ele>
        <time>2024-11-18T14:57:24Z</time>
      </trkpt>
      <trkpt lat="45.83242" lon="1.17282">
        <ele>308.8</ele>
        <time>2024-11-18T14:57:27Z</time>
      </trkpt>
      <trkpt lat="45.83232" lon="1.17287">
        <ele>309.8</ele>
        <time>2024-11-18T14:57:30Z</time>
      </trkpt>
      <trkpt lat="45.83222" lon="1.17288">
        <ele>310.5</ele>
        <time>2024-11-18T14:57:33Z</time>
      </trkpt>
      <trkpt lat="45.83214" lon="1.17284">
        <ele>311.1</ele>
        <time>2024-11-18T14:57:36Z</time>
      </trkpt>
      <trkpt lat="45.83203" lon="1.17279">
        <ele>311.6</ele>
        <time>2024-11-18T14:57:39Z</time>
      </trkpt>
      <trkpt lat="45.83191" lon="1.17277">
        <ele>312</ele>
        <time>2024-11-18T14:57:42Z</time>
      </trkpt>
      <trkpt lat="45.83178" lon="1.17274">
        <ele>312.3</ele>
        <time>2024-11-18T14:57:45Z</time>
      </trkpt>
      <trkpt lat="45.83167" lon="1.17272">
        <ele>312.6</ele>
        <time>2024-11-18T14:57:48Z</time>
      </trkpt>
      <trkpt lat="45.83156" lon="1.17274">
        <ele>313</ele>
        <time>2024-11-18T14:57:51Z</time>
      </trkpt>
      <trkpt lat="45.83146" lon="1.17279">
        <ele>313.2</ele>
        <time>2024-11-18T14:57:54Z</time>
      </trkpt>
      <trkpt lat="45.83139" lon="1.17289">
        <ele>313.5</ele>
        <time>2024-11-18T14:57:57Z</time>
      </trkpt>
      <trkpt lat="45.83136" lon="1.17303">
        <ele>313.6</ele>
        <time>2024-11-18T14:58:00Z</time>
      </trkpt>
      <trkpt lat="45.83133" lon="1.17318">
        <ele>313.7</ele>
        <time>2024-11-18T14:58:03Z</time>
      </trkpt>
      <trkpt lat="45.83128" lon="1.17335">
        <ele>313.9</ele>
        <time>2024-11-18T14:58:06Z</time>
      </trkpt>
      <trkpt lat="45.83128" lon="1.1735">
        <ele>314</ele>
        <time>2024-11-18T14:58:09Z</time>
      </trkpt>
      <trkpt lat="45.83121" lon="1.17365">
        <ele>314.3</ele>
        <time>2024-11-18T14:58:12Z</time>
      </trkpt>
      <trkpt lat="45.8311" lon="1.17378">
        <ele>314.6</ele>
        <time>2024-11-18T14:58:15Z</time>
      </trkpt>
      <trkpt lat="45.83102" lon="1.17393">
        <ele>314.9</ele>
        <time>2024-11-18T14:58:18Z</time>
      </trkpt>
      <trkpt lat="45.83096" lon="1.17408">
        <ele>315.2</ele>
        <time>2024-11-18T14:58:21Z</time>
      </trkpt>
      <trkpt lat="45.83088" lon="1.1742">
        <ele>315.5</ele>
        <time>2024-11-18T14:58:24Z</time>
      </trkpt>
      <trkpt lat="45.83078" lon="1.17436">
        <ele>316</ele>
        <time>2024-11-18T14:58:27Z</time>
      </trkpt>
      <trkpt lat="45.83071" lon="1.17451">
        <ele>316.4</ele>
        <time>2024-11-18T14:58:30Z</time>
      </trkpt>
      <trkpt lat="45.83061" lon="1.17464">
        <ele>316.8</ele>
        <time>2024-11-18T14:58:33Z</time>
      </trkpt>
      <trkpt lat="45.83055" lon="1.1748">
        <ele>317.1</ele>
        <time>2024-11-18T14:58:36Z</time>
      </trkpt>
      <trkpt lat="45.83053" lon="1.17495">
        <ele>317.2</ele>
        <time>2024-11-18T14:58:39Z</time>
      </trkpt>
      <trkpt lat="45.83055" lon="1.17515">
        <ele>317.3</ele>
        <time>2024-11-18T14:58:42Z</time>
      </trkpt>
      <trkpt lat="45.83059" lon="1.17532">
        <ele>317.3</ele>
        <time>2024-11-18T14:58:45Z</time>
      </trkpt>
      <trkpt lat="45.83061" lon="1.17545">
        <ele>317.4</ele>
        <time>2024-11-18T14:58:48Z</time>
      </trkpt>
      <trkpt lat="45.83064" lon="1.1756">
        <ele>317.6</ele>
        <time>2024-11-18T14:58:51Z</time>
      </trkpt>
      <trkpt lat="45.83067" lon="1.17574">
        <ele>317.7</ele>
        <time>2024-11-18T14:58:54Z</time>
      </trkpt>
      <trkpt lat="45.83072" lon="1.1759">
        <ele>317.9</ele>
        <time>2024-11-18T14:58:57Z</time>
      </trkpt>
      <trkpt lat="45.83075" lon="1.17606">
        <ele>317.9</ele>
        <time>2024-11-18T14:59:00Z</time>
      </trkpt>
      <trkpt lat="45.83075" lon="1.17612">
        <ele>317.9</ele>
        <time>2024-11-18T14:59:03Z</time>
      </trkpt>
      <trkpt lat="45.83077" lon="1.17611">
        <ele>317.9</ele>
        <time>2024-11-18T14:59:06Z</time>
      </trkpt>
      <trkpt lat="45.83076" lon="1.17612">
        <ele>317.9</ele>
        <time>2024-11-18T14:59:09Z</time>
      </trkpt>
      <trkpt lat="45.83076" lon="1.17613">
        <ele>317.9</ele>
        <time>2024-11-18T14:59:12Z</time>
      </trkpt>
      <trkpt lat="45.83076" lon="1.17613">
        <ele>317.9</ele>
        <time>2024-11-18T14:59:15Z</time>
      </trkpt>
      <trkpt lat="45.83076" lon="1.17613">
        <ele>317.9</ele>
        <time>2024-11-18T14:59:18Z</time>
      </trkpt>
      <trkpt lat="45.83076" lon="1.17613">
        <ele>317.9</ele>
        <time>2024-11-18T14:59:21Z</time>
      </trkpt>
      <trkpt lat="45.83076" lon="1.17614">
        <ele>317.9</ele>
        <time>2024-11-18T14:59:24Z</time>
      </trkpt>
      <trkpt lat="45.83082" lon="1.17619">
        <ele>317.6</ele>
        <time>2024-11-18T14:59:27Z</time>
      </trkpt>
      <trkpt lat="45.83091" lon="1.17627">
        <ele>317.2</ele>
        <time>2024-11-18T14:59:30Z</time>
      </trkpt>
      <trkpt lat="45.83104" lon="1.17635">
        <ele>316.7</ele>
        <time>2024-11-18T14:59:33Z</time>
      </trkpt>
      <trkpt lat="45.83115" lon="1.17643">
        <ele>316.3</ele>
        <time>2024-11-18T14:59:36Z</time>
      </trkpt>
      <trkpt lat="45.83127" lon="1.17649">
        <ele>315.8</ele>
        <time>2024-11-18T14:59:39Z</time>
      </trkpt>
      <trkpt lat="45.83139" lon="1.17654">
        <ele>315.2</ele>
        <time>2024-11-18T14:59:42Z</time>
      </trkpt>
      <trkpt lat="45.83143" lon="1.17655">
        <ele>314.9</ele>
        <time>2024-11-18T14:59:45Z</time>
      </trkpt>
      <trkpt lat="45.83145" lon="1.17656">
        <ele>314.8</ele>
        <time>2024-11-18T14:59:48Z</time>
      </trkpt>
      <trkpt lat="45.83145" lon="1.17655">
        <ele>314.8</ele>
        <time>2024-11-18T14:59:51Z</time>
      </trkpt>
      <trkpt lat="45.83145" lon="1.17655">
        <ele>314.8</ele>
        <time>2024-11-18T14:59:54Z</time>
      </trkpt>
      <trkpt lat="45.83144" lon="1.17654">
        <ele>314.8</ele>
        <time>2024-11-18T14:59:57Z</time>
      </trkpt>
      <trkpt lat="45.83144" lon="1.17654">
        <ele>314.7</ele>
        <time>2024-11-18T15:00:00Z</time>
      </trkpt>
      <trkpt lat="45.83144" lon="1.17654">
        <ele>314.7</ele>
        <time>2024-11-18T15:00:03Z</time>
      </trkpt>
      <trkpt lat="45.83142" lon="1.17653">
        <ele>314.6</ele>
        <time>2024-11-18T15:00:06Z</time>
      </trkpt>
      <trkpt lat="45.8314" lon="1.17653">
        <ele>314.5</ele>
        <time>2024-11-18T15:00:09Z</time>
      </trkpt>
      <trkpt lat="45.8314" lon="1.17653">
        <ele>314.5</ele>
        <time>2024-11-18T15:00:12Z</time>
      </trkpt>
      <trkpt lat="45.83141" lon="1.17653">
        <ele>314.5</ele>
        <time>2024-11-18T15:00:15Z</time>
      </trkpt>
      <trkpt lat="45.83141" lon="1.17652">
        <ele>314.4</ele>
        <time>2024-11-18T15:00:18Z</time>
      </trkpt>
      <trkpt lat="45.83142" lon="1.17653">
        <ele>314.4</ele>
        <time>2024-11-18T15:00:21Z</time>
      </trkpt>
      <trkpt lat="45.83142" lon="1.17652">
        <ele>314.4</ele>
        <time>2024-11-18T15:00:24Z</time>
      </trkpt>
      <trkpt lat="45.83145" lon="1.17654">
        <ele>314.2</ele>
        <time>2024-11-18T15:00:27Z</time>
      </trkpt>
      <trkpt lat="45.83153" lon="1.17659">
        <ele>313.8</ele>
        <time>2024-11-18T15:00:30Z</time>
      </trkpt>
      <trkpt lat="45.83167" lon="1.17666">
        <ele>313.1</ele>
        <time>2024-11-18T15:00:33Z</time>
      </trkpt>
      <trkpt lat="45.8318" lon="1.1767">
        <ele>312.5</ele>
        <time>2024-11-18T15:00:36Z</time>
      </trkpt>
      <trkpt lat="45.83183" lon="1.17671">
        <ele>312.4</ele>
        <time>2024-11-18T15:00:39Z</time>
      </trkpt>
      <trkpt lat="45.83182" lon="1.17672">
        <ele>312.4</ele>
        <time>2024-11-18T15:00:42Z</time>
      </trkpt>
      <trkpt lat="45.83185" lon="1.17667">
        <ele>312.2</ele>
        <time>2024-11-18T15:00:45Z</time>
      </trkpt>
      <trkpt lat="45.83185" lon="1.17664">
        <ele>312.1</ele>
        <time>2024-11-18T15:00:48Z</time>
      </trkpt>
      <trkpt lat="45.83186" lon="1.17665">
        <ele>312.1</ele>
        <time>2024-11-18T15:00:51Z</time>
      </trkpt>
      <trkpt lat="45.83185" lon="1.17664">
        <ele>312.1</ele>
        <time>2024-11-18T15:00:54Z</time>
      </trkpt>
      <trkpt lat="45.83186" lon="1.1766">
        <ele>312.1</ele>
        <time>2024-11-18T15:00:57Z</time>
      </trkpt>
      <trkpt lat="45.83187" lon="1.17654">
        <ele>312.1</ele>
        <time>2024-11-18T15:01:00Z</time>
      </trkpt>
      <trkpt lat="45.83187" lon="1.17642">
        <ele>311.9</ele>
        <time>2024-11-18T15:01:03Z</time>
      </trkpt>
      <trkpt lat="45.83201" lon="1.17621">
        <ele>311.3</ele>
        <time>2024-11-18T15:01:06Z</time>
      </trkpt>
      <trkpt lat="45.83208" lon="1.17601">
        <ele>310.8</ele>
        <time>2024-11-18T15:01:09Z</time>
      </trkpt>
      <trkpt lat="45.83216" lon="1.17577">
        <ele>310.3</ele>
        <time>2024-11-18T15:01:12Z</time>
      </trkpt>
      <trkpt lat="45.83221" lon="1.17553">
        <ele>309.9</ele>
        <time>2024-11-18T15:01:15Z</time>
      </trkpt>
      <trkpt lat="45.8323" lon="1.17537">
        <ele>309.5</ele>
        <time>2024-11-18T15:01:18Z</time>
      </trkpt>
      <trkpt lat="45.83241" lon="1.17533">
        <ele>309</ele>
        <time>2024-11-18T15:01:21Z</time>
      </trkpt>
      <trkpt lat="45.83248" lon="1.17532">
        <ele>308.6</ele>
        <time>2024-11-18T15:01:24Z</time>
      </trkpt>
      <trkpt lat="45.83256" lon="1.17517">
        <ele>307.9</ele>
        <time>2024-11-18T15:01:27Z</time>
      </trkpt>
      <trkpt lat="45.8326" lon="1.17493">
        <ele>307.3</ele>
        <time>2024-11-18T15:01:30Z</time>
      </trkpt>
      <trkpt lat="45.83266" lon="1.17467">
        <ele>306.4</ele>
        <time>2024-11-18T15:01:33Z</time>
      </trkpt>
      <trkpt lat="45.83273" lon="1.17444">
        <ele>305.5</ele>
        <time>2024-11-18T15:01:36Z</time>
      </trkpt>
      <trkpt lat="45.83277" lon="1.17423">
        <ele>305</ele>
        <time>2024-11-18T15:01:39Z</time>
      </trkpt>
      <trkpt lat="45.83281" lon="1.17402">
        <ele>304.4</ele>
        <time>2024-11-18T15:01:42Z</time>
      </trkpt>
      <trkpt lat="45.83286" lon="1.17385">
        <ele>304.1</ele>
        <time>2024-11-18T15:01:45Z</time>
      </trkpt>
      <trkpt lat="45.83288" lon="1.17363">
        <ele>304</ele>
        <time>2024-11-18T15:01:48Z</time>
      </trkpt>
      <trkpt lat="45.83289" lon="1.17346">
        <ele>303.9</ele>
        <time>2024-11-18T15:01:51Z</time>
      </trkpt>
      <trkpt lat="45.83293" lon="1.17331">
        <ele>303.7</ele>
        <time>2024-11-18T15:01:54Z</time>
      </trkpt>
      <trkpt lat="45.83296" lon="1.17319">
        <ele>303.2</ele>
        <time>2024-11-18T15:01:57Z</time>
      </trkpt>
      <trkpt lat="45.83297" lon="1.17312">
        <ele>302.9</ele>
        <time>2024-11-18T15:02:00Z</time>
      </trkpt>
      <trkpt lat="45.83301" lon="1.17306">
        <ele>302.6</ele>
        <time>2024-11-18T15:02:03Z</time>
      </trkpt>
      <trkpt lat="45.83298" lon="1.17304">
        <ele>302.7</ele>
        <time>2024-11-18T15:02:06Z</time>
      </trkpt>
      <trkpt lat="45.83294" lon="1.17307">
        <ele>303.3</ele>
        <time>2024-11-18T15:02:09Z</time>
      </trkpt>
      <trkpt lat="45.83288" lon="1.17311">
        <ele>304.2</ele>
        <time>2024-11-18T15:02:12Z</time>
      </trkpt>
      <trkpt lat="45.83283" lon="1.1732">
        <ele>305.3</ele>
        <time>2024-11-18T15:02:15Z</time>
      </trkpt>
      <trkpt lat="45.83278" lon="1.17328">
        <ele>306.3</ele>
        <time>2024-11-18T15:02:18Z</time>
      </trkpt>
      <trkpt lat="45.83271" lon="1.17336">
        <ele>307.4</ele>
        <time>2024-11-18T15:02:21Z</time>
      </trkpt>
      <trkpt lat="45.83266" lon="1.1734">
        <ele>308</ele>
        <time>2024-11-18T15:02:24Z</time>
      </trkpt>
      <trkpt lat="45.8326" lon="1.17345">
        <ele>308.7</ele>
        <time>2024-11-18T15:02:27Z</time>
      </trkpt>
      <trkpt lat="45.83252" lon="1.17353">
        <ele>309.6</ele>
        <time>2024-11-18T15:02:30Z</time>
      </trkpt>
      <trkpt lat="45.83244" lon="1.1736">
        <ele>310.4</ele>
        <time>2024-11-18T15:02:33Z</time>
      </trkpt>
      <trkpt lat="45.83235" lon="1.17367">
        <ele>311.2</ele>
        <time>2024-11-18T15:02:36Z</time>
      </trkpt>
      <trkpt lat="45.83228" lon="1.17373">
        <ele>311.8</ele>
        <time>2024-11-18T15:02:39Z</time>
      </trkpt>
      <trkpt lat="45.8322" lon="1.17382">
        <ele>312.4</ele>
        <time>2024-11-18T15:02:42Z</time>
      </trkpt>
      <trkpt lat="45.83213" lon="1.1739">
        <ele>312.8</ele>
        <time>2024-11-18T15:02:45Z</time>
      </trkpt>
      <trkpt lat="45.83206" lon="1.17396">
        <ele>313.1</ele>
        <time>2024-11-18T15:02:48Z</time>
      </trkpt>
      <trkpt lat="45.83197" lon="1.17405">
        <ele>313.5</ele>
        <time>2024-11-18T15:02:51Z</time>
      </trkpt>
      <trkpt lat="45.83189" lon="1.17412">
        <ele>313.7</ele>
        <time>2024-11-18T15:02:54Z</time>
      </trkpt>
      <trkpt lat="45.8318" lon="1.17422">
        <ele>314</ele>
        <time>2024-11-18T15:02:57Z</time>
      </trkpt>
      <trkpt lat="45.8317" lon="1.17432">
        <ele>314.2</ele>
        <time>2024-11-18T15:03:00Z</time>
      </trkpt>
      <trkpt lat="45.83163" lon="1.17437">
        <ele>314.4</ele>
        <time>2024-11-18T15:03:03Z</time>
      </trkpt>
      <trkpt lat="45.83157" lon="1.17444">
        <ele>314.6</ele>
        <time>2024-11-18T15:03:06Z</time>
      </trkpt>
      <trkpt lat="45.83152" lon="1.17451">
        <ele>314.7</ele>
        <time>2024-11-18T15:03:09Z</time>
      </trkpt>
      <trkpt lat="45.8314" lon="1.1746">
        <ele>315</ele>
        <time>2024-11-18T15:03:12Z</time>
      </trkpt>
      <trkpt lat="45.83131" lon="1.17471">
        <ele>315.2</ele>
        <time>2024-11-18T15:03:15Z</time>
      </trkpt>
      <trkpt lat="45.83122" lon="1.17478">
        <ele>315.3</ele>
        <time>2024-11-18T15:03:18Z</time>
      </trkpt>
      <trkpt lat="45.83113" lon="1.17484">
        <ele>315.5</ele>
        <time>2024-11-18T15:03:21Z</time>
      </trkpt>
      <trkpt lat="45.83104" lon="1.17492">
        <ele>315.8</ele>
        <time>2024-11-18T15:03:24Z</time>
      </trkpt>
      <trkpt lat="45.83094" lon="1.17502">
        <ele>316.1</ele>
        <time>2024-11-18T15:03:27Z</time>
      </trkpt>
      <trkpt lat="45.83085" lon="1.17514">
        <ele>316.5</ele>
        <time>2024-11-18T15:03:30Z</time>
      </trkpt>
      <trkpt lat="45.83073" lon="1.17524">
        <ele>316.9</ele>
        <time>2024-11-18T15:03:33Z</time>
      </trkpt>
      <trkpt lat="45.83065" lon="1.17532">
        <ele>317.2</ele>
        <time>2024-11-18T15:03:36Z</time>
      </trkpt>
      <trkpt lat="45.83065" lon="1.17533">
        <ele>317.3</ele>
        <time>2024-11-18T15:03:39Z</time>
      </trkpt>
      <trkpt lat="45.83064" lon="1.17535">
        <ele>317.3</ele>
        <time>2024-11-18T15:03:42Z</time>
      </trkpt>
      <trkpt lat="45.83063" lon="1.17537">
        <ele>317.3</ele>
        <time>2024-11-18T15:03:45Z</time>
      </trkpt>
      <trkpt lat="45.83062" lon="1.17538">
        <ele>317.4</ele>
        <time>2024-11-18T15:03:48Z</time>
      </trkpt>
      <trkpt lat="45.83062" lon="1.17537">
        <ele>317.4</ele>
        <time>2024-11-18T15:03:51Z</time>
      </trkpt>
      <trkpt lat="45.83063" lon="1.17536">
        <ele>317.4</ele>
        <time>2024-11-18T15:03:54Z</time>
      </trkpt>
      <trkpt lat="45.83062" lon="1.17537">
        <ele>317.4</ele>
        <time>2024-11-18T15:03:57Z</time>
      </trkpt>
      <trkpt lat="45.83062" lon="1.17537">
        <ele>317.4</ele>
        <time>2024-11-18T15:04:00Z</time>
      </trkpt>
      <trkpt lat="45.83062" lon="1.17537">
        <ele>317.4</ele>
        <time>2024-11-18T15:04:03Z</time>
      </trkpt>
      <trkpt lat="45.83062" lon="1.17537">
        <ele>317.4</ele>
        <time>2024-11-18T15:04:06Z</time>
      </trkpt>
      <trkpt lat="45.83062" lon="1.17537">
        <ele>317.4</ele>
        <time>2024-11-18T15:04:09Z</time>
      </trkpt>
      <trkpt lat="45.83062" lon="1.17537">
        <ele>317.4</ele>
        <time>2024-11-18T15:04:12Z</time>
      </trkpt>
      <trkpt lat="45.83062" lon="1.17537">
        <ele>317.4</ele>
        <time>2024-11-18T15:04:15Z</time>
      </trkpt>
      <trkpt lat="45.83062" lon="1.17537">
        <ele>317.4</ele>
        <time>2024-11-18T15:04:18Z</time>
      </trkpt>
      <trkpt lat="45.83062" lon="1.17537">
        <ele>317.4</ele>
        <time>2024-11-18T15:04:21Z</time>
      </trkpt>
      <trkpt lat="45.83062" lon="1.17537">
        <ele>317.4</ele>
        <time>2024-11-18T15:04:24Z</time>
      </trkpt>
      <trkpt lat="45.83062" lon="1.17538">
        <ele>317.4</ele>
        <time>2024-11-18T15:04:27Z</time>
      </trkpt>
      <trkpt lat="45.83063" lon="1.17537">
        <ele>317.4</ele>
        <time>2024-11-18T15:04:30Z</time>
      </trkpt>
      <trkpt lat="45.83063" lon="1.17537">
        <ele>317.4</ele>
        <time>2024-11-18T15:04:33Z</time>
      </trkpt>
      <trkpt lat="45.83063" lon="1.17545">
        <ele>317.5</ele>
        <time>2024-11-18T15:04:36Z</time>
      </trkpt>
      <trkpt lat="45.83063" lon="1.1756">
        <ele>317.6</ele>
        <time>2024-11-18T15:04:39Z</time>
      </trkpt>
      <trkpt lat="45.83066" lon="1.17576">
        <ele>317.8</ele>
        <time>2024-11-18T15:04:42Z</time>
      </trkpt>
      <trkpt lat="45.83069" lon="1.17592">
        <ele>317.9</ele>
        <time>2024-11-18T15:04:45Z</time>
      </trkpt>
      <trkpt lat="45.83071" lon="1.17609">
        <ele>317.9</ele>
        <time>2024-11-18T15:04:48Z</time>
      </trkpt>
      <trkpt lat="45.83071" lon="1.17616">
        <ele>317.9</ele>
        <time>2024-11-18T15:04:51Z</time>
      </trkpt>
      <trkpt lat="45.83072" lon="1.17619">
        <ele>317.9</ele>
        <time>2024-11-18T15:04:54Z</time>
      </trkpt>
      <trkpt lat="45.83072" lon="1.17621">
        <ele>317.9</ele>
        <time>2024-11-18T15:04:57Z</time>
      </trkpt>
      <trkpt lat="45.83072" lon="1.17628">
        <ele>317.9</ele>
        <time>2024-11-18T15:05:00Z</time>
      </trkpt>
      <trkpt lat="45.83071" lon="1.17643">
        <ele>317.8</ele>
        <time>2024-11-18T15:05:03Z</time>
      </trkpt>
      <trkpt lat="45.8307" lon="1.17665">
        <ele>317.8</ele>
        <time>2024-11-18T15:05:06Z</time>
      </trkpt>
      <trkpt lat="45.8307" lon="1.17685">
        <ele>317.7</ele>
        <time>2024-11-18T15:05:09Z</time>
      </trkpt>
      <trkpt lat="45.83067" lon="1.17708">
        <ele>317.8</ele>
        <time>2024-11-18T15:05:12Z</time>
      </trkpt>
      <trkpt lat="45.83066" lon="1.17729">
        <ele>317.8</ele>
        <time>2024-11-18T15:05:15Z</time>
      </trkpt>
      <trkpt lat="45.83065" lon="1.17751">
        <ele>317.8</ele>
        <time>2024-11-18T15:05:18Z</time>
      </trkpt>
      <trkpt lat="45.83063" lon="1.17771">
        <ele>317.7</ele>
        <time>2024-11-18T15:05:21Z</time>
      </trkpt>
      <trkpt lat="45.83061" lon="1.17794">
        <ele>317.8</ele>
        <time>2024-11-18T15:05:24Z</time>
      </trkpt>
      <trkpt lat="45.8306" lon="1.17815">
        <ele>318.5</ele>
        <time>2024-11-18T15:05:27Z</time>
      </trkpt>
      <trkpt lat="45.83061" lon="1.17829">
        <ele>319.2</ele>
        <time>2024-11-18T15:05:30Z</time>
      </trkpt>
      <trkpt lat="45.8306" lon="1.17843">
        <ele>319.9</ele>
        <time>2024-11-18T15:05:33Z</time>
      </trkpt>
      <trkpt lat="45.8306" lon="1.17855">
        <ele>320.4</ele>
        <time>2024-11-18T15:05:36Z</time>
      </trkpt>
      <trkpt lat="45.83061" lon="1.1787">
        <ele>320.9</ele>
        <time>2024-11-18T15:05:39Z</time>
      </trkpt>
      <trkpt lat="45.8306" lon="1.17888">
        <ele>321.3</ele>
        <time>2024-11-18T15:05:42Z</time>
      </trkpt>
      <trkpt lat="45.83059" lon="1.17903">
        <ele>321.6</ele>
        <time>2024-11-18T15:05:45Z</time>
      </trkpt>
      <trkpt lat="45.83058" lon="1.17914">
        <ele>321.9</ele>
        <time>2024-11-18T15:05:48Z</time>
      </trkpt>
      <trkpt lat="45.83058" lon="1.17919">
        <ele>322</ele>
        <time>2024-11-18T15:05:51Z</time>
      </trkpt>
      <trkpt lat="45.83057" lon="1.17925">
        <ele>322.1</ele>
        <time>2024-11-18T15:05:54Z</time>
      </trkpt>
      <trkpt lat="45.83056" lon="1.17939">
        <ele>322.3</ele>
        <time>2024-11-18T15:05:57Z</time>
      </trkpt>
      <trkpt lat="45.83055" lon="1.17954">
        <ele>322.6</ele>
        <time>2024-11-18T15:06:00Z</time>
      </trkpt>
      <trkpt lat="45.83056" lon="1.17972">
        <ele>322.9</ele>
        <time>2024-11-18T15:06:03Z</time>
      </trkpt>
      <trkpt lat="45.83055" lon="1.17989">
        <ele>323.3</ele>
        <time>2024-11-18T15:06:06Z</time>
      </trkpt>
      <trkpt lat="45.83058" lon="1.18002">
        <ele>323.7</ele>
        <time>2024-11-18T15:06:09Z</time>
      </trkpt>
      <trkpt lat="45.83071" lon="1.18008">
        <ele>323.5</ele>
        <time>2024-11-18T15:06:12Z</time>
      </trkpt>
      <trkpt lat="45.83084" lon="1.1801">
        <ele>323.4</ele>
        <time>2024-11-18T15:06:15Z</time>
      </trkpt>
      <trkpt lat="45.83095" lon="1.18013">
        <ele>323.5</ele>
        <time>2024-11-18T15:06:18Z</time>
      </trkpt>
      <trkpt lat="45.83101" lon="1.18011">
        <ele>323.5</ele>
        <time>2024-11-18T15:06:21Z</time>
      </trkpt>
      <trkpt lat="45.83101" lon="1.18">
        <ele>323.1</ele>
        <time>2024-11-18T15:06:24Z</time>
      </trkpt>
      <trkpt lat="45.83102" lon="1.17986">
        <ele>322.6</ele>
        <time>2024-11-18T15:06:27Z</time>
      </trkpt>
      <trkpt lat="45.83102" lon="1.17968">
        <ele>321.9</ele>
        <time>2024-11-18T15:06:30Z</time>
      </trkpt>
      <trkpt lat="45.83102" lon="1.17952">
        <ele>321.3</ele>
        <time>2024-11-18T15:06:33Z</time>
      </trkpt>
      <trkpt lat="45.83105" lon="1.17936">
        <ele>320.7</ele>
        <time>2024-11-18T15:06:36Z</time>
      </trkpt>
      <trkpt lat="45.83113" lon="1.1793">
        <ele>320.7</ele>
        <time>2024-11-18T15:06:39Z</time>
      </trkpt>
      <trkpt lat="45.83123" lon="1.17925">
        <ele>320.6</ele>
        <time>2024-11-18T15:06:42Z</time>
      </trkpt>
      <trkpt lat="45.83134" lon="1.17917">
        <ele>320.5</ele>
        <time>2024-11-18T15:06:45Z</time>
      </trkpt>
      <trkpt lat="45.83146" lon="1.17908">
        <ele>320.3</ele>
        <time>2024-11-18T15:06:48Z</time>
      </trkpt>
      <trkpt lat="45.83157" lon="1.17903">
        <ele>320.2</ele>
        <time>2024-11-18T15:06:51Z</time>
      </trkpt>
      <trkpt lat="45.8317" lon="1.17895">
        <ele>320</ele>
        <time>2024-11-18T15:06:54Z</time>
      </trkpt>
      <trkpt lat="45.83185" lon="1.1789">
        <ele>319.7</ele>
        <time>2024-11-18T15:06:57Z</time>
      </trkpt>
      <trkpt lat="45.832" lon="1.17878">
        <ele>319.4</ele>
        <time>2024-11-18T15:07:00Z</time>
      </trkpt>
      <trkpt lat="45.83213" lon="1.17872">
        <ele>319.3</ele>
        <time>2024-11-18T15:07:03Z</time>
      </trkpt>
      <trkpt lat="45.8323" lon="1.17864">
        <ele>319.3</ele>
        <time>2024-11-18T15:07:06Z</time>
      </trkpt>
      <trkpt lat="45.8324" lon="1.1786">
        <ele>319.4</ele>
        <time>2024-11-18T15:07:09Z</time>
      </trkpt>
      <trkpt lat="45.83254" lon="1.17853">
        <ele>319.4</ele>
        <time>2024-11-18T15:07:12Z</time>
      </trkpt>
      <trkpt lat="45.83262" lon="1.17854">
        <ele>319.4</ele>
        <time>2024-11-18T15:07:15Z</time>
      </trkpt>
      <trkpt lat="45.83278" lon="1.17841">
        <ele>319.3</ele>
        <time>2024-11-18T15:07:18Z</time>
      </trkpt>
      <trkpt lat="45.83292" lon="1.17832">
        <ele>319.3</ele>
        <time>2024-11-18T15:07:21Z</time>
      </trkpt>
      <trkpt lat="45.83305" lon="1.17824">
        <ele>319.2</ele>
        <time>2024-11-18T15:07:24Z</time>
      </trkpt>
      <trkpt lat="45.83316" lon="1.17818">
        <ele>319.2</ele>
        <time>2024-11-18T15:07:27Z</time>
      </trkpt>
      <trkpt lat="45.83325" lon="1.17811">
        <ele>319.2</ele>
        <time>2024-11-18T15:07:30Z</time>
      </trkpt>
      <trkpt lat="45.83339" lon="1.17803">
        <ele>319.2</ele>
        <time>2024-11-18T15:07:33Z</time>
      </trkpt>
      <trkpt lat="45.83343" lon="1.17801">
        <ele>319.2</ele>
        <time>2024-11-18T15:07:36Z</time>
      </trkpt>
      <trkpt lat="45.83343" lon="1.17801">
        <ele>319.2</ele>
        <time>2024-11-18T15:07:39Z</time>
      </trkpt>
      <trkpt lat="45.83343" lon="1.17801">
        <ele>319.2</ele>
        <time>2024-11-18T15:07:42Z</time>
      </trkpt>
      <trkpt lat="45.83343" lon="1.178">
        <ele>319.2</ele>
        <time>2024-11-18T15:07:45Z</time>
      </trkpt>
      <trkpt lat="45.83344" lon="1.17799">
        <ele>319.2</ele>
        <time>2024-11-18T15:07:48Z</time>
      </trkpt>
      <trkpt lat="45.83344" lon="1.17798">
        <ele>319.1</ele>
        <time>2024-11-18T15:07:51Z</time>
      </trkpt>
      <trkpt lat="45.83343" lon="1.17798">
        <ele>319.1</ele>
        <time>2024-11-18T15:07:54Z</time>
      </trkpt>
      <trkpt lat="45.83344" lon="1.17793">
        <ele>318.9</ele>
        <time>2024-11-18T15:07:57Z</time>
      </trkpt>
      <trkpt lat="45.83344" lon="1.17781">
        <ele>318.6</ele>
        <time>2024-11-18T15:08:00Z</time>
      </trkpt>
      <trkpt lat="45.83341" lon="1.17759">
        <ele>318</ele>
        <time>2024-11-18T15:08:03Z</time>
      </trkpt>
      <trkpt lat="45.83341" lon="1.17742">
        <ele>317.5</ele>
        <time>2024-11-18T15:08:06Z</time>
      </trkpt>
      <trkpt lat="45.83342" lon="1.17725">
        <ele>317</ele>
        <time>2024-11-18T15:08:09Z</time>
      </trkpt>
      <trkpt lat="45.83349" lon="1.17714">
        <ele>316.3</ele>
        <time>2024-11-18T15:08:12Z</time>
      </trkpt>
      <trkpt lat="45.83366" lon="1.1771">
        <ele>314.6</ele>
        <time>2024-11-18T15:08:15Z</time>
      </trkpt>
      <trkpt lat="45.83387" lon="1.17706">
        <ele>312.5</ele>
        <time>2024-11-18T15:08:18Z</time>
      </trkpt>
      <trkpt lat="45.8341" lon="1.17701">
        <ele>310.8</ele>
        <time>2024-11-18T15:08:21Z</time>
      </trkpt>
      <trkpt lat="45.83434" lon="1.17697">
        <ele>310.2</ele>
        <time>2024-11-18T15:08:24Z</time>
      </trkpt>
      <trkpt lat="45.83455" lon="1.17695">
        <ele>310.5</ele>
        <time>2024-11-18T15:08:27Z</time>
      </trkpt>
      <trkpt lat="45.8347" lon="1.17693">
        <ele>311.1</ele>
        <time>2024-11-18T15:08:30Z</time>
      </trkpt>
      <trkpt lat="45.83482" lon="1.17692">
        <ele>311.7</ele>
        <time>2024-11-18T15:08:33Z</time>
      </trkpt>
      <trkpt lat="45.83491" lon="1.17692">
        <ele>312.2</ele>
        <time>2024-11-18T15:08:36Z</time>
      </trkpt>
      <trkpt lat="45.83501" lon="1.17691">
        <ele>312.6</ele>
        <time>2024-11-18T15:08:39Z</time>
      </trkpt>
      <trkpt lat="45.83509" lon="1.17689">
        <ele>312.9</ele>
        <time>2024-11-18T15:08:42Z</time>
      </trkpt>
      <trkpt lat="45.83514" lon="1.17689">
        <ele>313.1</ele>
        <time>2024-11-18T15:08:45Z</time>
      </trkpt>
      <trkpt lat="45.8352" lon="1.17689">
        <ele>313.3</ele>
        <time>2024-11-18T15:08:48Z</time>
      </trkpt>
      <trkpt lat="45.83529" lon="1.17685">
        <ele>313.6</ele>
        <time>2024-11-18T15:08:51Z</time>
      </trkpt>
      <trkpt lat="45.83541" lon="1.17685">
        <ele>313.8</ele>
        <time>2024-11-18T15:08:54Z</time>
      </trkpt>
      <trkpt lat="45.83553" lon="1.17684">
        <ele>314.1</ele>
        <time>2024-11-18T15:08:57Z</time>
      </trkpt>
      <trkpt lat="45.83565" lon="1.17681">
        <ele>314.2</ele>
        <time>2024-11-18T15:09:00Z</time>
      </trkpt>
      <trkpt lat="45.83575" lon="1.17675">
        <ele>314.4</ele>
        <time>2024-11-18T15:09:03Z</time>
      </trkpt>
      <trkpt lat="45.83585" lon="1.17675">
        <ele>314.5</ele>
        <time>2024-11-18T15:09:06Z</time>
      </trkpt>
      <trkpt lat="45.83595" lon="1.17673">
        <ele>314.8</ele>
        <time>2024-11-18T15:09:09Z</time>
      </trkpt>
      <trkpt lat="45.83607" lon="1.17673">
        <ele>315.2</ele>
        <time>2024-11-18T15:09:12Z</time>
      </trkpt>
      <trkpt lat="45.83617" lon="1.1767">
        <ele>315.5</ele>
        <time>2024-11-18T15:09:15Z</time>
      </trkpt>
      <trkpt lat="45.83628" lon="1.17668">
        <ele>315.9</ele>
        <time>2024-11-18T15:09:18Z</time>
      </trkpt>
      <trkpt lat="45.83639" lon="1.17665">
        <ele>316.4</ele>
        <time>2024-11-18T15:09:21Z</time>
      </trkpt>
      <trkpt lat="45.83649" lon="1.17663">
        <ele>316.9</ele>
        <time>2024-11-18T15:09:24Z</time>
      </trkpt>
      <trkpt lat="45.83658" lon="1.17662">
        <ele>317.4</ele>
        <time>2024-11-18T15:09:27Z</time>
      </trkpt>
      <trkpt lat="45.83665" lon="1.1766">
        <ele>317.8</ele>
        <time>2024-11-18T15:09:30Z</time>
      </trkpt>
      <trkpt lat="45.83665" lon="1.1766">
        <ele>317.8</ele>
        <time>2024-11-18T15:09:33Z</time>
      </trkpt>
      <trkpt lat="45.83665" lon="1.1766">
        <ele>317.8</ele>
        <time>2024-11-18T15:09:36Z</time>
      </trkpt>
      <trkpt lat="45.83665" lon="1.1766">
        <ele>317.8</ele>
        <time>2024-11-18T15:09:39Z</time>
      </trkpt>
      <trkpt lat="45.83665" lon="1.1766">
        <ele>317.8</ele>
        <time>2024-11-18T15:09:42Z</time>
      </trkpt>
      <trkpt lat="45.83665" lon="1.1766">
        <ele>317.8</ele>
        <time>2024-11-18T15:09:45Z</time>
      </trkpt>
      <trkpt lat="45.83665" lon="1.1766">
        <ele>317.8</ele>
        <time>2024-11-18T15:09:48Z</time>
      </trkpt>
      <trkpt lat="45.83665" lon="1.1766">
        <ele>317.8</ele>
        <time>2024-11-18T15:09:51Z</time>
      </trkpt>
      <trkpt lat="45.83665" lon="1.1766">
        <ele>317.8</ele>
        <time>2024-11-18T15:09:55Z</time>
      </trkpt>
      <trkpt lat="45.83664" lon="1.17661">
        <ele>317.9</ele>
        <time>2024-11-18T15:09:58Z</time>
      </trkpt>
      <trkpt lat="45.83664" lon="1.17661">
        <ele>317.9</ele>
        <time>2024-11-18T15:10:01Z</time>
      </trkpt>
      <trkpt lat="45.83663" lon="1.17663">
        <ele>318.1</ele>
        <time>2024-11-18T15:10:04Z</time>
      </trkpt>
      <trkpt lat="45.83662" lon="1.17663">
        <ele>318.1</ele>
        <time>2024-11-18T15:10:07Z</time>
      </trkpt>
      <trkpt lat="45.83662" lon="1.17664">
        <ele>318.1</ele>
        <time>2024-11-18T15:10:10Z</time>
      </trkpt>
      <trkpt lat="45.83664" lon="1.17662">
        <ele>318.2</ele>
        <time>2024-11-18T15:10:13Z</time>
      </trkpt>
      <trkpt lat="45.83664" lon="1.17662">
        <ele>318.3</ele>
        <time>2024-11-18T15:10:16Z</time>
      </trkpt>
      <trkpt lat="45.83665" lon="1.17662">
        <ele>318.3</ele>
        <time>2024-11-18T15:10:19Z</time>
      </trkpt>
      <trkpt lat="45.83665" lon="1.17661">
        <ele>318.3</ele>
        <time>2024-11-18T15:10:22Z</time>
      </trkpt>
      <trkpt lat="45.83665" lon="1.17661">
        <ele>318.4</ele>
        <time>2024-11-18T15:10:25Z</time>
      </trkpt>
      <trkpt lat="45.83666" lon="1.17661">
        <ele>318.4</ele>
        <time>2024-11-18T15:10:28Z</time>
      </trkpt>
      <trkpt lat="45.83666" lon="1.17661">
        <ele>318.4</ele>
        <time>2024-11-18T15:10:31Z</time>
      </trkpt>
      <trkpt lat="45.83666" lon="1.17661">
        <ele>318.4</ele>
        <time>2024-11-18T15:10:34Z</time>
      </trkpt>
      <trkpt lat="45.83666" lon="1.17661">
        <ele>318.4</ele>
        <time>2024-11-18T15:10:37Z</time>
      </trkpt>
      <trkpt lat="45.83666" lon="1.17661">
        <ele>318.4</ele>
        <time>2024-11-18T15:10:40Z</time>
      </trkpt>
      <trkpt lat="45.83666" lon="1.17661">
        <ele>318.4</ele>
        <time>2024-11-18T15:10:43Z</time>
      </trkpt>
      <trkpt lat="45.83666" lon="1.17661">
        <ele>318.4</ele>
        <time>2024-11-18T15:10:46Z</time>
      </trkpt>
      <trkpt lat="45.83666" lon="1.17661">
        <ele>318.4</ele>
        <time>2024-11-18T15:10:49Z</time>
      </trkpt>
      <trkpt lat="45.83666" lon="1.17661">
        <ele>318.4</ele>
        <time>2024-11-18T15:10:52Z</time>
      </trkpt>
      <trkpt lat="45.83666" lon="1.1766">
        <ele>318.4</ele>
        <time>2024-11-18T15:10:55Z</time>
      </trkpt>
      <trkpt lat="45.83666" lon="1.1766">
        <ele>318.4</ele>
        <time>2024-11-18T15:10:58Z</time>
      </trkpt>
      <trkpt lat="45.83666" lon="1.1766">
        <ele>318.4</ele>
        <time>2024-11-18T15:11:01Z</time>
      </trkpt>
      <trkpt lat="45.83666" lon="1.1766">
        <ele>318.4</ele>
        <time>2024-11-18T15:11:04Z</time>
      </trkpt>
      <trkpt lat="45.83666" lon="1.1766">
        <ele>318.4</ele>
        <time>2024-11-18T15:11:07Z</time>
      </trkpt>
      <trkpt lat="45.83667" lon="1.1766">
        <ele>318.4</ele>
        <time>2024-11-18T15:11:10Z</time>
      </trkpt>
      <trkpt lat="45.83667" lon="1.1766">
        <ele>318.4</ele>
        <time>2024-11-18T15:11:13Z</time>
      </trkpt>
      <trkpt lat="45.83667" lon="1.1766">
        <ele>318.4</ele>
        <time>2024-11-18T15:11:16Z</time>
      </trkpt>
      <trkpt lat="45.83667" lon="1.17659">
        <ele>318.4</ele>
        <time>2024-11-18T15:11:19Z</time>
      </trkpt>
      <trkpt lat="45.83667" lon="1.17658">
        <ele>318.4</ele>
        <time>2024-11-18T15:11:22Z</time>
      </trkpt>
      <trkpt lat="45.83668" lon="1.17657">
        <ele>318.4</ele>
        <time>2024-11-18T15:11:25Z</time>
      </trkpt>
      <trkpt lat="45.83668" lon="1.17653">
        <ele>318.3</ele>
        <time>2024-11-18T15:11:28Z</time>
      </trkpt>
      <trkpt lat="45.83668" lon="1.17644">
        <ele>318.2</ele>
        <time>2024-11-18T15:11:31Z</time>
      </trkpt>
      <trkpt lat="45.8367" lon="1.1763">
        <ele>317.9</ele>
        <time>2024-11-18T15:11:34Z</time>
      </trkpt>
      <trkpt lat="45.83667" lon="1.17609">
        <ele>317.3</ele>
        <time>2024-11-18T15:11:37Z</time>
      </trkpt>
      <trkpt lat="45.83666" lon="1.17589">
        <ele>317</ele>
        <time>2024-11-18T15:11:40Z</time>
      </trkpt>
      <trkpt lat="45.83666" lon="1.17568">
        <ele>316.9</ele>
        <time>2024-11-18T15:11:43Z</time>
      </trkpt>
      <trkpt lat="45.83662" lon="1.17549">
        <ele>317</ele>
        <time>2024-11-18T15:11:46Z</time>
      </trkpt>
      <trkpt lat="45.83661" lon="1.17538">
        <ele>317</ele>
        <time>2024-11-18T15:11:49Z</time>
      </trkpt>
      <trkpt lat="45.83662" lon="1.17521">
        <ele>317</ele>
        <time>2024-11-18T15:11:52Z</time>
      </trkpt>
      <trkpt lat="45.83661" lon="1.17502">
        <ele>317.1</ele>
        <time>2024-11-18T15:11:55Z</time>
      </trkpt>
      <trkpt lat="45.83662" lon="1.17483">
        <ele>317.1</ele>
        <time>2024-11-18T15:11:58Z</time>
      </trkpt>
      <trkpt lat="45.83662" lon="1.17465">
        <ele>317.2</ele>
        <time>2024-11-18T15:12:01Z</time>
      </trkpt>
      <trkpt lat="45.83665" lon="1.17447">
        <ele>317.3</ele>
        <time>2024-11-18T15:12:04Z</time>
      </trkpt>
      <trkpt lat="45.83666" lon="1.17429">
        <ele>317.4</ele>
        <time>2024-11-18T15:12:07Z</time>
      </trkpt>
      <trkpt lat="45.83669" lon="1.1741">
        <ele>317.4</ele>
        <time>2024-11-18T15:12:10Z</time>
      </trkpt>
      <trkpt lat="45.83672" lon="1.17392">
        <ele>317.5</ele>
        <time>2024-11-18T15:12:13Z</time>
      </trkpt>
      <trkpt lat="45.83678" lon="1.17376">
        <ele>317.5</ele>
        <time>2024-11-18T15:12:16Z</time>
      </trkpt>
      <trkpt lat="45.83686" lon="1.17361">
        <ele>317.8</ele>
        <time>2024-11-18T15:12:19Z</time>
      </trkpt>
      <trkpt lat="45.83695" lon="1.17347">
        <ele>318.3</ele>
        <time>2024-11-18T15:12:22Z</time>
      </trkpt>
      <trkpt lat="45.83701" lon="1.17334">
        <ele>318.7</ele>
        <time>2024-11-18T15:12:25Z</time>
      </trkpt>
      <trkpt lat="45.83706" lon="1.17321">
        <ele>319</ele>
        <time>2024-11-18T15:12:28Z</time>
      </trkpt>
      <trkpt lat="45.8371" lon="1.17307">
        <ele>319.4</ele>
        <time>2024-11-18T15:12:31Z</time>
      </trkpt>
      <trkpt lat="45.83715" lon="1.17292">
        <ele>319.8</ele>
        <time>2024-11-18T15:12:34Z</time>
      </trkpt>
      <trkpt lat="45.83724" lon="1.17288">
        <ele>320.4</ele>
        <time>2024-11-18T15:12:37Z</time>
      </trkpt>
      <trkpt lat="45.83734" lon="1.17296">
        <ele>321</ele>
        <time>2024-11-18T15:12:40Z</time>
      </trkpt>
      <trkpt lat="45.83743" lon="1.17303">
        <ele>321.4</ele>
        <time>2024-11-18T15:12:43Z</time>
      </trkpt>
      <trkpt lat="45.83753" lon="1.17309">
        <ele>321.8</ele>
        <time>2024-11-18T15:12:46Z</time>
      </trkpt>
      <trkpt lat="45.83763" lon="1.17315">
        <ele>322.3</ele>
        <time>2024-11-18T15:12:49Z</time>
      </trkpt>
      <trkpt lat="45.83773" lon="1.17321">
        <ele>322.8</ele>
        <time>2024-11-18T15:12:52Z</time>
      </trkpt>
      <trkpt lat="45.83783" lon="1.17326">
        <ele>323.4</ele>
        <time>2024-11-18T15:12:55Z</time>
      </trkpt>
      <trkpt lat="45.83792" lon="1.17332">
        <ele>323.9</ele>
        <time>2024-11-18T15:12:58Z</time>
      </trkpt>
      <trkpt lat="45.83802" lon="1.17338">
        <ele>324.5</ele>
        <time>2024-11-18T15:13:01Z</time>
      </trkpt>
      <trkpt lat="45.83811" lon="1.17343">
        <ele>324.9</ele>
        <time>2024-11-18T15:13:04Z</time>
      </trkpt>
      <trkpt lat="45.83819" lon="1.17349">
        <ele>325</ele>
        <time>2024-11-18T15:13:07Z</time>
      </trkpt>
      <trkpt lat="45.83827" lon="1.17353">
        <ele>325.6</ele>
        <time>2024-11-18T15:13:10Z</time>
      </trkpt>
      <trkpt lat="45.83834" lon="1.17358">
        <ele>326.3</ele>
        <time>2024-11-18T15:13:13Z</time>
      </trkpt>
      <trkpt lat="45.83842" lon="1.17363">
        <ele>327.1</ele>
        <time>2024-11-18T15:13:16Z</time>
      </trkpt>
      <trkpt lat="45.83849" lon="1.17367">
        <ele>327.9</ele>
        <time>2024-11-18T15:13:19Z</time>
      </trkpt>
      <trkpt lat="45.83856" lon="1.17372">
        <ele>328.8</ele>
        <time>2024-11-18T15:13:22Z</time>
      </trkpt>
      <trkpt lat="45.83863" lon="1.17377">
        <ele>329.7</ele>
        <time>2024-11-18T15:13:25Z</time>
      </trkpt>
      <trkpt lat="45.8387" lon="1.17381">
        <ele>330.6</ele>
        <time>2024-11-18T15:13:28Z</time>
      </trkpt>
      <trkpt lat="45.83877" lon="1.17383">
        <ele>331.4</ele>
        <time>2024-11-18T15:13:31Z</time>
      </trkpt>
      <trkpt lat="45.83883" lon="1.17387">
        <ele>332.2</ele>
        <time>2024-11-18T15:13:34Z</time>
      </trkpt>
      <trkpt lat="45.83889" lon="1.17391">
        <ele>333</ele>
        <time>2024-11-18T15:13:37Z</time>
      </trkpt>
      <trkpt lat="45.83896" lon="1.17395">
        <ele>333.8</ele>
        <time>2024-11-18T15:13:40Z</time>
      </trkpt>
      <trkpt lat="45.83903" lon="1.174">
        <ele>334.5</ele>
        <time>2024-11-18T15:13:43Z</time>
      </trkpt>
      <trkpt lat="45.8391" lon="1.17405">
        <ele>335.3</ele>
        <time>2024-11-18T15:13:46Z</time>
      </trkpt>
      <trkpt lat="45.83917" lon="1.17407">
        <ele>335.9</ele>
        <time>2024-11-18T15:13:49Z</time>
      </trkpt>
      <trkpt lat="45.83924" lon="1.17412">
        <ele>336.5</ele>
        <time>2024-11-18T15:13:52Z</time>
      </trkpt>
      <trkpt lat="45.8393" lon="1.17417">
        <ele>337</ele>
        <time>2024-11-18T15:13:55Z</time>
      </trkpt>
      <trkpt lat="45.83938" lon="1.17422">
        <ele>337.5</ele>
        <time>2024-11-18T15:13:58Z</time>
      </trkpt>
      <trkpt lat="45.83946" lon="1.17428">
        <ele>337.9</ele>
        <time>2024-11-18T15:14:01Z</time>
      </trkpt>
      <trkpt lat="45.83955" lon="1.17434">
        <ele>338.3</ele>
        <time>2024-11-18T15:14:04Z</time>
      </trkpt>
      <trkpt lat="45.83965" lon="1.17441">
        <ele>338.7</ele>
        <time>2024-11-18T15:14:07Z</time>
      </trkpt>
      <trkpt lat="45.83972" lon="1.17447">
        <ele>338.9</ele>
        <time>2024-11-18T15:14:10Z</time>
      </trkpt>
      <trkpt lat="45.8398" lon="1.17456">
        <ele>339.2</ele>
        <time>2024-11-18T15:14:13Z</time>
      </trkpt>
      <trkpt lat="45.83988" lon="1.17465">
        <ele>339.5</ele>
        <time>2024-11-18T15:14:16Z</time>
      </trkpt>
      <trkpt lat="45.83997" lon="1.17472">
        <ele>339.8</ele>
        <time>2024-11-18T15:14:19Z</time>
      </trkpt>
      <trkpt lat="45.84006" lon="1.17479">
        <ele>340</ele>
        <time>2024-11-18T15:14:22Z</time>
      </trkpt>
      <trkpt lat="45.84016" lon="1.17486">
        <ele>340.2</ele>
        <time>2024-11-18T15:14:25Z</time>
      </trkpt>
      <trkpt lat="45.84026" lon="1.17494">
        <ele>340.3</ele>
        <time>2024-11-18T15:14:28Z</time>
      </trkpt>
      <trkpt lat="45.84037" lon="1.17503">
        <ele>340.5</ele>
        <time>2024-11-18T15:14:31Z</time>
      </trkpt>
      <trkpt lat="45.84048" lon="1.17511">
        <ele>340.7</ele>
        <time>2024-11-18T15:14:34Z</time>
      </trkpt>
      <trkpt lat="45.84058" lon="1.17518">
        <ele>340.8</ele>
        <time>2024-11-18T15:14:37Z</time>
      </trkpt>
      <trkpt lat="45.84069" lon="1.17525">
        <ele>341</ele>
        <time>2024-11-18T15:14:40Z</time>
      </trkpt>
      <trkpt lat="45.84079" lon="1.17533">
        <ele>341.1</ele>
        <time>2024-11-18T15:14:43Z</time>
      </trkpt>
      <trkpt lat="45.8409" lon="1.17539">
        <ele>341.3</ele>
        <time>2024-11-18T15:14:46Z</time>
      </trkpt>
      <trkpt lat="45.84099" lon="1.17547">
        <ele>341.5</ele>
        <time>2024-11-18T15:14:49Z</time>
      </trkpt>
      <trkpt lat="45.84109" lon="1.17553">
        <ele>341.7</ele>
        <time>2024-11-18T15:14:52Z</time>
      </trkpt>
      <trkpt lat="45.84119" lon="1.1756">
        <ele>341.9</ele>
        <time>2024-11-18T15:14:55Z</time>
      </trkpt>
      <trkpt lat="45.84129" lon="1.17567">
        <ele>342</ele>
        <time>2024-11-18T15:14:58Z</time>
      </trkpt>
      <trkpt lat="45.84138" lon="1.17574">
        <ele>342.2</ele>
        <time>2024-11-18T15:15:01Z</time>
      </trkpt>
      <trkpt lat="45.84148" lon="1.17581">
        <ele>342.5</ele>
        <time>2024-11-18T15:15:04Z</time>
      </trkpt>
      <trkpt lat="45.84157" lon="1.17589">
        <ele>342.7</ele>
        <time>2024-11-18T15:15:07Z</time>
      </trkpt>
      <trkpt lat="45.84167" lon="1.17596">
        <ele>343</ele>
        <time>2024-11-18T15:15:10Z</time>
      </trkpt>
      <trkpt lat="45.84176" lon="1.17602">
        <ele>343.2</ele>
        <time>2024-11-18T15:15:13Z</time>
      </trkpt>
      <trkpt lat="45.84185" lon="1.1761">
        <ele>343.4</ele>
        <time>2024-11-18T15:15:16Z</time>
      </trkpt>
      <trkpt lat="45.84193" lon="1.1762">
        <ele>343.6</ele>
        <time>2024-11-18T15:15:19Z</time>
      </trkpt>
      <trkpt lat="45.84202" lon="1.17628">
        <ele>343.9</ele>
        <time>2024-11-18T15:15:22Z</time>
      </trkpt>
      <trkpt lat="45.84211" lon="1.17635">
        <ele>344.4</ele>
        <time>2024-11-18T15:15:25Z</time>
      </trkpt>
      <trkpt lat="45.84221" lon="1.17641">
        <ele>344.9</ele>
        <time>2024-11-18T15:15:28Z</time>
      </trkpt>
      <trkpt lat="45.84231" lon="1.17648">
        <ele>345.4</ele>
        <time>2024-11-18T15:15:31Z</time>
      </trkpt>
      <trkpt lat="45.84241" lon="1.1765">
        <ele>345.9</ele>
        <time>2024-11-18T15:15:34Z</time>
      </trkpt>
      <trkpt lat="45.84249" lon="1.1765">
        <ele>346.2</ele>
        <time>2024-11-18T15:15:37Z</time>
      </trkpt>
      <trkpt lat="45.84257" lon="1.17661">
        <ele>346.6</ele>
        <time>2024-11-18T15:15:40Z</time>
      </trkpt>
      <trkpt lat="45.84264" lon="1.17672">
        <ele>346.9</ele>
        <time>2024-11-18T15:15:43Z</time>
      </trkpt>
      <trkpt lat="45.84273" lon="1.1768">
        <ele>347.3</ele>
        <time>2024-11-18T15:15:46Z</time>
      </trkpt>
      <trkpt lat="45.84271" lon="1.17692">
        <ele>347.4</ele>
        <time>2024-11-18T15:15:49Z</time>
      </trkpt>
      <trkpt lat="45.84265" lon="1.17708">
        <ele>347.4</ele>
        <time>2024-11-18T15:15:52Z</time>
      </trkpt>
      <trkpt lat="45.84259" lon="1.17722">
        <ele>347.3</ele>
        <time>2024-11-18T15:15:55Z</time>
      </trkpt>
      <trkpt lat="45.84255" lon="1.17738">
        <ele>347.4</ele>
        <time>2024-11-18T15:15:58Z</time>
      </trkpt>
      <trkpt lat="45.84253" lon="1.17754">
        <ele>347.5</ele>
        <time>2024-11-18T15:16:01Z</time>
      </trkpt>
      <trkpt lat="45.84249" lon="1.17765">
        <ele>347.5</ele>
        <time>2024-11-18T15:16:04Z</time>
      </trkpt>
      <trkpt lat="45.84245" lon="1.17771">
        <ele>347.4</ele>
        <time>2024-11-18T15:16:07Z</time>
      </trkpt>
      <trkpt lat="45.84243" lon="1.17776">
        <ele>347.3</ele>
        <time>2024-11-18T15:16:10Z</time>
      </trkpt>
      <trkpt lat="45.84241" lon="1.17791">
        <ele>347.3</ele>
        <time>2024-11-18T15:16:13Z</time>
      </trkpt>
      <trkpt lat="45.84236" lon="1.17809">
        <ele>347.2</ele>
        <time>2024-11-18T15:16:16Z</time>
      </trkpt>
      <trkpt lat="45.84232" lon="1.17826">
        <ele>347.1</ele>
        <time>2024-11-18T15:16:19Z</time>
      </trkpt>
      <trkpt lat="45.84232" lon="1.17834">
        <ele>347</ele>
        <time>2024-11-18T15:16:22Z</time>
      </trkpt>
      <trkpt lat="45.84231" lon="1.17848">
        <ele>346.7</ele>
        <time>2024-11-18T15:16:25Z</time>
      </trkpt>
      <trkpt lat="45.84223" lon="1.17857">
        <ele>346.6</ele>
        <time>2024-11-18T15:16:28Z</time>
      </trkpt>
      <trkpt lat="45.84213" lon="1.17871">
        <ele>346.4</ele>
        <time>2024-11-18T15:16:31Z</time>
      </trkpt>
      <trkpt lat="45.84204" lon="1.17885">
        <ele>346.2</ele>
        <time>2024-11-18T15:16:34Z</time>
      </trkpt>
      <trkpt lat="45.84195" lon="1.17903">
        <ele>346.2</ele>
        <time>2024-11-18T15:16:37Z</time>
      </trkpt>
      <trkpt lat="45.84186" lon="1.17918">
        <ele>346.2</ele>
        <time>2024-11-18T15:16:40Z</time>
      </trkpt>
      <trkpt lat="45.84176" lon="1.17933">
        <ele>346.2</ele>
        <time>2024-11-18T15:16:43Z</time>
      </trkpt>
      <trkpt lat="45.84164" lon="1.17949">
        <ele>346.2</ele>
        <time>2024-11-18T15:16:46Z</time>
      </trkpt>
      <trkpt lat="45.84155" lon="1.17965">
        <ele>346.2</ele>
        <time>2024-11-18T15:16:49Z</time>
      </trkpt>
      <trkpt lat="45.84142" lon="1.1798">
        <ele>346.2</ele>
        <time>2024-11-18T15:16:52Z</time>
      </trkpt>
      <trkpt lat="45.84129" lon="1.17996">
        <ele>346.1</ele>
        <time>2024-11-18T15:16:55Z</time>
      </trkpt>
      <trkpt lat="45.8412" lon="1.1801">
        <ele>345.9</ele>
        <time>2024-11-18T15:16:58Z</time>
      </trkpt>
      <trkpt lat="45.84108" lon="1.18028">
        <ele>345.5</ele>
        <time>2024-11-18T15:17:01Z</time>
      </trkpt>
      <trkpt lat="45.84096" lon="1.18045">
        <ele>344.9</ele>
        <time>2024-11-18T15:17:04Z</time>
      </trkpt>
      <trkpt lat="45.84083" lon="1.18061">
        <ele>344.2</ele>
        <time>2024-11-18T15:17:07Z</time>
      </trkpt>
      <trkpt lat="45.8407" lon="1.18081">
        <ele>343.4</ele>
        <time>2024-11-18T15:17:10Z</time>
      </trkpt>
      <trkpt lat="45.8406" lon="1.18098">
        <ele>342.9</ele>
        <time>2024-11-18T15:17:13Z</time>
      </trkpt>
      <trkpt lat="45.84046" lon="1.18117">
        <ele>342.3</ele>
        <time>2024-11-18T15:17:16Z</time>
      </trkpt>
      <trkpt lat="45.84032" lon="1.18136">
        <ele>341.8</ele>
        <time>2024-11-18T15:17:19Z</time>
      </trkpt>
      <trkpt lat="45.84021" lon="1.18153">
        <ele>341.4</ele>
        <time>2024-11-18T15:17:22Z</time>
      </trkpt>
      <trkpt lat="45.84009" lon="1.18172">
        <ele>340.9</ele>
        <time>2024-11-18T15:17:25Z</time>
      </trkpt>
      <trkpt lat="45.83995" lon="1.18189">
        <ele>340.3</ele>
        <time>2024-11-18T15:17:28Z</time>
      </trkpt>
      <trkpt lat="45.83984" lon="1.1821">
        <ele>339.7</ele>
        <time>2024-11-18T15:17:31Z</time>
      </trkpt>
      <trkpt lat="45.8397" lon="1.18227">
        <ele>339.2</ele>
        <time>2024-11-18T15:17:34Z</time>
      </trkpt>
      <trkpt lat="45.83961" lon="1.18243">
        <ele>338.9</ele>
        <time>2024-11-18T15:17:37Z</time>
      </trkpt>
      <trkpt lat="45.8395" lon="1.18263">
        <ele>338.7</ele>
        <time>2024-11-18T15:17:40Z</time>
      </trkpt>
      <trkpt lat="45.83944" lon="1.18283">
        <ele>338.5</ele>
        <time>2024-11-18T15:17:43Z</time>
      </trkpt>
      <trkpt lat="45.83941" lon="1.18305">
        <ele>338.2</ele>
        <time>2024-11-18T15:17:46Z</time>
      </trkpt>
      <trkpt lat="45.83938" lon="1.18331">
        <ele>337.6</ele>
        <time>2024-11-18T15:17:49Z</time>
      </trkpt>
      <trkpt lat="45.83934" lon="1.18348">
        <ele>337</ele>
        <time>2024-11-18T15:17:52Z</time>
      </trkpt>
      <trkpt lat="45.83918" lon="1.18358">
        <ele>336.6</ele>
        <time>2024-11-18T15:17:55Z</time>
      </trkpt>
      <trkpt lat="45.83903" lon="1.18362">
        <ele>336.5</ele>
        <time>2024-11-18T15:17:58Z</time>
      </trkpt>
      <trkpt lat="45.8389" lon="1.18371">
        <ele>336.3</ele>
        <time>2024-11-18T15:18:01Z</time>
      </trkpt>
      <trkpt lat="45.83886" lon="1.18383">
        <ele>336.1</ele>
        <time>2024-11-18T15:18:04Z</time>
      </trkpt>
      <trkpt lat="45.83878" lon="1.18398">
        <ele>335.6</ele>
        <time>2024-11-18T15:18:07Z</time>
      </trkpt>
      <trkpt lat="45.83868" lon="1.18417">
        <ele>334.7</ele>
        <time>2024-11-18T15:18:10Z</time>
      </trkpt>
      <trkpt lat="45.8386" lon="1.18434">
        <ele>333.7</ele>
        <time>2024-11-18T15:18:13Z</time>
      </trkpt>
      <trkpt lat="45.83854" lon="1.18453">
        <ele>332.4</ele>
        <time>2024-11-18T15:18:16Z</time>
      </trkpt>
      <trkpt lat="45.83852" lon="1.18476">
        <ele>330.6</ele>
        <time>2024-11-18T15:18:19Z</time>
      </trkpt>
      <trkpt lat="45.83849" lon="1.18509">
        <ele>328.3</ele>
        <time>2024-11-18T15:18:22Z</time>
      </trkpt>
      <trkpt lat="45.83843" lon="1.18535">
        <ele>327</ele>
        <time>2024-11-18T15:18:25Z</time>
      </trkpt>
      <trkpt lat="45.83834" lon="1.18553">
        <ele>326.2</ele>
        <time>2024-11-18T15:18:28Z</time>
      </trkpt>
      <trkpt lat="45.83824" lon="1.18577">
        <ele>325</ele>
        <time>2024-11-18T15:18:31Z</time>
      </trkpt>
      <trkpt lat="45.83814" lon="1.18601">
        <ele>323.7</ele>
        <time>2024-11-18T15:18:34Z</time>
      </trkpt>
      <trkpt lat="45.83802" lon="1.18627">
        <ele>322.3</ele>
        <time>2024-11-18T15:18:37Z</time>
      </trkpt>
      <trkpt lat="45.83792" lon="1.18654">
        <ele>320.7</ele>
        <time>2024-11-18T15:18:40Z</time>
      </trkpt>
      <trkpt lat="45.83782" lon="1.18679">
        <ele>319.3</ele>
        <time>2024-11-18T15:18:43Z</time>
      </trkpt>
      <trkpt lat="45.83773" lon="1.18705">
        <ele>317.9</ele>
        <time>2024-11-18T15:18:46Z</time>
      </trkpt>
      <trkpt lat="45.83766" lon="1.18725">
        <ele>316.9</ele>
        <time>2024-11-18T15:18:49Z</time>
      </trkpt>
      <trkpt lat="45.8376" lon="1.18739">
        <ele>316.2</ele>
        <time>2024-11-18T15:18:52Z</time>
      </trkpt>
      <trkpt lat="45.83765" lon="1.18749">
        <ele>315.7</ele>
        <time>2024-11-18T15:18:55Z</time>
      </trkpt>
      <trkpt lat="45.83776" lon="1.18755">
        <ele>315.5</ele>
        <time>2024-11-18T15:18:58Z</time>
      </trkpt>
      <trkpt lat="45.83791" lon="1.18762">
        <ele>315.1</ele>
        <time>2024-11-18T15:19:01Z</time>
      </trkpt>
      <trkpt lat="45.83807" lon="1.18772">
        <ele>314.5</ele>
        <time>2024-11-18T15:19:04Z</time>
      </trkpt>
      <trkpt lat="45.83825" lon="1.18782">
        <ele>313.9</ele>
        <time>2024-11-18T15:19:07Z</time>
      </trkpt>
      <trkpt lat="45.8384" lon="1.18791">
        <ele>313.8</ele>
        <time>2024-11-18T15:19:10Z</time>
      </trkpt>
      <trkpt lat="45.83853" lon="1.18797">
        <ele>313.8</ele>
        <time>2024-11-18T15:19:13Z</time>
      </trkpt>
      <trkpt lat="45.8387" lon="1.18805">
        <ele>313.6</ele>
        <time>2024-11-18T15:19:16Z</time>
      </trkpt>
      <trkpt lat="45.83885" lon="1.18812">
        <ele>313.5</ele>
        <time>2024-11-18T15:19:19Z</time>
      </trkpt>
      <trkpt lat="45.83901" lon="1.18814">
        <ele>313.5</ele>
        <time>2024-11-18T15:19:22Z</time>
      </trkpt>
      <trkpt lat="45.83916" lon="1.18815">
        <ele>313.7</ele>
        <time>2024-11-18T15:19:25Z</time>
      </trkpt>
      <trkpt lat="45.83931" lon="1.18817">
        <ele>314.1</ele>
        <time>2024-11-18T15:19:28Z</time>
      </trkpt>
      <trkpt lat="45.8394" lon="1.18821">
        <ele>314.9</ele>
        <time>2024-11-18T15:19:31Z</time>
      </trkpt>
      <trkpt lat="45.8395" lon="1.18823">
        <ele>315.8</ele>
        <time>2024-11-18T15:19:34Z</time>
      </trkpt>
      <trkpt lat="45.83957" lon="1.18826">
        <ele>316.6</ele>
        <time>2024-11-18T15:19:37Z</time>
      </trkpt>
      <trkpt lat="45.83964" lon="1.18829">
        <ele>317.5</ele>
        <time>2024-11-18T15:19:40Z</time>
      </trkpt>
      <trkpt lat="45.8397" lon="1.18832">
        <ele>318.4</ele>
        <time>2024-11-18T15:19:43Z</time>
      </trkpt>
      <trkpt lat="45.83974" lon="1.18834">
        <ele>318.9</ele>
        <time>2024-11-18T15:19:46Z</time>
      </trkpt>
      <trkpt lat="45.83979" lon="1.18837">
        <ele>319.7</ele>
        <time>2024-11-18T15:19:49Z</time>
      </trkpt>
      <trkpt lat="45.83985" lon="1.18843">
        <ele>320.7</ele>
        <time>2024-11-18T15:19:52Z</time>
      </trkpt>
      <trkpt lat="45.83992" lon="1.18848">
        <ele>321.6</ele>
        <time>2024-11-18T15:19:55Z</time>
      </trkpt>
      <trkpt lat="45.83999" lon="1.18854">
        <ele>322.4</ele>
        <time>2024-11-18T15:19:58Z</time>
      </trkpt>
      <trkpt lat="45.84004" lon="1.1886">
        <ele>323.1</ele>
        <time>2024-11-18T15:20:01Z</time>
      </trkpt>
      <trkpt lat="45.84009" lon="1.18865">
        <ele>323.8</ele>
        <time>2024-11-18T15:20:04Z</time>
      </trkpt>
      <trkpt lat="45.84014" lon="1.18872">
        <ele>324.5</ele>
        <time>2024-11-18T15:20:07Z</time>
      </trkpt>
      <trkpt lat="45.8402" lon="1.18877">
        <ele>325.1</ele>
        <time>2024-11-18T15:20:10Z</time>
      </trkpt>
      <trkpt lat="45.84026" lon="1.18883">
        <ele>325.7</ele>
        <time>2024-11-18T15:20:13Z</time>
      </trkpt>
      <trkpt lat="45.84032" lon="1.18889">
        <ele>326.3</ele>
        <time>2024-11-18T15:20:16Z</time>
      </trkpt>
      <trkpt lat="45.84037" lon="1.18897">
        <ele>326.8</ele>
        <time>2024-11-18T15:20:19Z</time>
      </trkpt>
      <trkpt lat="45.84043" lon="1.18903">
        <ele>327.4</ele>
        <time>2024-11-18T15:20:22Z</time>
      </trkpt>
      <trkpt lat="45.84048" lon="1.18909">
        <ele>327.9</ele>
        <time>2024-11-18T15:20:25Z</time>
      </trkpt>
      <trkpt lat="45.84054" lon="1.18915">
        <ele>328.4</ele>
        <time>2024-11-18T15:20:28Z</time>
      </trkpt>
      <trkpt lat="45.8406" lon="1.18922">
        <ele>328.8</ele>
        <time>2024-11-18T15:20:31Z</time>
      </trkpt>
      <trkpt lat="45.84068" lon="1.1893">
        <ele>329.4</ele>
        <time>2024-11-18T15:20:34Z</time>
      </trkpt>
      <trkpt lat="45.84073" lon="1.18937">
        <ele>329.7</ele>
        <time>2024-11-18T15:20:37Z</time>
      </trkpt>
      <trkpt lat="45.84078" lon="1.18944">
        <ele>330.1</ele>
        <time>2024-11-18T15:20:40Z</time>
      </trkpt>
      <trkpt lat="45.84085" lon="1.18951">
        <ele>330.5</ele>
        <time>2024-11-18T15:20:43Z</time>
      </trkpt>
      <trkpt lat="45.84091" lon="1.18958">
        <ele>330.8</ele>
        <time>2024-11-18T15:20:46Z</time>
      </trkpt>
      <trkpt lat="45.84098" lon="1.18967">
        <ele>331.2</ele>
        <time>2024-11-18T15:20:49Z</time>
      </trkpt>
      <trkpt lat="45.84105" lon="1.18975">
        <ele>331.4</ele>
        <time>2024-11-18T15:20:52Z</time>
      </trkpt>
      <trkpt lat="45.84112" lon="1.18978">
        <ele>331.6</ele>
        <time>2024-11-18T15:20:55Z</time>
      </trkpt>
      <trkpt lat="45.84116" lon="1.18986">
        <ele>331.8</ele>
        <time>2024-11-18T15:20:58Z</time>
      </trkpt>
      <trkpt lat="45.84112" lon="1.18998">
        <ele>331.2</ele>
        <time>2024-11-18T15:21:01Z</time>
      </trkpt>
      <trkpt lat="45.84106" lon="1.19016">
        <ele>330.4</ele>
        <time>2024-11-18T15:21:04Z</time>
      </trkpt>
      <trkpt lat="45.841" lon="1.19035">
        <ele>329.7</ele>
        <time>2024-11-18T15:21:07Z</time>
      </trkpt>
      <trkpt lat="45.84091" lon="1.19056">
        <ele>329.1</ele>
        <time>2024-11-18T15:21:10Z</time>
      </trkpt>
      <trkpt lat="45.84085" lon="1.19075">
        <ele>328.6</ele>
        <time>2024-11-18T15:21:13Z</time>
      </trkpt>
      <trkpt lat="45.84077" lon="1.19097">
        <ele>328.2</ele>
        <time>2024-11-18T15:21:16Z</time>
      </trkpt>
      <trkpt lat="45.84072" lon="1.19117">
        <ele>328</ele>
        <time>2024-11-18T15:21:19Z</time>
      </trkpt>
      <trkpt lat="45.84075" lon="1.1913">
        <ele>328.3</ele>
        <time>2024-11-18T15:21:22Z</time>
      </trkpt>
      <trkpt lat="45.84082" lon="1.1914">
        <ele>328.7</ele>
        <time>2024-11-18T15:21:25Z</time>
      </trkpt>
      <trkpt lat="45.84085" lon="1.19152">
        <ele>329</ele>
        <time>2024-11-18T15:21:28Z</time>
      </trkpt>
      <trkpt lat="45.8409" lon="1.19166">
        <ele>329.4</ele>
        <time>2024-11-18T15:21:31Z</time>
      </trkpt>
      <trkpt lat="45.84097" lon="1.19176">
        <ele>329.9</ele>
        <time>2024-11-18T15:21:34Z</time>
      </trkpt>
      <trkpt lat="45.84105" lon="1.19185">
        <ele>330.4</ele>
        <time>2024-11-18T15:21:37Z</time>
      </trkpt>
      <trkpt lat="45.84113" lon="1.19194">
        <ele>330.6</ele>
        <time>2024-11-18T15:21:40Z</time>
      </trkpt>
      <trkpt lat="45.8412" lon="1.19203">
        <ele>330.7</ele>
        <time>2024-11-18T15:21:43Z</time>
      </trkpt>
      <trkpt lat="45.84124" lon="1.19211">
        <ele>330.8</ele>
        <time>2024-11-18T15:21:46Z</time>
      </trkpt>
      <trkpt lat="45.84131" lon="1.19214">
        <ele>331</ele>
        <time>2024-11-18T15:21:49Z</time>
      </trkpt>
      <trkpt lat="45.84139" lon="1.19209">
        <ele>331.5</ele>
        <time>2024-11-18T15:21:52Z</time>
      </trkpt>
      <trkpt lat="45.84142" lon="1.19216">
        <ele>332</ele>
        <time>2024-11-18T15:21:55Z</time>
      </trkpt>
      <trkpt lat="45.84147" lon="1.19225">
        <ele>332.5</ele>
        <time>2024-11-18T15:21:58Z</time>
      </trkpt>
      <trkpt lat="45.84155" lon="1.19235">
        <ele>334</ele>
        <time>2024-11-18T15:22:01Z</time>
      </trkpt>
      <trkpt lat="45.84162" lon="1.19244">
        <ele>335</ele>
        <time>2024-11-18T15:22:04Z</time>
      </trkpt>
      <trkpt lat="45.84169" lon="1.19254">
        <ele>336.1</ele>
        <time>2024-11-18T15:22:07Z</time>
      </trkpt>
      <trkpt lat="45.84175" lon="1.19263">
        <ele>336.7</ele>
        <time>2024-11-18T15:22:10Z</time>
      </trkpt>
      <trkpt lat="45.84181" lon="1.19271">
        <ele>337.3</ele>
        <time>2024-11-18T15:22:13Z</time>
      </trkpt>
      <trkpt lat="45.84186" lon="1.19279">
        <ele>337.6</ele>
        <time>2024-11-18T15:22:16Z</time>
      </trkpt>
      <trkpt lat="45.84191" lon="1.19287">
        <ele>338.2</ele>
        <time>2024-11-18T15:22:19Z</time>
      </trkpt>
      <trkpt lat="45.84197" lon="1.19296">
        <ele>338.7</ele>
        <time>2024-11-18T15:22:22Z</time>
      </trkpt>
      <trkpt lat="45.84204" lon="1.19304">
        <ele>339.1</ele>
        <time>2024-11-18T15:22:25Z</time>
      </trkpt>
      <trkpt lat="45.8421" lon="1.19311">
        <ele>339.4</ele>
        <time>2024-11-18T15:22:28Z</time>
      </trkpt>
      <trkpt lat="45.84215" lon="1.19319">
        <ele>339.6</ele>
        <time>2024-11-18T15:22:31Z</time>
      </trkpt>
      <trkpt lat="45.84223" lon="1.19328">
        <ele>339.9</ele>
        <time>2024-11-18T15:22:34Z</time>
      </trkpt>
      <trkpt lat="45.84232" lon="1.19337">
        <ele>340.2</ele>
        <time>2024-11-18T15:22:37Z</time>
      </trkpt>
      <trkpt lat="45.84238" lon="1.19347">
        <ele>340.3</ele>
        <time>2024-11-18T15:22:40Z</time>
      </trkpt>
      <trkpt lat="45.84246" lon="1.19356">
        <ele>340.5</ele>
        <time>2024-11-18T15:22:43Z</time>
      </trkpt>
      <trkpt lat="45.84253" lon="1.19364">
        <ele>340.9</ele>
        <time>2024-11-18T15:22:46Z</time>
      </trkpt>
      <trkpt lat="45.84259" lon="1.19374">
        <ele>341.1</ele>
        <time>2024-11-18T15:22:49Z</time>
      </trkpt>
      <trkpt lat="45.84263" lon="1.19381">
        <ele>341.2</ele>
        <time>2024-11-18T15:22:52Z</time>
      </trkpt>
      <trkpt lat="45.84269" lon="1.19385">
        <ele>341.5</ele>
        <time>2024-11-18T15:22:55Z</time>
      </trkpt>
      <trkpt lat="45.84271" lon="1.19386">
        <ele>341.7</ele>
        <time>2024-11-18T15:22:58Z</time>
      </trkpt>
      <trkpt lat="45.84275" lon="1.19392">
        <ele>341.9</ele>
        <time>2024-11-18T15:23:01Z</time>
      </trkpt>
      <trkpt lat="45.84282" lon="1.194">
        <ele>342.1</ele>
        <time>2024-11-18T15:23:04Z</time>
      </trkpt>
      <trkpt lat="45.8429" lon="1.19408">
        <ele>342.3</ele>
        <time>2024-11-18T15:23:07Z</time>
      </trkpt>
      <trkpt lat="45.84297" lon="1.19417">
        <ele>342.5</ele>
        <time>2024-11-18T15:23:10Z</time>
      </trkpt>
      <trkpt lat="45.84305" lon="1.19429">
        <ele>342.8</ele>
        <time>2024-11-18T15:23:13Z</time>
      </trkpt>
      <trkpt lat="45.84312" lon="1.19439">
        <ele>343.1</ele>
        <time>2024-11-18T15:23:16Z</time>
      </trkpt>
      <trkpt lat="45.84319" lon="1.1945">
        <ele>343.4</ele>
        <time>2024-11-18T15:23:19Z</time>
      </trkpt>
      <trkpt lat="45.84328" lon="1.19461">
        <ele>343.7</ele>
        <time>2024-11-18T15:23:22Z</time>
      </trkpt>
      <trkpt lat="45.84337" lon="1.19469">
        <ele>343.4</ele>
        <time>2024-11-18T15:23:25Z</time>
      </trkpt>
      <trkpt lat="45.84345" lon="1.19476">
        <ele>343.5</ele>
        <time>2024-11-18T15:23:28Z</time>
      </trkpt>
      <trkpt lat="45.84353" lon="1.19483">
        <ele>343.4</ele>
        <time>2024-11-18T15:23:31Z</time>
      </trkpt>
      <trkpt lat="45.84362" lon="1.1949">
        <ele>343.4</ele>
        <time>2024-11-18T15:23:34Z</time>
      </trkpt>
      <trkpt lat="45.84372" lon="1.19495">
        <ele>343.2</ele>
        <time>2024-11-18T15:23:37Z</time>
      </trkpt>
      <trkpt lat="45.84382" lon="1.19497">
        <ele>343</ele>
        <time>2024-11-18T15:23:40Z</time>
      </trkpt>
      <trkpt lat="45.84392" lon="1.19503">
        <ele>342.7</ele>
        <time>2024-11-18T15:23:43Z</time>
      </trkpt>
      <trkpt lat="45.84403" lon="1.1951">
        <ele>342.1</ele>
        <time>2024-11-18T15:23:46Z</time>
      </trkpt>
      <trkpt lat="45.84417" lon="1.19515">
        <ele>341.3</ele>
        <time>2024-11-18T15:23:49Z</time>
      </trkpt>
      <trkpt lat="45.84432" lon="1.19523">
        <ele>340.3</ele>
        <time>2024-11-18T15:23:52Z</time>
      </trkpt>
      <trkpt lat="45.84448" lon="1.19528">
        <ele>339.1</ele>
        <time>2024-11-18T15:23:55Z</time>
      </trkpt>
      <trkpt lat="45.84464" lon="1.19534">
        <ele>337.8</ele>
        <time>2024-11-18T15:23:58Z</time>
      </trkpt>
      <trkpt lat="45.84482" lon="1.19544">
        <ele>336.3</ele>
        <time>2024-11-18T15:24:01Z</time>
      </trkpt>
      <trkpt lat="45.84495" lon="1.19553">
        <ele>335.4</ele>
        <time>2024-11-18T15:24:04Z</time>
      </trkpt>
      <trkpt lat="45.84501" lon="1.19561">
        <ele>335</ele>
        <time>2024-11-18T15:24:07Z</time>
      </trkpt>
      <trkpt lat="45.84502" lon="1.19575">
        <ele>333.4</ele>
        <time>2024-11-18T15:24:10Z</time>
      </trkpt>
      <trkpt lat="45.8449" lon="1.1959">
        <ele>332.4</ele>
        <time>2024-11-18T15:24:13Z</time>
      </trkpt>
      <trkpt lat="45.84479" lon="1.19605">
        <ele>331.8</ele>
        <time>2024-11-18T15:24:16Z</time>
      </trkpt>
      <trkpt lat="45.84487" lon="1.1962">
        <ele>331.7</ele>
        <time>2024-11-18T15:24:19Z</time>
      </trkpt>
      <trkpt lat="45.84505" lon="1.19624">
        <ele>332.1</ele>
        <time>2024-11-18T15:24:22Z</time>
      </trkpt>
      <trkpt lat="45.84518" lon="1.1963">
        <ele>332.5</ele>
        <time>2024-11-18T15:24:25Z</time>
      </trkpt>
      <trkpt lat="45.84516" lon="1.19644">
        <ele>332.5</ele>
        <time>2024-11-18T15:24:28Z</time>
      </trkpt>
      <trkpt lat="45.84511" lon="1.19663">
        <ele>332</ele>
        <time>2024-11-18T15:24:31Z</time>
      </trkpt>
      <trkpt lat="45.84512" lon="1.19683">
        <ele>331.8</ele>
        <time>2024-11-18T15:24:34Z</time>
      </trkpt>
      <trkpt lat="45.84517" lon="1.19706">
        <ele>331.4</ele>
        <time>2024-11-18T15:24:37Z</time>
      </trkpt>
      <trkpt lat="45.84523" lon="1.19728">
        <ele>331</ele>
        <time>2024-11-18T15:24:40Z</time>
      </trkpt>
      <trkpt lat="45.84529" lon="1.19751">
        <ele>330.8</ele>
        <time>2024-11-18T15:24:43Z</time>
      </trkpt>
      <trkpt lat="45.84538" lon="1.19772">
        <ele>330.3</ele>
        <time>2024-11-18T15:24:46Z</time>
      </trkpt>
      <trkpt lat="45.8454" lon="1.19794">
        <ele>329</ele>
        <time>2024-11-18T15:24:49Z</time>
      </trkpt>
      <trkpt lat="45.84535" lon="1.19813">
        <ele>327.5</ele>
        <time>2024-11-18T15:24:52Z</time>
      </trkpt>
      <trkpt lat="45.84535" lon="1.19822">
        <ele>326.7</ele>
        <time>2024-11-18T15:24:55Z</time>
      </trkpt>
      <trkpt lat="45.84534" lon="1.19833">
        <ele>325.6</ele>
        <time>2024-11-18T15:24:58Z</time>
      </trkpt>
      <trkpt lat="45.8453" lon="1.19859">
        <ele>323.2</ele>
        <time>2024-11-18T15:25:01Z</time>
      </trkpt>
      <trkpt lat="45.84534" lon="1.19886">
        <ele>322.4</ele>
        <time>2024-11-18T15:25:04Z</time>
      </trkpt>
      <trkpt lat="45.8454" lon="1.19911">
        <ele>321.6</ele>
        <time>2024-11-18T15:25:07Z</time>
      </trkpt>
      <trkpt lat="45.84547" lon="1.19935">
        <ele>320.8</ele>
        <time>2024-11-18T15:25:10Z</time>
      </trkpt>
      <trkpt lat="45.84553" lon="1.19961">
        <ele>319.7</ele>
        <time>2024-11-18T15:25:13Z</time>
      </trkpt>
      <trkpt lat="45.84559" lon="1.1999">
        <ele>318.4</ele>
        <time>2024-11-18T15:25:16Z</time>
      </trkpt>
      <trkpt lat="45.84566" lon="1.20016">
        <ele>317.7</ele>
        <time>2024-11-18T15:25:19Z</time>
      </trkpt>
      <trkpt lat="45.84571" lon="1.20038">
        <ele>317.8</ele>
        <time>2024-11-18T15:25:22Z</time>
      </trkpt>
      <trkpt lat="45.84568" lon="1.2006">
        <ele>317</ele>
        <time>2024-11-18T15:25:25Z</time>
      </trkpt>
      <trkpt lat="45.84572" lon="1.20083">
        <ele>316.5</ele>
        <time>2024-11-18T15:25:28Z</time>
      </trkpt>
      <trkpt lat="45.84586" lon="1.201">
        <ele>316.7</ele>
        <time>2024-11-18T15:25:31Z</time>
      </trkpt>
      <trkpt lat="45.84594" lon="1.20125">
        <ele>316.8</ele>
        <time>2024-11-18T15:25:34Z</time>
      </trkpt>
      <trkpt lat="45.84597" lon="1.20148">
        <ele>317</ele>
        <time>2024-11-18T15:25:37Z</time>
      </trkpt>
      <trkpt lat="45.84597" lon="1.20172">
        <ele>317.1</ele>
        <time>2024-11-18T15:25:40Z</time>
      </trkpt>
      <trkpt lat="45.84593" lon="1.20196">
        <ele>317.1</ele>
        <time>2024-11-18T15:25:43Z</time>
      </trkpt>
      <trkpt lat="45.84591" lon="1.20221">
        <ele>317</ele>
        <time>2024-11-18T15:25:46Z</time>
      </trkpt>
      <trkpt lat="45.84586" lon="1.20247">
        <ele>316.9</ele>
        <time>2024-11-18T15:25:49Z</time>
      </trkpt>
      <trkpt lat="45.84584" lon="1.20274">
        <ele>317</ele>
        <time>2024-11-18T15:25:52Z</time>
      </trkpt>
      <trkpt lat="45.84581" lon="1.20299">
        <ele>317.3</ele>
        <time>2024-11-18T15:25:55Z</time>
      </trkpt>
      <trkpt lat="45.84582" lon="1.20322">
        <ele>317.6</ele>
        <time>2024-11-18T15:25:58Z</time>
      </trkpt>
      <trkpt lat="45.84584" lon="1.20344">
        <ele>318.1</ele>
        <time>2024-11-18T15:26:01Z</time>
      </trkpt>
      <trkpt lat="45.84587" lon="1.20364">
        <ele>318.6</ele>
        <time>2024-11-18T15:26:04Z</time>
      </trkpt>
      <trkpt lat="45.84591" lon="1.2038">
        <ele>319</ele>
        <time>2024-11-18T15:26:07Z</time>
      </trkpt>
      <trkpt lat="45.84596" lon="1.20393">
        <ele>319.3</ele>
        <time>2024-11-18T15:26:10Z</time>
      </trkpt>
      <trkpt lat="45.84593" lon="1.20402">
        <ele>318.9</ele>
        <time>2024-11-18T15:26:13Z</time>
      </trkpt>
      <trkpt lat="45.8458" lon="1.20409">
        <ele>318.1</ele>
        <time>2024-11-18T15:26:16Z</time>
      </trkpt>
      <trkpt lat="45.84567" lon="1.20419">
        <ele>317.4</ele>
        <time>2024-11-18T15:26:19Z</time>
      </trkpt>
      <trkpt lat="45.84557" lon="1.20432">
        <ele>317</ele>
        <time>2024-11-18T15:26:22Z</time>
      </trkpt>
      <trkpt lat="45.84549" lon="1.2044">
        <ele>316.7</ele>
        <time>2024-11-18T15:26:25Z</time>
      </trkpt>
      <trkpt lat="45.84546" lon="1.20446">
        <ele>316.5</ele>
        <time>2024-11-18T15:26:28Z</time>
      </trkpt>
      <trkpt lat="45.84545" lon="1.20456">
        <ele>316.3</ele>
        <time>2024-11-18T15:26:31Z</time>
      </trkpt>
      <trkpt lat="45.84551" lon="1.20466">
        <ele>316.4</ele>
        <time>2024-11-18T15:26:34Z</time>
      </trkpt>
      <trkpt lat="45.84556" lon="1.20478">
        <ele>316.6</ele>
        <time>2024-11-18T15:26:37Z</time>
      </trkpt>
      <trkpt lat="45.84558" lon="1.20488">
        <ele>316.6</ele>
        <time>2024-11-18T15:26:40Z</time>
      </trkpt>
      <trkpt lat="45.8456" lon="1.20482">
        <ele>316.6</ele>
        <time>2024-11-18T15:26:43Z</time>
      </trkpt>
      <trkpt lat="45.84558" lon="1.20488">
        <ele>316.6</ele>
        <time>2024-11-18T15:26:46Z</time>
      </trkpt>
      <trkpt lat="45.84563" lon="1.20499">
        <ele>316.6</ele>
        <time>2024-11-18T15:26:49Z</time>
      </trkpt>
      <trkpt lat="45.84568" lon="1.20512">
        <ele>316.5</ele>
        <time>2024-11-18T15:26:52Z</time>
      </trkpt>
      <trkpt lat="45.84575" lon="1.20524">
        <ele>316.4</ele>
        <time>2024-11-18T15:26:55Z</time>
      </trkpt>
      <trkpt lat="45.84577" lon="1.20537">
        <ele>316.4</ele>
        <time>2024-11-18T15:26:58Z</time>
      </trkpt>
      <trkpt lat="45.84581" lon="1.20551">
        <ele>316.3</ele>
        <time>2024-11-18T15:27:01Z</time>
      </trkpt>
      <trkpt lat="45.84586" lon="1.20569">
        <ele>316.4</ele>
        <time>2024-11-18T15:27:04Z</time>
      </trkpt>
      <trkpt lat="45.84593" lon="1.20586">
        <ele>316.5</ele>
        <time>2024-11-18T15:27:07Z</time>
      </trkpt>
      <trkpt lat="45.84599" lon="1.20603">
        <ele>316.7</ele>
        <time>2024-11-18T15:27:10Z</time>
      </trkpt>
      <trkpt lat="45.84601" lon="1.20622">
        <ele>315.5</ele>
        <time>2024-11-18T15:27:13Z</time>
      </trkpt>
      <trkpt lat="45.84592" lon="1.20639">
        <ele>313.7</ele>
        <time>2024-11-18T15:27:16Z</time>
      </trkpt>
      <trkpt lat="45.8458" lon="1.20652">
        <ele>312</ele>
        <time>2024-11-18T15:27:19Z</time>
      </trkpt>
      <trkpt lat="45.84566" lon="1.20663">
        <ele>310.2</ele>
        <time>2024-11-18T15:27:22Z</time>
      </trkpt>
      <trkpt lat="45.84556" lon="1.2067">
        <ele>308.7</ele>
        <time>2024-11-18T15:27:25Z</time>
      </trkpt>
      <trkpt lat="45.84546" lon="1.20678">
        <ele>307.5</ele>
        <time>2024-11-18T15:27:28Z</time>
      </trkpt>
      <trkpt lat="45.84537" lon="1.20691">
        <ele>306.3</ele>
        <time>2024-11-18T15:27:31Z</time>
      </trkpt>
      <trkpt lat="45.84522" lon="1.20703">
        <ele>304.9</ele>
        <time>2024-11-18T15:27:34Z</time>
      </trkpt>
      <trkpt lat="45.84507" lon="1.20714">
        <ele>303.8</ele>
        <time>2024-11-18T15:27:37Z</time>
      </trkpt>
      <trkpt lat="45.84494" lon="1.20725">
        <ele>302.9</ele>
        <time>2024-11-18T15:27:40Z</time>
      </trkpt>
      <trkpt lat="45.84483" lon="1.20737">
        <ele>302.3</ele>
        <time>2024-11-18T15:27:43Z</time>
      </trkpt>
      <trkpt lat="45.84475" lon="1.20754">
        <ele>302</ele>
        <time>2024-11-18T15:27:46Z</time>
      </trkpt>
      <trkpt lat="45.8448" lon="1.20772">
        <ele>302.3</ele>
        <time>2024-11-18T15:27:49Z</time>
      </trkpt>
      <trkpt lat="45.84487" lon="1.20786">
        <ele>302.6</ele>
        <time>2024-11-18T15:27:52Z</time>
      </trkpt>
      <trkpt lat="45.84493" lon="1.208">
        <ele>302.8</ele>
        <time>2024-11-18T15:27:55Z</time>
      </trkpt>
      <trkpt lat="45.84499" lon="1.20813">
        <ele>303</ele>
        <time>2024-11-18T15:27:58Z</time>
      </trkpt>
      <trkpt lat="45.84505" lon="1.20827">
        <ele>303.3</ele>
        <time>2024-11-18T15:28:01Z</time>
      </trkpt>
      <trkpt lat="45.84512" lon="1.20839">
        <ele>303.5</ele>
        <time>2024-11-18T15:28:04Z</time>
      </trkpt>
      <trkpt lat="45.84516" lon="1.20852">
        <ele>303.7</ele>
        <time>2024-11-18T15:28:07Z</time>
      </trkpt>
      <trkpt lat="45.84522" lon="1.20865">
        <ele>303.9</ele>
        <time>2024-11-18T15:28:10Z</time>
      </trkpt>
      <trkpt lat="45.84527" lon="1.20879">
        <ele>304.2</ele>
        <time>2024-11-18T15:28:13Z</time>
      </trkpt>
      <trkpt lat="45.84533" lon="1.20891">
        <ele>304.4</ele>
        <time>2024-11-18T15:28:16Z</time>
      </trkpt>
      <trkpt lat="45.84537" lon="1.20903">
        <ele>304.6</ele>
        <time>2024-11-18T15:28:19Z</time>
      </trkpt>
      <trkpt lat="45.84541" lon="1.20917">
        <ele>304.8</ele>
        <time>2024-11-18T15:28:22Z</time>
      </trkpt>
      <trkpt lat="45.84542" lon="1.20932">
        <ele>305</ele>
        <time>2024-11-18T15:28:25Z</time>
      </trkpt>
      <trkpt lat="45.84539" lon="1.20944">
        <ele>305.2</ele>
        <time>2024-11-18T15:28:28Z</time>
      </trkpt>
      <trkpt lat="45.84531" lon="1.20955">
        <ele>305.4</ele>
        <time>2024-11-18T15:28:31Z</time>
      </trkpt>
      <trkpt lat="45.84523" lon="1.20967">
        <ele>305.7</ele>
        <time>2024-11-18T15:28:34Z</time>
      </trkpt>
      <trkpt lat="45.84516" lon="1.2098">
        <ele>305.9</ele>
        <time>2024-11-18T15:28:37Z</time>
      </trkpt>
      <trkpt lat="45.8451" lon="1.20988">
        <ele>306.1</ele>
        <time>2024-11-18T15:28:40Z</time>
      </trkpt>
      <trkpt lat="45.84504" lon="1.20988">
        <ele>306.2</ele>
        <time>2024-11-18T15:28:43Z</time>
      </trkpt>
      <trkpt lat="45.84499" lon="1.20993">
        <ele>306.4</ele>
        <time>2024-11-18T15:28:46Z</time>
      </trkpt>
      <trkpt lat="45.84504" lon="1.21004">
        <ele>306</ele>
        <time>2024-11-18T15:28:49Z</time>
      </trkpt>
      <trkpt lat="45.8451" lon="1.21017">
        <ele>305.2</ele>
        <time>2024-11-18T15:28:52Z</time>
      </trkpt>
      <trkpt lat="45.84515" lon="1.2103">
        <ele>304.5</ele>
        <time>2024-11-18T15:28:55Z</time>
      </trkpt>
      <trkpt lat="45.84517" lon="1.2104">
        <ele>304.1</ele>
        <time>2024-11-18T15:28:58Z</time>
      </trkpt>
      <trkpt lat="45.84518" lon="1.21049">
        <ele>303.6</ele>
        <time>2024-11-18T15:29:01Z</time>
      </trkpt>
      <trkpt lat="45.84516" lon="1.21057">
        <ele>303.2</ele>
        <time>2024-11-18T15:29:04Z</time>
      </trkpt>
      <trkpt lat="45.84509" lon="1.21067">
        <ele>302.6</ele>
        <time>2024-11-18T15:29:07Z</time>
      </trkpt>
      <trkpt lat="45.84504" lon="1.21076">
        <ele>302.1</ele>
        <time>2024-11-18T15:29:10Z</time>
      </trkpt>
      <trkpt lat="45.84501" lon="1.21084">
        <ele>301.6</ele>
        <time>2024-11-18T15:29:13Z</time>
      </trkpt>
      <trkpt lat="45.84494" lon="1.2109">
        <ele>301.1</ele>
        <time>2024-11-18T15:29:16Z</time>
      </trkpt>
      <trkpt lat="45.84488" lon="1.21097">
        <ele>300.6</ele>
        <time>2024-11-18T15:29:19Z</time>
      </trkpt>
      <trkpt lat="45.84481" lon="1.21105">
        <ele>300</ele>
        <time>2024-11-18T15:29:22Z</time>
      </trkpt>
      <trkpt lat="45.84476" lon="1.21111">
        <ele>299.5</ele>
        <time>2024-11-18T15:29:25Z</time>
      </trkpt>
      <trkpt lat="45.84473" lon="1.21114">
        <ele>299.3</ele>
        <time>2024-11-18T15:29:28Z</time>
      </trkpt>
      <trkpt lat="45.84469" lon="1.21114">
        <ele>299</ele>
        <time>2024-11-18T15:29:31Z</time>
      </trkpt>
      <trkpt lat="45.84463" lon="1.21105">
        <ele>298.8</ele>
        <time>2024-11-18T15:29:34Z</time>
      </trkpt>
      <trkpt lat="45.84461" lon="1.21091">
        <ele>298.7</ele>
        <time>2024-11-18T15:29:37Z</time>
      </trkpt>
      <trkpt lat="45.84456" lon="1.2108">
        <ele>298.6</ele>
        <time>2024-11-18T15:29:40Z</time>
      </trkpt>
      <trkpt lat="45.84452" lon="1.21071">
        <ele>298.5</ele>
        <time>2024-11-18T15:29:43Z</time>
      </trkpt>
      <trkpt lat="45.84448" lon="1.2106">
        <ele>298.4</ele>
        <time>2024-11-18T15:29:46Z</time>
      </trkpt>
      <trkpt lat="45.84441" lon="1.21048">
        <ele>298.3</ele>
        <time>2024-11-18T15:29:49Z</time>
      </trkpt>
      <trkpt lat="45.84437" lon="1.21035">
        <ele>298.1</ele>
        <time>2024-11-18T15:29:52Z</time>
      </trkpt>
      <trkpt lat="45.84431" lon="1.21034">
        <ele>298.1</ele>
        <time>2024-11-18T15:29:55Z</time>
      </trkpt>
      <trkpt lat="45.84434" lon="1.21043">
        <ele>298</ele>
        <time>2024-11-18T15:29:58Z</time>
      </trkpt>
      <trkpt lat="45.84441" lon="1.21053">
        <ele>298.1</ele>
        <time>2024-11-18T15:30:01Z</time>
      </trkpt>
      <trkpt lat="45.84446" lon="1.21065">
        <ele>298.3</ele>
        <time>2024-11-18T15:30:04Z</time>
      </trkpt>
      <trkpt lat="45.84451" lon="1.21077">
        <ele>298.4</ele>
        <time>2024-11-18T15:30:07Z</time>
      </trkpt>
      <trkpt lat="45.84455" lon="1.21086">
        <ele>298.5</ele>
        <time>2024-11-18T15:30:10Z</time>
      </trkpt>
      <trkpt lat="45.8446" lon="1.21093">
        <ele>298.7</ele>
        <time>2024-11-18T15:30:13Z</time>
      </trkpt>
      <trkpt lat="45.84465" lon="1.21106">
        <ele>298.8</ele>
        <time>2024-11-18T15:30:16Z</time>
      </trkpt>
      <trkpt lat="45.84467" lon="1.21119">
        <ele>299</ele>
        <time>2024-11-18T15:30:19Z</time>
      </trkpt>
      <trkpt lat="45.8446" lon="1.2113">
        <ele>297.6</ele>
        <time>2024-11-18T15:30:22Z</time>
      </trkpt>
      <trkpt lat="45.84453" lon="1.21138">
        <ele>296.9</ele>
        <time>2024-11-18T15:30:25Z</time>
      </trkpt>
      <trkpt lat="45.84446" lon="1.21145">
        <ele>296.2</ele>
        <time>2024-11-18T15:30:28Z</time>
      </trkpt>
      <trkpt lat="45.84439" lon="1.21153">
        <ele>295.5</ele>
        <time>2024-11-18T15:30:31Z</time>
      </trkpt>
      <trkpt lat="45.84435" lon="1.21158">
        <ele>295</ele>
        <time>2024-11-18T15:30:34Z</time>
      </trkpt>
      <trkpt lat="45.84432" lon="1.21163">
        <ele>294.7</ele>
        <time>2024-11-18T15:30:37Z</time>
      </trkpt>
      <trkpt lat="45.84429" lon="1.21166">
        <ele>294.4</ele>
        <time>2024-11-18T15:30:40Z</time>
      </trkpt>
      <trkpt lat="45.84426" lon="1.21168">
        <ele>294.1</ele>
        <time>2024-11-18T15:30:43Z</time>
      </trkpt>
      <trkpt lat="45.84423" lon="1.2117">
        <ele>293.9</ele>
        <time>2024-11-18T15:30:46Z</time>
      </trkpt>
      <trkpt lat="45.84419" lon="1.21171">
        <ele>293.5</ele>
        <time>2024-11-18T15:30:49Z</time>
      </trkpt>
      <trkpt lat="45.84413" lon="1.21173">
        <ele>293</ele>
        <time>2024-11-18T15:30:52Z</time>
      </trkpt>
      <trkpt lat="45.84405" lon="1.21173">
        <ele>292.4</ele>
        <time>2024-11-18T15:30:55Z</time>
      </trkpt>
      <trkpt lat="45.84397" lon="1.2117">
        <ele>291.7</ele>
        <time>2024-11-18T15:30:58Z</time>
      </trkpt>
      <trkpt lat="45.8439" lon="1.21163">
        <ele>290.9</ele>
        <time>2024-11-18T15:31:01Z</time>
      </trkpt>
      <trkpt lat="45.84385" lon="1.21156">
        <ele>290.4</ele>
        <time>2024-11-18T15:31:04Z</time>
      </trkpt>
      <trkpt lat="45.84379" lon="1.21153">
        <ele>289.9</ele>
        <time>2024-11-18T15:31:07Z</time>
      </trkpt>
      <trkpt lat="45.84378" lon="1.21153">
        <ele>289.8</ele>
        <time>2024-11-18T15:31:10Z</time>
      </trkpt>
      <trkpt lat="45.84377" lon="1.21151">
        <ele>289.7</ele>
        <time>2024-11-18T15:31:13Z</time>
      </trkpt>
      <trkpt lat="45.84376" lon="1.21151">
        <ele>289.6</ele>
        <time>2024-11-18T15:31:16Z</time>
      </trkpt>
      <trkpt lat="45.84373" lon="1.21147">
        <ele>289.3</ele>
        <time>2024-11-18T15:31:19Z</time>
      </trkpt>
      <trkpt lat="45.84372" lon="1.21146">
        <ele>289.2</ele>
        <time>2024-11-18T15:31:22Z</time>
      </trkpt>
      <trkpt lat="45.8437" lon="1.21143">
        <ele>289</ele>
        <time>2024-11-18T15:31:25Z</time>
      </trkpt>
      <trkpt lat="45.84369" lon="1.21136">
        <ele>288.5</ele>
        <time>2024-11-18T15:31:28Z</time>
      </trkpt>
      <trkpt lat="45.84364" lon="1.21128">
        <ele>287.9</ele>
        <time>2024-11-18T15:31:31Z</time>
      </trkpt>
      <trkpt lat="45.8436" lon="1.21119">
        <ele>287.3</ele>
        <time>2024-11-18T15:31:34Z</time>
      </trkpt>
      <trkpt lat="45.84356" lon="1.21115">
        <ele>286.9</ele>
        <time>2024-11-18T15:31:37Z</time>
      </trkpt>
      <trkpt lat="45.84348" lon="1.2112">
        <ele>286</ele>
        <time>2024-11-18T15:31:40Z</time>
      </trkpt>
      <trkpt lat="45.8434" lon="1.21127">
        <ele>284.9</ele>
        <time>2024-11-18T15:31:43Z</time>
      </trkpt>
      <trkpt lat="45.84333" lon="1.21135">
        <ele>284</ele>
        <time>2024-11-18T15:31:46Z</time>
      </trkpt>
      <trkpt lat="45.84329" lon="1.21142">
        <ele>283.3</ele>
        <time>2024-11-18T15:31:49Z</time>
      </trkpt>
      <trkpt lat="45.84324" lon="1.21149">
        <ele>282.5</ele>
        <time>2024-11-18T15:31:52Z</time>
      </trkpt>
      <trkpt lat="45.84314" lon="1.21147">
        <ele>281.4</ele>
        <time>2024-11-18T15:31:55Z</time>
      </trkpt>
      <trkpt lat="45.84302" lon="1.21135">
        <ele>280.7</ele>
        <time>2024-11-18T15:31:58Z</time>
      </trkpt>
      <trkpt lat="45.84289" lon="1.21125">
        <ele>279.8</ele>
        <time>2024-11-18T15:32:01Z</time>
      </trkpt>
      <trkpt lat="45.84271" lon="1.21117">
        <ele>278.8</ele>
        <time>2024-11-18T15:32:04Z</time>
      </trkpt>
      <trkpt lat="45.84251" lon="1.21115">
        <ele>277.8</ele>
        <time>2024-11-18T15:32:07Z</time>
      </trkpt>
      <trkpt lat="45.84228" lon="1.21113">
        <ele>277</ele>
        <time>2024-11-18T15:32:10Z</time>
      </trkpt>
      <trkpt lat="45.84208" lon="1.21116">
        <ele>276.6</ele>
        <time>2024-11-18T15:32:13Z</time>
      </trkpt>
      <trkpt lat="45.8419" lon="1.21132">
        <ele>276.3</ele>
        <time>2024-11-18T15:32:16Z</time>
      </trkpt>
      <trkpt lat="45.84174" lon="1.21149">
        <ele>276</ele>
        <time>2024-11-18T15:32:19Z</time>
      </trkpt>
      <trkpt lat="45.84159" lon="1.21166">
        <ele>275.7</ele>
        <time>2024-11-18T15:32:22Z</time>
      </trkpt>
      <trkpt lat="45.84142" lon="1.21181">
        <ele>275.4</ele>
        <time>2024-11-18T15:32:25Z</time>
      </trkpt>
      <trkpt lat="45.84129" lon="1.21198">
        <ele>275.5</ele>
        <time>2024-11-18T15:32:28Z</time>
      </trkpt>
      <trkpt lat="45.84115" lon="1.21212">
        <ele>275.7</ele>
        <time>2024-11-18T15:32:31Z</time>
      </trkpt>
      <trkpt lat="45.84102" lon="1.21225">
        <ele>275.9</ele>
        <time>2024-11-18T15:32:34Z</time>
      </trkpt>
      <trkpt lat="45.84088" lon="1.21238">
        <ele>275.9</ele>
        <time>2024-11-18T15:32:37Z</time>
      </trkpt>
      <trkpt lat="45.84074" lon="1.21247">
        <ele>275.8</ele>
        <time>2024-11-18T15:32:40Z</time>
      </trkpt>
      <trkpt lat="45.84058" lon="1.21255">
        <ele>275.5</ele>
        <time>2024-11-18T15:32:43Z</time>
      </trkpt>
      <trkpt lat="45.84042" lon="1.21263">
        <ele>275.2</ele>
        <time>2024-11-18T15:32:46Z</time>
      </trkpt>
      <trkpt lat="45.84027" lon="1.21269">
        <ele>274.9</ele>
        <time>2024-11-18T15:32:49Z</time>
      </trkpt>
      <trkpt lat="45.84011" lon="1.21278">
        <ele>274.7</ele>
        <time>2024-11-18T15:32:52Z</time>
      </trkpt>
      <trkpt lat="45.83995" lon="1.21286">
        <ele>274.5</ele>
        <time>2024-11-18T15:32:55Z</time>
      </trkpt>
      <trkpt lat="45.83979" lon="1.21296">
        <ele>274.3</ele>
        <time>2024-11-18T15:32:58Z</time>
      </trkpt>
      <trkpt lat="45.83962" lon="1.21307">
        <ele>274</ele>
        <time>2024-11-18T15:33:01Z</time>
      </trkpt>
      <trkpt lat="45.83943" lon="1.21311">
        <ele>273.3</ele>
        <time>2024-11-18T15:33:04Z</time>
      </trkpt>
      <trkpt lat="45.83924" lon="1.21314">
        <ele>272.5</ele>
        <time>2024-11-18T15:33:07Z</time>
      </trkpt>
      <trkpt lat="45.83909" lon="1.21318">
        <ele>271.9</ele>
        <time>2024-11-18T15:33:10Z</time>
      </trkpt>
      <trkpt lat="45.83899" lon="1.21321">
        <ele>271.6</ele>
        <time>2024-11-18T15:33:13Z</time>
      </trkpt>
      <trkpt lat="45.83887" lon="1.21327">
        <ele>271.2</ele>
        <time>2024-11-18T15:33:16Z</time>
      </trkpt>
      <trkpt lat="45.83881" lon="1.21342">
        <ele>269.9</ele>
        <time>2024-11-18T15:33:19Z</time>
      </trkpt>
      <trkpt lat="45.83871" lon="1.21359">
        <ele>268.8</ele>
        <time>2024-11-18T15:33:22Z</time>
      </trkpt>
      <trkpt lat="45.83859" lon="1.21378">
        <ele>267.6</ele>
        <time>2024-11-18T15:33:25Z</time>
      </trkpt>
      <trkpt lat="45.83844" lon="1.214">
        <ele>266.1</ele>
        <time>2024-11-18T15:33:28Z</time>
      </trkpt>
      <trkpt lat="45.83837" lon="1.21429">
        <ele>264.7</ele>
        <time>2024-11-18T15:33:31Z</time>
      </trkpt>
      <trkpt lat="45.83835" lon="1.2146">
        <ele>263.2</ele>
        <time>2024-11-18T15:33:34Z</time>
      </trkpt>
      <trkpt lat="45.83836" lon="1.21495">
        <ele>261.9</ele>
        <time>2024-11-18T15:33:37Z</time>
      </trkpt>
      <trkpt lat="45.83838" lon="1.21529">
        <ele>261.1</ele>
        <time>2024-11-18T15:33:40Z</time>
      </trkpt>
      <trkpt lat="45.8384" lon="1.21558">
        <ele>260.8</ele>
        <time>2024-11-18T15:33:43Z</time>
      </trkpt>
      <trkpt lat="45.83837" lon="1.21588">
        <ele>260.6</ele>
        <time>2024-11-18T15:33:46Z</time>
      </trkpt>
      <trkpt lat="45.83831" lon="1.21614">
        <ele>260.9</ele>
        <time>2024-11-18T15:33:49Z</time>
      </trkpt>
      <trkpt lat="45.83823" lon="1.21636">
        <ele>260.5</ele>
        <time>2024-11-18T15:33:52Z</time>
      </trkpt>
      <trkpt lat="45.83812" lon="1.21658">
        <ele>260.2</ele>
        <time>2024-11-18T15:33:55Z</time>
      </trkpt>
      <trkpt lat="45.838" lon="1.21677">
        <ele>259.9</ele>
        <time>2024-11-18T15:33:58Z</time>
      </trkpt>
      <trkpt lat="45.83787" lon="1.21696">
        <ele>259.4</ele>
        <time>2024-11-18T15:34:01Z</time>
      </trkpt>
      <trkpt lat="45.83775" lon="1.21712">
        <ele>258.9</ele>
        <time>2024-11-18T15:34:04Z</time>
      </trkpt>
      <trkpt lat="45.83759" lon="1.2173">
        <ele>258.3</ele>
        <time>2024-11-18T15:34:07Z</time>
      </trkpt>
      <trkpt lat="45.83743" lon="1.21746">
        <ele>257.7</ele>
        <time>2024-11-18T15:34:10Z</time>
      </trkpt>
      <trkpt lat="45.83728" lon="1.21763">
        <ele>257.2</ele>
        <time>2024-11-18T15:34:13Z</time>
      </trkpt>
      <trkpt lat="45.83713" lon="1.21779">
        <ele>256.6</ele>
        <time>2024-11-18T15:34:16Z</time>
      </trkpt>
      <trkpt lat="45.83698" lon="1.21797">
        <ele>256</ele>
        <time>2024-11-18T15:34:19Z</time>
      </trkpt>
      <trkpt lat="45.83685" lon="1.21816">
        <ele>255.6</ele>
        <time>2024-11-18T15:34:22Z</time>
      </trkpt>
      <trkpt lat="45.83673" lon="1.21836">
        <ele>255.1</ele>
        <time>2024-11-18T15:34:25Z</time>
      </trkpt>
      <trkpt lat="45.83662" lon="1.21857">
        <ele>254.4</ele>
        <time>2024-11-18T15:34:28Z</time>
      </trkpt>
      <trkpt lat="45.83652" lon="1.21879">
        <ele>253.7</ele>
        <time>2024-11-18T15:34:31Z</time>
      </trkpt>
      <trkpt lat="45.83643" lon="1.21902">
        <ele>253</ele>
        <time>2024-11-18T15:34:34Z</time>
      </trkpt>
      <trkpt lat="45.83637" lon="1.21922">
        <ele>252.6</ele>
        <time>2024-11-18T15:34:37Z</time>
      </trkpt>
      <trkpt lat="45.83636" lon="1.2193">
        <ele>252.6</ele>
        <time>2024-11-18T15:34:40Z</time>
      </trkpt>
      <trkpt lat="45.83637" lon="1.21937">
        <ele>252.5</ele>
        <time>2024-11-18T15:34:43Z</time>
      </trkpt>
      <trkpt lat="45.8363" lon="1.21945">
        <ele>252.4</ele>
        <time>2024-11-18T15:34:46Z</time>
      </trkpt>
      <trkpt lat="45.83625" lon="1.21965">
        <ele>252.1</ele>
        <time>2024-11-18T15:34:49Z</time>
      </trkpt>
      <trkpt lat="45.83618" lon="1.21988">
        <ele>251.9</ele>
        <time>2024-11-18T15:34:52Z</time>
      </trkpt>
      <trkpt lat="45.83612" lon="1.2201">
        <ele>251.8</ele>
        <time>2024-11-18T15:34:55Z</time>
      </trkpt>
      <trkpt lat="45.83605" lon="1.22032">
        <ele>251.8</ele>
        <time>2024-11-18T15:34:58Z</time>
      </trkpt>
      <trkpt lat="45.83599" lon="1.22054">
        <ele>252</ele>
        <time>2024-11-18T15:35:01Z</time>
      </trkpt>
      <trkpt lat="45.83594" lon="1.22075">
        <ele>252.2</ele>
        <time>2024-11-18T15:35:04Z</time>
      </trkpt>
      <trkpt lat="45.83588" lon="1.22093">
        <ele>252.5</ele>
        <time>2024-11-18T15:35:07Z</time>
      </trkpt>
      <trkpt lat="45.83585" lon="1.2211">
        <ele>252.8</ele>
        <time>2024-11-18T15:35:10Z</time>
      </trkpt>
      <trkpt lat="45.83587" lon="1.22122">
        <ele>253</ele>
        <time>2024-11-18T15:35:13Z</time>
      </trkpt>
      <trkpt lat="45.8359" lon="1.22129">
        <ele>253</ele>
        <time>2024-11-18T15:35:16Z</time>
      </trkpt>
      <trkpt lat="45.83591" lon="1.22137">
        <ele>253.1</ele>
        <time>2024-11-18T15:35:19Z</time>
      </trkpt>
      <trkpt lat="45.83583" lon="1.2214">
        <ele>252.9</ele>
        <time>2024-11-18T15:35:22Z</time>
      </trkpt>
      <trkpt lat="45.83572" lon="1.2214">
        <ele>252.5</ele>
        <time>2024-11-18T15:35:25Z</time>
      </trkpt>
      <trkpt lat="45.83562" lon="1.22142">
        <ele>252.4</ele>
        <time>2024-11-18T15:35:28Z</time>
      </trkpt>
      <trkpt lat="45.83551" lon="1.22146">
        <ele>252.3</ele>
        <time>2024-11-18T15:35:31Z</time>
      </trkpt>
      <trkpt lat="45.8354" lon="1.22152">
        <ele>252.6</ele>
        <time>2024-11-18T15:35:34Z</time>
      </trkpt>
      <trkpt lat="45.8353" lon="1.2216">
        <ele>253.1</ele>
        <time>2024-11-18T15:35:37Z</time>
      </trkpt>
      <trkpt lat="45.83521" lon="1.22167">
        <ele>253.7</ele>
        <time>2024-11-18T15:35:40Z</time>
      </trkpt>
      <trkpt lat="45.83512" lon="1.22175">
        <ele>254.3</ele>
        <time>2024-11-18T15:35:43Z</time>
      </trkpt>
      <trkpt lat="45.83505" lon="1.22183">
        <ele>254.9</ele>
        <time>2024-11-18T15:35:46Z</time>
      </trkpt>
      <trkpt lat="45.83499" lon="1.22192">
        <ele>255.5</ele>
        <time>2024-11-18T15:35:49Z</time>
      </trkpt>
      <trkpt lat="45.83493" lon="1.22203">
        <ele>256.3</ele>
        <time>2024-11-18T15:35:52Z</time>
      </trkpt>
      <trkpt lat="45.83487" lon="1.22214">
        <ele>257</ele>
        <time>2024-11-18T15:35:55Z</time>
      </trkpt>
      <trkpt lat="45.83482" lon="1.22226">
        <ele>257.8</ele>
        <time>2024-11-18T15:35:58Z</time>
      </trkpt>
      <trkpt lat="45.83479" lon="1.22237">
        <ele>258.5</ele>
        <time>2024-11-18T15:36:01Z</time>
      </trkpt>
      <trkpt lat="45.83477" lon="1.22248">
        <ele>259.1</ele>
        <time>2024-11-18T15:36:04Z</time>
      </trkpt>
      <trkpt lat="45.83476" lon="1.2226">
        <ele>259.7</ele>
        <time>2024-11-18T15:36:07Z</time>
      </trkpt>
      <trkpt lat="45.83475" lon="1.22274">
        <ele>260.3</ele>
        <time>2024-11-18T15:36:10Z</time>
      </trkpt>
      <trkpt lat="45.83475" lon="1.22287">
        <ele>260.9</ele>
        <time>2024-11-18T15:36:13Z</time>
      </trkpt>
      <trkpt lat="45.83474" lon="1.223">
        <ele>261.5</ele>
        <time>2024-11-18T15:36:16Z</time>
      </trkpt>
      <trkpt lat="45.83473" lon="1.22313">
        <ele>262.1</ele>
        <time>2024-11-18T15:36:19Z</time>
      </trkpt>
      <trkpt lat="45.83472" lon="1.22326">
        <ele>262.7</ele>
        <time>2024-11-18T15:36:22Z</time>
      </trkpt>
      <trkpt lat="45.83472" lon="1.22338">
        <ele>263.2</ele>
        <time>2024-11-18T15:36:25Z</time>
      </trkpt>
      <trkpt lat="45.8347" lon="1.22347">
        <ele>263.6</ele>
        <time>2024-11-18T15:36:28Z</time>
      </trkpt>
      <trkpt lat="45.83468" lon="1.2236">
        <ele>264.1</ele>
        <time>2024-11-18T15:36:31Z</time>
      </trkpt>
      <trkpt lat="45.83467" lon="1.22374">
        <ele>264.7</ele>
        <time>2024-11-18T15:36:34Z</time>
      </trkpt>
      <trkpt lat="45.83465" lon="1.22386">
        <ele>265.2</ele>
        <time>2024-11-18T15:36:37Z</time>
      </trkpt>
      <trkpt lat="45.83464" lon="1.22399">
        <ele>265.7</ele>
        <time>2024-11-18T15:36:40Z</time>
      </trkpt>
      <trkpt lat="45.83462" lon="1.22413">
        <ele>266.2</ele>
        <time>2024-11-18T15:36:43Z</time>
      </trkpt>
      <trkpt lat="45.83464" lon="1.2243">
        <ele>266.8</ele>
        <time>2024-11-18T15:36:46Z</time>
      </trkpt>
      <trkpt lat="45.83465" lon="1.22446">
        <ele>267.4</ele>
        <time>2024-11-18T15:36:49Z</time>
      </trkpt>
      <trkpt lat="45.83465" lon="1.22462">
        <ele>267.9</ele>
        <time>2024-11-18T15:36:52Z</time>
      </trkpt>
      <trkpt lat="45.83465" lon="1.22478">
        <ele>268.4</ele>
        <time>2024-11-18T15:36:55Z</time>
      </trkpt>
      <trkpt lat="45.83466" lon="1.22493">
        <ele>268.9</ele>
        <time>2024-11-18T15:36:58Z</time>
      </trkpt>
      <trkpt lat="45.83466" lon="1.22509">
        <ele>269.5</ele>
        <time>2024-11-18T15:37:01Z</time>
      </trkpt>
      <trkpt lat="45.83465" lon="1.22524">
        <ele>270</ele>
        <time>2024-11-18T15:37:04Z</time>
      </trkpt>
      <trkpt lat="45.83464" lon="1.22539">
        <ele>270.4</ele>
        <time>2024-11-18T15:37:07Z</time>
      </trkpt>
      <trkpt lat="45.83465" lon="1.22552">
        <ele>270.8</ele>
        <time>2024-11-18T15:37:10Z</time>
      </trkpt>
      <trkpt lat="45.83466" lon="1.22565">
        <ele>271.1</ele>
        <time>2024-11-18T15:37:13Z</time>
      </trkpt>
      <trkpt lat="45.83473" lon="1.22569">
        <ele>270.5</ele>
        <time>2024-11-18T15:37:16Z</time>
      </trkpt>
      <trkpt lat="45.83479" lon="1.22562">
        <ele>270.4</ele>
        <time>2024-11-18T15:37:19Z</time>
      </trkpt>
      <trkpt lat="45.83486" lon="1.22557">
        <ele>270.4</ele>
        <time>2024-11-18T15:37:22Z</time>
      </trkpt>
      <trkpt lat="45.83494" lon="1.22555">
        <ele>270.4</ele>
        <time>2024-11-18T15:37:25Z</time>
      </trkpt>
      <trkpt lat="45.835" lon="1.22554">
        <ele>270.4</ele>
        <time>2024-11-18T15:37:28Z</time>
      </trkpt>
      <trkpt lat="45.83506" lon="1.22554">
        <ele>270.4</ele>
        <time>2024-11-18T15:37:31Z</time>
      </trkpt>
      <trkpt lat="45.83511" lon="1.22554">
        <ele>270.5</ele>
        <time>2024-11-18T15:37:34Z</time>
      </trkpt>
      <trkpt lat="45.83513" lon="1.22556">
        <ele>270.5</ele>
        <time>2024-11-18T15:37:37Z</time>
      </trkpt>
      <trkpt lat="45.83514" lon="1.22555">
        <ele>270.5</ele>
        <time>2024-11-18T15:37:40Z</time>
      </trkpt>
      <trkpt lat="45.83515" lon="1.22555">
        <ele>270.5</ele>
        <time>2024-11-18T15:37:43Z</time>
      </trkpt>
      <trkpt lat="45.83515" lon="1.22556">
        <ele>270.5</ele>
        <time>2024-11-18T15:37:46Z</time>
      </trkpt>
      <trkpt lat="45.83516" lon="1.22556">
        <ele>270.5</ele>
        <time>2024-11-18T15:37:49Z</time>
      </trkpt>
      <trkpt lat="45.83521" lon="1.22554">
        <ele>270.5</ele>
        <time>2024-11-18T15:37:52Z</time>
      </trkpt>
      <trkpt lat="45.83521" lon="1.22547">
        <ele>270.5</ele>
        <time>2024-11-18T15:37:55Z</time>
      </trkpt>
      <trkpt lat="45.83519" lon="1.22546">
        <ele>270.5</ele>
        <time>2024-11-18T15:37:58Z</time>
      </trkpt>
      <trkpt lat="45.83516" lon="1.22547">
        <ele>270.5</ele>
        <time>2024-11-18T15:38:01Z</time>
      </trkpt>
      <trkpt lat="45.83512" lon="1.22548">
        <ele>270.5</ele>
        <time>2024-11-18T15:38:04Z</time>
      </trkpt>
      <trkpt lat="45.83512" lon="1.22548">
        <ele>270.5</ele>
        <time>2024-11-18T15:38:07Z</time>
      </trkpt>
      <trkpt lat="45.83512" lon="1.22548">
        <ele>270.5</ele>
        <time>2024-11-18T15:38:10Z</time>
      </trkpt>
      <trkpt lat="45.83512" lon="1.22549">
        <ele>270.5</ele>
        <time>2024-11-18T15:38:13Z</time>
      </trkpt>
      <trkpt lat="45.83513" lon="1.22548">
        <ele>270.5</ele>
        <time>2024-11-18T15:38:16Z</time>
      </trkpt>
      <trkpt lat="45.83513" lon="1.22549">
        <ele>270.5</ele>
        <time>2024-11-18T15:38:19Z</time>
      </trkpt>
      <trkpt lat="45.83513" lon="1.22549">
        <ele>270.5</ele>
        <time>2024-11-18T15:38:22Z</time>
      </trkpt>
      <trkpt lat="45.83513" lon="1.22549">
        <ele>270.5</ele>
        <time>2024-11-18T15:38:25Z</time>
      </trkpt>
      <trkpt lat="45.83513" lon="1.22549">
        <ele>270.5</ele>
        <time>2024-11-18T15:38:28Z</time>
      </trkpt>
      <trkpt lat="45.83513" lon="1.22549">
        <ele>270.5</ele>
        <time>2024-11-18T15:38:31Z</time>
      </trkpt>
      <trkpt lat="45.83513" lon="1.22549">
        <ele>270.5</ele>
        <time>2024-11-18T15:38:34Z</time>
      </trkpt>
      <trkpt lat="45.83513" lon="1.22549">
        <ele>270.5</ele>
        <time>2024-11-18T15:38:37Z</time>
      </trkpt>
      <trkpt lat="45.83513" lon="1.22549">
        <ele>270.5</ele>
        <time>2024-11-18T15:38:40Z</time>
      </trkpt>
      <trkpt lat="45.83513" lon="1.22549">
        <ele>270.5</ele>
        <time>2024-11-18T15:38:43Z</time>
      </trkpt>
      <trkpt lat="45.83513" lon="1.22549">
        <ele>270.5</ele>
        <time>2024-11-18T15:38:46Z</time>
      </trkpt>
      <trkpt lat="45.83513" lon="1.22549">
        <ele>270.5</ele>
        <time>2024-11-18T15:38:49Z</time>
      </trkpt>
      <trkpt lat="45.83513" lon="1.22549">
        <ele>270.5</ele>
        <time>2024-11-18T15:38:52Z</time>
      </trkpt>
      <trkpt lat="45.83513" lon="1.22549">
        <ele>270.5</ele>
        <time>2024-11-18T15:38:55Z</time>
      </trkpt>
      <trkpt lat="45.83513" lon="1.22549">
        <ele>270.5</ele>
        <time>2024-11-18T15:38:58Z</time>
      </trkpt>
      <trkpt lat="45.83513" lon="1.22549">
        <ele>270.5</ele>
        <time>2024-11-18T15:39:01Z</time>
      </trkpt>
      <trkpt lat="45.83513" lon="1.22549">
        <ele>270.5</ele>
        <time>2024-11-18T15:39:04Z</time>
      </trkpt>
      <trkpt lat="45.83513" lon="1.22549">
        <ele>270.5</ele>
        <time>2024-11-18T15:39:07Z</time>
      </trkpt>
      <trkpt lat="45.83513" lon="1.22549">
        <ele>270.5</ele>
        <time>2024-11-18T15:39:10Z</time>
      </trkpt>
      <trkpt lat="45.83513" lon="1.22549">
        <ele>270.5</ele>
        <time>2024-11-18T15:39:13Z</time>
      </trkpt>
      <trkpt lat="45.83512" lon="1.22549">
        <ele>270.5</ele>
        <time>2024-11-18T15:39:16Z</time>
      </trkpt>
      <trkpt lat="45.83512" lon="1.22548">
        <ele>270.5</ele>
        <time>2024-11-18T15:39:19Z</time>
      </trkpt>
      <trkpt lat="45.83512" lon="1.22548">
        <ele>270.5</ele>
        <time>2024-11-18T15:39:22Z</time>
      </trkpt>
      <trkpt lat="45.83512" lon="1.22548">
        <ele>270.5</ele>
        <time>2024-11-18T15:39:25Z</time>
      </trkpt>
      <trkpt lat="45.83512" lon="1.22548">
        <ele>270.5</ele>
        <time>2024-11-18T15:39:27Z</time>
      </trkpt>
    </trkseg>
  </trk>
</gpx>